GFSSW_2pvu_pres_000.txt.gz
Presure
245 231 223 223 203 207 205 206 179 210 207 167 211 196 178 188 182 162 217 211 200 207 214 221 212 199 219 214 234 221 194 224 192 203 87 170 157 200 113 172 89 84 90 119 95
295 256 239 220 218 184 208 205 200 202 206 166 195 186 181 200 197 228 224 205 216 213 216 213 219 209 229 211 213 243 225 201 162 162 190 89 177 204 206 170 215 90 89 133 94
287 253 241 224 218 212 204 203 206 200 202 202 166 190 216 201 172 213 214 217 207 203 219 210 193 210 216 222 219 242 205 137 219 205 100 193 188 91 95 201 240 224 176 120 186
279 253 239 230 218 217 213 194 195 199 185 197 182 195 226 174 219 211 218 222 204 222 208 214 197 206 219 215 250 272 242 249 232 266 201 208 128 182 100 100 92 103 223 93 97
270 261 241 238 213 217 219 213 200 193 192 194 202 195 206 200 210 221 222 221 206 225 224 221 200 206 213 217 205 234 230 233 242 231 261 234 191 184 186 93 129 90 95 103 208
272 258 245 236 154 126 126 213 210 205 188 196 211 190 210 218 199 204 213 214 217 231 226 211 209 215 206 215 239 249 246 273 269 237 228 260 228 175 186 79 123 107 90 149 137
265 192 247 237 219 169 197 216 212 208 203 205 204 207 212 210 218 211 208 212 226 190 229 234 214 215 200 203 245 240 281 279 278 280 236 224 221 235 110 183 127 94 96 92 100
278 264 232 246 236 221 221 216 215 208 208 205 207 215 202 210 214 221 192 212 224 173 212 199 235 206 214 202 236 278 276 274 268 276 267 242 231 250 211 107 190 194 132 201 96
284 275 251 236 231 165 144 145 223 210 207 212 215 212 213 215 225 215 200 194 200 202 219 222 227 223 212 211 221 216 266 265 262 258 262 260 211 234 177 214 147 84 157 188 104
224 245 278 247 244 228 229 222 226 226 159 170 214 216 220 222 226 219 217 211 213 197 201 219 230 231 204 216 227 264 265 253 248 246 253 264 238 208 243 145 83 184 189 116 175
213 219 228 277 249 245 247 236 227 212 221 212 210 213 210 210 203 218 222 219 219 220 214 214 223 217 203 220 227 267 267 258 251 250 249 249 261 221 220 252 229 178 190 108 109
217 221 209 223 226 239 273 262 263 239 229 228 223 220 231 221 220 220 210 211 218 217 224 224 236 203 209 216 228 242 250 241 239 236 241 249 250 123 211 224 248 224 205 183 139
234 219 223 219 210 219 219 215 235 257 275 261 238 232 235 226 227 225 230 220 227 207 221 229 231 210 211 221 231 247 255 237 236 237 247 245 251 254 261 212 243 232 178 182 142
221 218 228 225 219 215 202 229 235 235 234 224 222 234 255 279 262 241 236 247 236 230 242 230 213 208 218 227 237 209 252 238 233 241 242 248 217 257 260 167 214 245 222 147 175
236 245 233 236 215 207 221 212 190 193 209 218 222 244 249 280 270 256 253 248 238 244 232 230 208 217 226 231 238 253 245 235 237 238 242 245 257 265 262 277 216 245 225 201 178
225 224 227 214 226 220 233 191 211 198 212 205 220 252 269 270 261 260 260 252 252 242 229 157 176 232 241 241 254 252 238 232 237 236 241 238 250 253 264 271 287 222 230 208 176
242 231 227 219 216 223 219 216 167 214 213 218 236 269 274 264 258 248 249 252 244 241 230 235 244 249 255 257 241 234 230 234 242 247 271 256 159 152 148 263 289 217 233 207 177
245 244 234 228 231 224 230 200 219 192 232 223 259 287 275 256 247 249 244 243 229 239 259 267 272 72 276 228 370 280 95 269 215 276 280 257 280 261 138 266 306 218 237 212 182
300 271 239 231 230 236 233 232 224 238 247 243 290 266 249 238 240 242 229 244 271 301 394 392 372 362 323 363 335 345 354 351 195 351 342 342 348 334 257 97 326 214 238 199 178
326 329 279 243 241 236 237 232 234 250 241 281 266 243 235 230 222 258 346 434 409 389 386 383 377 369 368 368 362 335 189 342 349 240 353 285 342 296 284 291 305 207 235 204 181
302 322 334 278 259 249 245 240 246 261 270 256 237 230 215 238 210 386 396 398 324 368 364 102 338 202 349 350 359 401 362 396 356 352 300 288 270 264 99 261 242 207 231 199 179
319 302 300 320 284 277 269 266 265 272 254 237 227 212 247 267 351 333 346 349 352 341 316 323 355 346 362 339 101 376 384 277 261 260 254 259 247 250 265 257 233 228 228 184 186
310 296 296 327 321 307 281 279 276 250 236 227 209 239 202 275 248 253 305 310 300 300 288 277 269 268 267 268 260 150 260 257 248 251 224 251 242 98 174 187 216 221 223 186 180
280 273 152 401 282 282 281 282 246 235 224 208 232 228 273 255 256 231 251 243 259 257 254 254 248 254 247 255 248 243 236 249 248 240 241 240 184 156 217 230 172 224 205 184 178
280 283 207 255 289 291 283 244 235 225 216 230 226 215 230 243 209 202 237 249 230 232 237 246 163 242 241 224 251 234 235 243 248 232 249 168 203 256 225 201 230 221 191 179 179
302 297 215 308 302 286 242 235 222 215 223 236 206 243 243 217 220 161 239 243 232 235 237 236 226 235 94 229 219 234 216 237 238 248 249 245 245 178 176 176 227 210 178 177 176
279 292 313 285 291 231 237 223 159 208 234 213 208 244 251 194 169 245 190 201 242 210 218 232 199 212 224 163 235 129 224 234 194 252 265 215 245 176 220 226 181 179 178 168 175

GFSSW_2pvu_pres_003.txt.gz
Presure
224 224 223 226 226 208 175 151 196 210 196 213 211 204 199 199 174 181 170 190 176 195 182 183 180 192 191 209 180 188 191 201 214 209 99 137 108 104 196 217 223 97 208 96 97
264 221 225 216 209 210 205 141 215 210 212 205 200 203 201 204 189 212 191 169 206 209 175 197 190 206 175 202 216 197 204 194 216 210 239 226 118 195 204 116 154 168 159 197 97
269 244 226 216 223 223 211 218 216 215 208 207 208 201 187 205 202 206 204 198 189 172 168 218 187 212 194 197 217 222 204 223 212 230 230 194 119 101 195 191 204 210 89 111 90
254 246 216 230 221 235 234 228 223 214 213 213 209 205 192 186 191 188 177 215 216 228 182 217 214 219 214 219 225 214 213 212 219 246 240 250 205 234 113 193 197 205 112 136 110
247 242 236 265 317 293 271 252 234 224 216 213 208 201 182 194 198 183 196 206 211 212 220 190 231 221 215 210 227 214 199 213 220 224 272 235 245 197 202 83 143 197 196 138 209
240 239 235 313 298 279 262 246 236 228 158 207 213 195 193 199 190 196 207 209 207 195 219 222 228 226 230 236 234 231 202 211 222 219 242 259 234 249 229 183 160 162 99 188 200
240 233 231 303 287 267 251 240 229 169 125 129 214 213 190 198 195 195 205 212 200 202 211 207 228 216 223 232 234 241 227 203 216 218 248 242 246 247 226 246 223 229 124 89 103
247 232 230 293 281 259 252 233 228 226 218 209 210 214 208 206 203 192 196 203 197 214 215 205 218 229 224 223 228 237 223 220 206 223 246 236 298 113 237 231 253 95 194 87 101
245 232 225 218 279 260 251 236 232 228 225 214 209 212 208 212 202 195 205 207 220 213 209 222 228 239 226 235 221 226 240 227 218 213 235 289 280 271 277 242 236 251 94 157 89
246 238 228 218 290 271 251 242 229 221 221 219 207 199 186 203 201 200 202 207 210 220 219 231 235 224 223 228 177 200 238 233 226 220 208 284 283 270 278 278 235 238 264 129 125
246 246 232 227 217 281 255 245 241 203 235 222 212 208 211 216 221 219 215 205 213 220 225 230 236 217 225 223 228 217 231 234 228 219 222 251 280 270 268 279 263 231 241 264 111
261 240 240 228 226 217 265 262 233 229 226 213 213 158 219 222 219 220 235 232 225 213 228 227 227 220 232 222 224 233 216 225 231 211 218 227 243 264 265 267 271 231 227 242 263
277 259 240 237 224 218 215 253 266 251 238 234 228 229 231 231 238 217 228 220 215 218 217 218 228 226 228 223 225 227 236 232 220 218 219 235 264 264 260 257 167 263 228 221 249
243 266 266 243 238 217 217 220 219 231 258 251 255 244 241 240 242 240 234 238 242 244 247 249 227 233 225 228 235 224 227 228 237 222 221 233 250 262 241 255 249 257 253 212 224
252 235 243 271 262 232 227 224 142 220 226 223 219 214 211 216 232 223 231 237 236 238 251 259 277 261 252 238 245 258 245 248 238 220 225 234 251 93 256 240 242 243 255 241 209
246 255 241 244 234 232 253 225 215 219 213 209 194 193 216 214 209 212 223 220 233 261 273 294 284 271 266 259 255 244 241 240 231 227 218 237 257 273 238 243 241 197 252 212 212
264 240 249 234 234 237 222 220 209 220 204 205 210 207 208 209 214 217 224 228 263 293 288 284 280 276 271 266 263 250 250 236 233 233 252 240 182 288 240 197 220 242 179 232 261
282 252 236 236 228 229 232 234 220 222 216 217 191 213 212 208 212 215 222 289 289 289 276 271 183 250 264 271 270 272 265 249 240 246 237 241 266 290 119 82 108 233 244 156 270
413 261 234 239 234 216 212 221 215 210 214 215 212 186 216 219 220 222 276 275 257 252 260 258 259 252 241 242 250 247 242 244 236 249 240 186 209 229 226 161 221 230 241 169 262
369 345 254 246 233 227 219 215 214 213 200 203 209 203 216 237 226 269 259 239 407 421 438 424 412 391 386 378 188 77 381 394 393 395 334 270 284 236 226 229 238 89 198 185 270
372 342 325 268 244 234 226 222 217 216 210 211 216 212 226 275 260 239 300 330 314 316 335 351 373 369 404 362 365 371 82 354 380 384 396 354 373 373 235 234 245 253 250 252 273
323 342 331 280 268 242 232 225 221 212 214 208 198 221 254 253 231 224 305 296 297 297 94 311 324 335 355 357 352 372 363 374 194 362 361 355 336 362 358 251 251 253 254 259 285
332 309 309 315 279 254 245 242 228 218 221 204 229 259 248 227 277 308 258 271 276 274 270 150 275 274 86 338 381 176 121 388 374 336 326 327 318 318 271 311 271 167 268 195 267
317 306 299 318 310 314 306 263 248 235 209 241 256 249 229 270 284 242 168 257 258 254 252 251 252 252 252 250 200 282 211 299 287 290 286 279 206 284 280 180 133 270 247 194 249
327 307 308 294 190 304 339 298 261 253 249 260 248 231 251 263 226 246 160 242 235 241 239 234 228 243 231 245 250 250 260 260 254 257 257 255 257 247 262 262 259 266 276 233 223
294 293 294 296 149 224 306 299 272 260 257 244 226 205 219 219 226 198 176 244 222 241 248 229 242 224 227 247 237 245 256 243 248 246 242 173 245 244 256 253 256 146 276 228 201
302 294 275 289 161 305 297 300 268 258 241 152 226 227 219 241 211 188 200 215 222 224 229 225 236 237 233 215 84 228 241 246 243 241 240 236 235 200 207 186 166 155 204 211 227

GFSSW_2pvu_pres_006.txt.gz
Presure
259 257 240 218 274 232 226 226 224 227 204 133 191 219 213 223 214 202 210 203 163 166 174 198 187 189 202 180 178 170 195 193 194 194 184 210 208 205 198 212 194 89 88 88 100
260 259 291 226 244 254 233 211 231 227 213 212 136 136 212 217 213 212 211 197 211 173 172 173 197 203 171 207 173 181 184 185 185 188 186 195 165 191 198 206 198 190 188 115 95
275 258 321 303 265 262 248 231 217 215 217 210 185 150 177 203 209 210 204 209 212 209 182 178 166 202 192 190 168 193 174 130 182 181 183 189 182 88 120 201 203 199 194 141 108
274 269 300 236 296 281 258 236 214 214 217 221 213 142 174 216 204 215 206 206 205 200 212 169 188 188 201 174 172 200 173 189 213 185 209 225 223 220 188 212 216 190 143 127 195
260 300 287 256 276 274 259 233 213 214 214 213 204 204 200 205 213 203 218 200 201 203 201 204 189 195 177 192 218 223 194 214 224 202 197 225 218 219 220 225 136 88 209 194 143
302 286 275 278 268 262 251 242 221 221 209 212 218 213 200 207 211 212 207 206 195 202 203 201 193 204 184 214 194 221 217 227 220 220 229 227 224 165 213 224 232 83 224 210 186
290 280 249 267 251 251 244 232 218 223 220 215 214 212 213 213 212 213 210 213 203 193 202 201 194 211 191 212 219 219 234 230 225 241 220 237 225 211 209 220 252 239 80 182 243
285 280 265 263 247 244 233 226 241 283 294 246 238 230 224 125 127 212 216 216 196 200 190 199 204 208 203 219 211 226 234 221 229 234 241 238 222 210 220 235 221 254 243 116 79
284 281 260 243 244 237 233 230 303 297 287 268 254 244 234 173 169 187 208 214 207 195 201 204 201 202 205 192 214 226 225 233 218 230 229 241 97 221 195 224 231 252 251 213 254
295 276 268 255 243 247 235 231 294 284 271 261 249 243 235 228 222 215 208 212 208 213 205 208 209 207 209 214 220 222 214 228 242 234 230 229 242 232 221 211 222 277 297 243 211
263 289 272 260 244 241 238 229 239 275 260 252 243 232 229 223 216 213 212 210 211 211 212 214 211 205 213 216 212 223 229 241 236 215 237 218 235 238 231 227 214 286 280 283 241
245 246 284 265 250 240 234 229 235 268 258 251 235 234 227 222 222 219 208 206 209 207 212 217 219 215 211 215 220 222 227 230 242 234 228 209 209 242 239 227 225 203 275 271 275
246 235 242 275 242 242 233 230 226 232 257 244 238 233 233 232 222 219 153 210 210 187 211 227 215 220 226 226 226 239 231 233 236 233 240 227 218 229 234 232 224 214 273 269 268
241 246 231 244 274 245 237 229 229 219 266 258 241 233 235 228 229 231 232 223 162 223 230 230 226 231 240 243 237 222 224 229 221 230 235 241 243 234 224 228 212 208 267 267 120
248 228 244 238 248 266 238 238 232 224 216 269 260 240 237 231 230 230 234 233 231 236 242 249 251 253 260 252 246 250 249 247 246 245 248 243 243 227 228 225 210 220 198 208 261
295 260 243 239 239 251 261 237 233 231 226 207 155 246 251 251 250 244 232 226 223 219 223 230 223 217 223 240 233 242 246 257 258 266 271 249 253 226 249 225 205 224 247 251 245
492 286 266 234 235 242 263 260 232 239 219 210 213 211 211 205 215 206 215 221 212 211 215 221 217 221 232 234 252 272 278 287 296 298 300 273 242 279 245 208 174 225 242 249 247
479 379 280 252 238 236 243 270 270 233 230 215 209 210 211 209 211 216 212 214 220 224 218 222 224 286 316 308 299 315 314 311 301 303 292 273 285 276 246 208 219 228 242 235 214
462 360 354 271 245 229 243 244 235 217 219 235 221 215 211 208 203 207 214 217 218 219 222 282 272 277 407 429 414 285 265 275 297 299 302 206 261 280 226 210 195 221 240 238 233
443 358 346 270 256 238 248 231 236 232 218 216 217 222 220 214 213 215 215 209 215 262 258 312 312 342 392 381 406 390 389 289 273 153 270 74 300 101 268 141 199 137 230 250 234
373 344 346 299 263 241 235 237 234 231 231 226 215 209 207 209 216 213 220 213 273 284 318 326 313 312 327 336 155 185 95 255 352 309 284 214 270 261 216 227 206 211 225 214 83
390 349 345 345 277 251 229 240 223 225 222 222 209 210 211 207 214 194 209 254 206 273 260 299 319 318 317 324 329 335 351 345 278 377 395 408 453 273 239 237 108 224 228 243 228
352 359 341 337 305 262 243 236 221 213 207 209 215 212 210 210 221 208 277 240 251 243 237 250 202 286 302 325 329 335 381 341 381 163 403 263 366 381 376 265 238 229 228 228 224
356 322 324 327 320 290 230 225 224 221 214 211 209 210 210 219 202 306 242 249 176 209 228 237 210 257 264 260 289 342 344 343 337 334 331 333 334 329 339 356 144 279 122 224 223
334 311 310 323 316 316 266 234 228 220 213 215 209 205 209 199 293 228 234 237 224 247 237 253 251 239 241 256 265 267 268 278 304 315 145 312 305 304 314 318 335 315 137 179 119
315 310 303 299 145 251 333 198 230 222 226 212 219 209 201 240 257 236 208 207 249 181 242 236 251 227 238 242 241 256 250 255 264 275 260 266 255 284 289 296 299 329 228 133 241
308 313 310 303 299 197 151 237 247 241 231 226 222 198 221 284 229 244 186 190 247 229 231 236 241 241 245 229 243 240 241 259 260 246 265 259 259 264 253 266 278 273 272 269 251

GFSSW_2pvu_pres_009.txt.gz
Presure
266 255 247 242 252 245 246 268 245 238 235 219 230 215 212 220 203 208 210 220 201 207 181 148 196 210 169 216 212 201 214 214 228 228 138 235 223 176 215 210 209 202 210 128 216
279 253 257 247 245 236 240 262 259 242 228 236 214 227 221 169 207 216 223 206 214 212 203 216 197 226 168 220 176 175 204 198 210 191 171 204 172 189 86 197 198 202 202 174 142
270 243 245 232 249 249 248 272 263 284 248 234 227 216 225 227 213 199 206 212 222 228 219 207 218 203 208 200 172 166 178 197 180 213 179 191 177 179 194 182 78 191 183 197 101
265 264 258 253 250 264 255 252 303 242 217 220 234 228 208 219 223 222 145 207 209 204 210 212 211 204 204 184 193 170 178 177 206 216 217 60 172 182 175 174 180 182 182 185 192
281 270 268 270 262 251 269 250 314 311 260 259 234 224 207 229 217 205 215 157 212 211 216 210 210 213 215 205 214 182 185 192 204 191 202 190 214 122 178 178 191 81 234 206 183
297 286 283 279 260 262 246 291 301 302 240 266 234 235 214 217 207 213 205 208 169 185 214 219 209 198 203 212 203 197 188 208 190 197 210 230 230 210 211 227 223 225 81 87 225
309 341 308 299 292 292 288 293 285 260 282 268 242 230 216 208 207 212 210 206 201 203 214 217 220 203 203 204 208 205 196 184 177 183 218 237 215 217 233 227 219 209 228 230 229
274 300 325 301 295 301 292 275 274 275 281 263 251 229 217 208 207 209 206 216 205 199 202 209 217 217 200 194 208 207 209 203 209 216 226 202 235 204 245 227 225 232 225 219 219
245 272 286 311 298 293 279 268 270 263 266 262 248 229 212 205 215 215 205 207 192 203 201 207 212 217 207 196 195 202 212 211 210 212 226 215 208 241 231 241 245 219 229 228 202
263 236 264 291 299 292 276 266 265 248 243 243 236 226 215 212 206 208 212 125 127 126 206 209 211 209 215 201 204 203 197 206 209 216 208 212 226 225 237 229 233 243 234 225 215
255 256 241 266 308 293 278 265 251 244 231 232 227 221 218 219 219 213 209 209 212 216 215 213 216 215 216 218 197 197 204 208 211 216 220 226 230 216 236 243 233 228 240 233 227
281 252 254 240 246 298 284 257 252 240 232 226 223 212 296 286 238 229 231 228 225 221 221 220 216 215 210 214 211 217 220 214 212 213 220 215 218 228 222 242 226 229 226 235 233
501 288 250 252 244 300 296 259 257 241 245 236 220 287 280 277 268 254 248 239 234 230 227 217 217 210 212 209 212 217 219 220 225 226 228 223 225 225 220 229 228 222 217 223 172
490 502 267 244 250 261 295 263 255 240 244 234 223 282 274 269 264 256 247 240 233 227 223 216 207 212 215 207 215 217 218 220 223 229 228 231 243 230 243 228 232 225 217 206 231
490 498 306 252 249 242 276 264 259 238 239 239 223 273 266 266 249 244 239 235 230 219 217 220 217 149 223 223 225 228 232 239 245 251 252 249 119 253 223 232 217 225 180 190 219
543 479 367 252 238 223 248 280 263 238 236 231 223 274 263 255 241 241 233 233 232 225 222 227 224 226 231 237 240 246 245 252 267 272 289 306 305 203 235 229 230 221 229 225 221
544 471 457 269 246 231 230 283 272 238 233 231 220 228 264 191 239 236 233 232 231 233 229 224 227 233 236 237 238 248 245 242 238 228 219 239 248 98 171 260 253 244 240 223 224
488 472 498 296 254 243 232 250 281 246 223 226 223 215 209 220 257 249 243 228 227 231 219 207 203 214 219 229 227 229 245 259 266 268 273 269 272 248 165 82 239 247 251 223 227
488 489 499 400 266 248 237 242 261 257 232 222 224 221 214 211 207 207 206 204 205 206 210 210 214 220 219 226 250 320 337 413 354 385 400 417 86 263 123 270 263 252 242 237 212
489 471 445 403 275 252 243 225 238 258 241 220 223 225 214 211 211 209 147 210 207 210 217 218 206 226 281 326 326 339 347 348 353 394 380 402 120 160 165 99 289 262 244 243 251
444 461 374 380 292 264 246 220 235 231 257 240 221 226 220 215 213 213 213 213 213 216 212 212 257 334 340 333 344 332 327 326 336 355 349 386 171 418 283 312 299 274 250 240 237
438 384 351 375 299 271 243 226 229 234 233 257 245 234 230 220 217 221 220 209 206 222 210 263 254 242 227 265 251 333 130 222 86 338 160 374 410 96 272 309 300 276 255 231 228
385 388 341 341 329 280 232 234 225 234 234 259 259 211 210 209 214 210 208 209 215 217 220 250 201 229 275 270 274 342 340 343 303 391 184 373 364 368 317 292 304 126 257 117 233
351 356 325 336 336 282 241 236 229 233 221 224 229 231 223 217 211 209 215 213 219 244 208 224 230 255 266 266 256 262 288 307 335 361 394 368 366 396 418 267 290 295 271 251 216
348 334 317 336 342 305 273 236 224 230 230 222 219 219 220 211 214 215 208 207 225 248 232 254 235 245 255 227 246 258 275 268 295 298 305 316 334 356 373 308 262 291 83 107 189
325 313 326 344 298 312 285 239 230 231 223 214 208 209 210 212 209 198 205 258 220 173 246 244 244 234 235 228 240 240 246 275 281 279 288 282 298 305 318 337 357 230 249 259 248
325 322 355 319 315 233 160 215 233 231 221 217 213 212 213 214 208 208 216 252 202 231 228 253 239 223 222 233 228 223 229 236 248 252 260 269 272 280 294 292 309 325 248 233 179

GFSSW_2pvu_pres_012.txt.gz
Presure
280 260 268 260 261 251 253 224 246 238 233 240 225 231 224 215 203 206 204 206 195 189 187 178 176 174 159 180 179 163 166 171 182 74 179 193 124 147 80 241 182 208 211 212 133
309 289 274 286 265 262 254 245 240 246 258 243 236 224 227 216 213 208 209 202 205 206 197 201 166 171 201 169 191 178 176 208 178 186 179 190 234 227 227 230 228 230 203 151 233
311 320 324 307 259 284 259 234 241 239 246 260 245 254 218 226 221 217 213 208 201 202 203 201 202 180 196 188 193 198 220 217 209 226 233 142 207 185 205 229 222 184 197 223 220
305 278 304 305 293 244 253 242 253 241 238 255 241 226 261 234 223 210 215 220 210 206 207 209 214 200 199 215 213 215 176 168 188 218 181 132 185 185 188 149 208 170 178 184 188
329 322 305 281 279 268 262 258 248 239 236 239 220 236 230 253 211 223 210 208 223 212 208 207 200 214 223 208 206 221 212 215 212 208 209 203 184 176 167 149 176 189 177 177 172
277 295 338 292 264 254 268 266 256 244 238 245 252 238 249 268 226 225 226 214 203 216 215 185 208 206 205 216 210 215 213 210 203 212 205 199 203 218 194 200 159 202 183 202 149
281 273 277 293 299 271 248 266 234 257 254 256 248 265 259 266 256 221 227 217 213 209 217 218 219 142 212 217 218 208 203 214 208 213 213 218 198 194 159 207 179 209 213 212 207
257 266 273 277 278 293 315 264 266 270 263 266 267 265 283 311 244 237 218 226 215 207 208 216 201 206 194 209 203 215 208 205 208 214 207 206 186 216 223 225 217 200 215 231 198
255 252 252 261 267 274 288 334 291 268 276 270 241 265 294 293 273 253 227 223 215 204 218 208 211 208 203 198 197 217 222 207 203 207 210 206 207 207 201 216 215 206 190 241 239
274 277 254 249 256 265 270 313 310 304 301 285 289 282 284 286 266 242 234 223 220 203 212 209 209 207 209 206 203 199 209 218 205 206 206 209 211 201 207 205 203 189 203 212 233
492 502 306 253 250 260 267 278 311 294 286 276 276 268 229 269 246 259 238 223 219 205 204 205 207 203 208 208 198 198 204 213 216 200 205 205 198 207 210 214 206 208 206 224 234
576 608 482 310 253 254 269 269 291 278 278 269 260 266 262 269 257 247 236 225 218 208 209 206 204 192 202 209 212 206 206 210 217 221 221 205 210 208 178 209 214 215 217 212 219
522 564 495 440 294 251 266 254 287 279 273 262 258 262 253 257 248 240 236 223 215 207 207 217 173 172 208 209 205 206 213 215 219 222 222 225 203 198 207 204 208 211 213 206 220
487 544 492 508 307 257 250 250 279 280 267 259 259 246 240 239 237 236 231 221 213 209 209 211 211 210 208 208 215 219 221 223 224 94 118 217 230 214 213 219 215 216 213 215 221
482 534 485 472 322 260 246 249 272 281 272 258 254 241 232 231 225 221 218 213 210 217 215 215 216 216 218 223 226 225 226 227 219 229 228 226 234 227 213 209 208 215 218 221 222
449 473 512 467 333 262 243 248 274 287 275 264 247 238 228 218 230 219 209 240 272 272 242 235 233 232 235 238 237 237 235 230 221 227 235 233 244 76 205 215 213 220 230 230 233
438 479 511 484 335 263 251 243 272 293 268 252 246 238 233 227 221 271 274 267 266 264 259 261 255 249 241 238 237 233 231 236 241 244 238 224 264 233 259 248 245 234 232 240 239
432 506 601 477 326 263 250 250 266 287 262 255 236 235 228 220 277 273 264 260 256 259 261 252 237 231 233 233 234 238 242 243 229 238 217 246 214 102 217 233 223 256 256 267 268
456 516 472 376 319 266 250 233 261 284 258 245 235 225 225 225 275 266 256 254 249 243 238 231 224 225 226 223 219 222 223 226 231 264 348 338 328 86 262 121 214 247 179 239 280
431 497 477 360 314 266 250 216 244 278 261 228 230 228 222 217 261 273 260 253 245 239 220 213 211 210 216 221 216 223 271 326 332 270 343 343 370 256 93 144 370 246 243 238 240
431 453 459 344 319 266 248 231 227 277 252 226 227 226 224 215 214 213 211 214 214 211 210 212 212 219 212 226 266 248 299 368 382 355 351 343 350 283 349 187 389 388 264 219 238
486 479 361 369 328 260 233 236 227 270 245 231 223 226 225 222 216 211 215 213 209 212 212 220 213 216 266 229 266 282 299 310 264 363 367 355 391 359 280 366 359 393 354 279 242
466 445 348 364 326 253 237 235 230 248 254 239 230 216 219 221 216 212 211 215 213 221 212 213 231 246 241 240 234 251 265 127 86 265 331 368 351 363 312 371 186 383 351 202 262
457 390 334 353 226 255 236 221 227 231 252 256 235 224 219 224 224 224 219 221 218 210 204 238 232 222 209 240 231 243 240 168 174 292 315 92 342 363 371 401 387 271 308 198 306
426 368 250 359 324 265 241 239 225 216 240 253 247 234 232 217 228 210 211 217 214 207 221 227 215 166 242 217 225 245 249 251 258 269 301 297 311 328 363 419 402 438 223 212 304
347 357 380 352 337 295 240 234 230 224 232 228 237 254 248 251 214 217 215 216 198 225 196 229 210 238 223 229 220 212 227 245 253 255 260 280 291 306 326 385 427 304 279 305 292
354 375 328 335 310 274 201 146 235 231 227 224 233 246 242 233 222 212 219 198 219 241 214 228 240 231 231 230 81 222 224 225 238 250 248 258 267 281 304 327 366 270 317 296 284

GFSSW_2pvu_pres_015.txt.gz
Presure
338 337 301 290 260 255 261 247 253 242 240 236 227 236 227 229 222 206 201 194 180 190 181 179 172 167 166 168 169 168 168 163 139 173 164 166 168 179 164 174 174 172 165 120 175
315 327 339 303 260 257 254 245 247 249 226 243 231 239 231 233 225 218 210 204 194 188 175 181 187 174 177 169 166 158 159 170 175 168 163 149 161 169 165 165 155 171 161 174 178
307 363 321 302 290 269 264 239 264 252 240 236 237 239 209 243 219 224 221 205 205 205 195 182 196 178 184 185 197 191 164 177 173 172 168 164 170 160 166 175 177 153 178 181 179
298 301 326 326 324 280 262 251 260 250 247 223 223 235 246 203 242 219 228 224 204 196 205 207 198 198 198 199 202 193 196 173 177 175 173 177 180 189 179 169 176 213 191 227 210
291 296 296 303 321 307 281 263 252 245 254 247 232 235 232 228 232 232 231 217 227 201 201 205 199 202 201 201 208 207 192 200 201 179 175 196 204 180 212 237 113 237 167 212 179
283 286 287 288 295 346 304 303 313 271 244 266 239 225 235 227 223 242 210 231 224 221 207 200 207 197 198 202 197 206 201 198 199 200 196 201 211 228 224 196 201 194 217 183 175
299 272 268 277 277 291 339 289 287 294 295 248 256 247 235 237 237 240 233 217 232 221 222 214 205 198 204 203 206 200 204 206 215 215 221 221 217 223 222 217 177 212 216 195 210
271 289 266 259 266 274 282 326 285 279 290 259 259 257 238 235 233 242 242 239 214 239 222 216 217 207 210 215 211 208 207 206 207 209 208 215 220 217 217 213 212 213 185 202 218
273 271 262 244 253 255 272 278 318 277 261 276 261 257 243 233 237 230 247 217 248 225 242 223 218 213 203 203 211 215 211 187 214 196 212 218 213 208 214 211 204 210 208 214 208
536 529 300 283 250 250 245 263 278 299 270 256 262 255 253 253 243 237 243 255 228 247 239 221 227 216 214 202 200 209 214 213 214 210 214 212 212 210 212 209 208 208 210 207 216
514 569 580 633 297 256 245 247 264 277 297 276 256 264 258 255 245 239 253 247 272 272 265 244 222 222 215 212 200 206 207 211 199 209 214 203 213 218 204 208 202 206 211 204 207
533 524 528 592 509 299 252 247 260 261 252 274 321 267 261 261 263 261 259 253 267 300 269 247 222 217 218 209 201 205 209 210 210 212 207 185 200 210 207 220 206 205 207 204 208
499 506 501 552 507 491 286 248 240 250 248 267 309 309 278 264 266 274 259 274 286 276 252 260 234 218 217 213 199 210 219 207 213 212 213 213 209 213 206 208 219 209 203 206 208
457 453 488 539 480 476 295 255 239 249 252 264 292 286 286 286 286 282 272 272 273 254 254 256 240 219 217 216 209 207 206 207 209 210 209 209 175 214 206 208 212 218 219 203 208
436 440 476 484 474 484 325 285 240 245 254 272 288 277 273 269 264 260 259 266 261 240 255 240 236 220 217 214 208 206 206 208 212 213 210 209 213 208 201 211 217 218 219 224 213
420 424 460 500 461 409 326 292 249 245 258 284 279 269 262 258 254 253 253 256 256 250 250 249 231 225 216 210 211 208 208 210 214 213 213 208 220 125 175 221 225 229 234 233 232
428 422 451 495 470 356 320 262 251 253 258 285 276 259 255 252 250 246 239 243 242 239 239 234 229 226 213 211 210 209 210 211 214 217 219 226 238 191 224 182 250 139 241 240 236
435 434 517 560 360 348 314 256 251 257 258 285 271 257 250 250 245 236 233 231 229 228 219 228 224 218 218 215 214 215 219 222 228 242 258 210 236 233 87 117 261 166 262 246 232
435 472 551 490 412 349 304 256 253 258 248 280 264 249 251 243 237 230 228 225 221 227 224 206 213 224 227 244 272 274 271 265 249 241 241 239 234 87 231 226 150 257 268 200 160
459 511 465 504 397 319 290 258 239 240 273 278 257 250 243 239 232 237 226 226 222 238 274 266 261 251 247 249 245 234 230 222 220 225 232 278 329 251 123 177 242 107 119 184 334
445 447 483 363 329 310 261 248 237 247 279 267 254 242 246 235 236 225 219 258 262 254 251 248 243 243 236 219 213 212 214 228 269 303 316 340 347 71 353 302 379 386 348 314 300
469 458 377 344 322 266 250 232 238 249 277 260 248 239 230 228 223 258 283 267 250 243 234 233 228 203 212 206 209 243 263 256 249 289 284 294 87 317 360 209 108 327 382 368 386
489 530 360 345 320 261 253 220 236 272 283 250 245 232 219 215 221 218 249 242 232 222 216 215 216 203 207 229 231 248 259 250 256 266 262 282 291 307 323 340 298 84 370 365 386
465 405 355 325 259 265 217 228 217 277 262 250 238 220 219 219 215 214 216 217 218 214 217 217 207 224 230 254 228 233 231 235 243 84 262 264 286 296 307 353 363 364 386 363 386
392 348 325 311 250 256 237 233 226 274 261 244 229 223 218 222 222 218 214 213 219 219 217 200 218 226 252 235 220 226 226 227 240 125 131 184 90 97 306 320 395 394 386 367 368
382 332 322 318 227 243 232 217 232 249 251 244 233 221 220 219 221 219 217 223 225 212 197 216 237 223 241 232 216 225 217 224 229 228 245 252 259 292 314 326 355 396 404 374 370
324 306 344 337 271 244 234 213 234 230 262 248 240 232 224 222 224 223 217 216 211 209 239 232 219 243 184 237 215 218 219 217 220 233 231 246 253 272 336 340 301 346 345 336 317

GFSSW_2pvu_pres_021.txt.gz
Presure
264 343 333 334 335 330 353 344 284 272 251 259 254 273 182 245 210 157 161 173 216 213 195 179 189 186 181 169 171 177 182 175 167 173 167 184 173 179 173 140 180 125 104 178 138
352 350 324 318 333 324 341 342 340 298 265 251 264 252 241 217 200 160 220 198 170 215 208 201 191 184 185 182 175 169 168 179 184 179 178 141 141 167 174 174 106 163 177 177 174
310 308 315 305 312 316 320 337 339 345 271 252 255 248 248 239 213 232 202 191 221 217 220 193 198 193 188 186 181 176 172 169 188 172 175 164 174 178 150 169 173 172 171 170 173
321 312 291 310 311 306 309 310 328 325 295 264 260 253 243 249 229 170 209 186 161 175 225 210 201 190 196 185 181 177 176 180 186 188 186 174 176 174 179 177 98 153 168 172 166
339 343 337 346 183 307 298 304 309 325 324 274 262 248 250 256 242 245 211 214 198 176 210 222 219 214 214 210 191 177 182 186 170 187 180 180 176 174 183 171 169 161 172 161 176
337 317 298 287 293 334 128 297 303 299 331 297 278 261 253 239 228 243 238 231 182 205 231 183 213 214 207 208 213 200 180 188 179 172 195 182 187 172 174 172 171 175 176 180 180
481 470 459 466 555 309 286 304 296 299 295 325 296 264 248 252 239 246 233 245 231 221 197 234 176 213 167 205 193 205 193 190 185 193 174 179 188 71 182 180 163 164 163 168 169
575 559 552 556 456 406 308 300 294 287 295 313 310 294 251 248 236 237 226 235 234 239 220 201 193 207 212 202 207 196 204 194 186 187 190 188 180 187 190 185 183 176 173 177 177
544 513 491 482 468 446 361 291 285 290 288 290 318 313 266 260 243 238 229 228 223 236 241 212 234 167 195 196 210 203 203 204 207 197 188 188 139 187 190 188 187 195 178 178 193
487 468 472 522 444 437 433 324 279 282 282 290 292 309 312 253 250 242 234 235 234 221 242 230 230 241 200 230 173 213 210 203 203 201 203 203 198 199 199 195 204 210 208 203 203
448 444 450 461 506 510 547 425 276 277 272 281 282 301 294 311 266 244 229 233 236 235 237 246 232 236 225 214 217 225 199 212 209 207 208 203 209 205 206 204 204 206 211 210 203
455 431 419 445 479 528 530 512 346 272 277 278 282 278 302 296 284 266 243 233 239 223 226 230 233 226 243 247 209 238 223 234 224 213 213 207 206 204 204 201 202 205 204 197 202
429 430 432 436 464 510 567 498 426 272 278 267 271 261 311 288 292 276 249 237 249 243 232 224 233 232 220 224 234 242 229 228 228 226 213 206 206 205 202 203 204 198 203 206 206
428 429 440 423 413 512 526 475 399 271 262 270 262 264 318 291 286 294 261 261 230 256 233 229 230 232 229 226 227 239 237 233 248 243 240 231 218 209 206 205 204 204 207 211 224
443 428 434 423 431 482 481 451 371 274 266 259 261 271 257 301 273 274 281 284 243 272 243 236 226 233 234 226 226 230 241 237 254 256 262 239 244 223 223 215 215 219 218 219 218
449 448 465 435 437 539 461 406 321 270 264 263 259 258 262 274 297 267 264 270 277 253 253 246 247 242 235 230 234 233 230 236 242 245 258 245 254 230 211 223 183 185 226 217 218
459 468 487 468 517 447 409 368 336 278 260 254 239 241 257 262 289 278 264 258 255 258 258 265 263 263 233 232 230 234 244 250 249 253 275 296 287 255 142 144 157 151 219 170 224
469 511 524 542 388 377 385 345 310 260 257 251 242 244 243 258 262 266 277 268 259 258 251 254 251 242 252 249 248 247 252 260 264 295 269 262 238 95 215 237 76 221 223 225 226
508 540 522 438 374 347 330 324 295 264 250 245 240 247 245 250 251 253 299 297 294 254 262 265 258 258 258 261 265 279 292 274 255 250 246 236 235 235 232 239 237 239 217 150 214
475 311 401 370 349 338 333 324 287 260 248 245 237 238 240 249 273 281 277 276 279 288 296 272 262 274 281 277 269 259 249 233 240 237 236 234 232 224 233 122 96 238 186 248 195
394 370 364 343 348 354 336 340 282 258 245 235 228 232 253 278 274 268 270 268 265 267 269 266 262 259 261 252 248 244 239 233 231 230 228 227 218 223 221 224 230 222 286 319 333
376 382 280 349 349 357 336 334 291 260 251 243 229 246 258 282 269 266 255 250 249 245 242 243 243 249 240 236 232 230 224 219 217 214 218 222 250 248 248 254 311 94 284 281 81
389 375 361 368 348 345 314 291 268 263 245 233 244 273 271 255 247 251 246 240 233 231 229 231 233 226 225 229 223 216 214 219 238 234 239 230 241 246 231 312 271 276 298 256 140
369 386 317 267 288 283 272 260 250 243 243 242 263 270 256 247 244 239 235 233 232 230 229 226 223 219 236 246 237 236 236 230 230 222 231 222 238 230 241 277 271 302 307 244 375
323 303 290 282 279 250 226 225 248 246 258 277 277 255 245 243 240 235 235 236 235 231 225 256 251 247 239 235 231 232 232 225 228 231 231 225 238 237 258 269 289 294 302 371 410
397 293 264 264 235 243 220 237 242 251 283 281 248 246 241 241 239 238 235 227 274 263 260 247 236 231 224 221 224 219 241 229 235 227 223 220 237 230 247 245 284 287 284 316 357
289 377 293 273 255 242 237 239 241 250 279 253 243 240 236 232 232 229 286 266 259 246 235 228 212 210 217 241 234 235 212 226 228 218 208 227 228 218 134 260 273 285 267 224 297

GFSSW_2pvu_pres_024.txt.gz
Presure
285 324 345 328 331 345 338 338 328 333 294 273 256 276 271 263 219 194 201 167 164 208 209 202 180 194 192 173 170 172 169 185 178 178 182 186 154 184 170 152 145 174 134 132 147
325 322 304 322 317 325 341 335 335 339 355 286 267 266 251 273 252 172 212 213 185 173 217 212 201 186 182 183 176 168 160 172 182 181 179 179 175 178 180 175 111 107 94 134 146
355 325 357 365 372 329 315 299 328 321 351 334 272 264 261 256 268 208 170 228 197 153 233 224 228 203 189 191 194 170 157 168 175 164 184 186 188 175 154 120 183 177 74 172 170
348 396 332 133 324 312 277 314 308 319 318 352 285 270 256 256 216 261 212 203 160 194 161 208 219 221 205 199 190 191 169 162 165 181 170 161 179 189 175 122 178 181 174 177 178
392 353 485 500 481 374 313 346 315 317 309 334 339 282 266 254 250 262 219 202 217 163 182 159 220 146 216 217 213 195 198 178 177 178 164 166 165 172 179 183 161 182 178 176 176
357 508 492 531 546 483 433 312 332 306 309 307 326 298 281 260 256 249 256 222 201 229 198 180 215 183 163 222 218 205 204 181 175 185 177 178 172 169 168 176 181 186 174 151 171
525 550 532 536 510 543 442 338 319 311 304 297 321 321 307 257 255 244 246 259 235 201 214 191 215 229 159 170 199 213 205 200 188 191 177 178 182 176 181 178 175 188 189 189 173
515 491 478 474 515 527 534 436 313 314 298 295 296 318 276 257 257 244 244 245 238 209 203 243 196 211 220 222 187 194 208 199 193 201 194 189 176 180 177 176 184 171 185 182 183
460 479 452 451 466 519 472 482 319 301 293 296 295 297 313 263 268 246 233 252 241 244 248 203 232 204 184 206 210 217 212 206 206 202 187 195 140 187 181 177 180 185 175 176 184
441 452 450 453 454 479 533 480 412 302 294 293 291 295 311 303 292 250 240 243 238 231 239 252 215 237 205 177 181 207 172 215 213 209 214 203 200 201 204 199 193 194 180 191 189
434 433 434 441 445 463 520 446 430 300 295 282 294 289 302 306 301 251 238 240 241 239 246 224 238 239 203 197 199 207 203 169 212 211 205 207 204 185 198 199 187 197 196 180 181
435 432 434 434 434 459 495 419 422 298 294 287 284 281 275 304 293 274 248 246 242 233 237 228 222 228 239 215 210 206 196 204 168 206 205 204 201 199 202 199 199 194 195 197 197
446 446 432 431 425 443 522 422 417 299 297 283 276 277 275 296 305 286 261 243 241 251 232 235 230 231 240 238 244 210 214 234 208 200 190 201 200 207 205 206 205 203 203 202 201
463 462 446 448 427 452 510 418 404 298 285 274 263 271 274 296 293 296 281 269 237 237 241 226 230 224 227 234 217 240 237 217 219 239 219 212 196 199 199 198 204 207 207 203 206
463 457 450 448 429 428 554 506 403 292 280 261 266 267 278 280 289 292 292 280 257 240 241 233 236 228 217 233 223 241 247 234 237 242 224 218 239 213 222 208 203 206 210 210 208
475 478 483 474 444 467 502 429 387 281 269 152 243 263 278 263 297 297 271 292 267 247 246 246 234 229 234 236 225 214 232 234 226 233 236 239 245 210 203 223 225 233 229 218 214
511 522 505 474 511 513 417 377 347 288 273 267 271 264 268 260 293 283 281 283 274 264 258 257 243 235 234 234 225 227 227 229 236 225 226 227 236 94 229 224 240 240 257 255 254
554 476 506 469 472 412 372 347 355 281 267 268 261 257 257 252 292 276 275 280 285 293 269 258 252 251 236 236 250 231 233 236 238 237 234 151 231 61 230 111 219 100 110 288 262
409 407 409 405 380 357 348 350 329 267 267 240 262 249 260 257 263 292 275 267 269 274 281 286 260 258 262 234 264 259 262 233 238 239 237 235 230 62 239 101 269 258 168 181 264
375 367 363 371 296 339 353 317 272 260 252 251 239 238 246 256 261 259 285 279 267 264 260 263 266 273 271 253 253 267 261 261 261 253 239 237 237 258 280 269 90 253 250 245 242
386 351 347 346 379 353 321 288 268 257 248 250 249 247 242 250 260 262 250 254 266 268 263 262 260 255 258 252 252 249 249 243 249 248 269 273 254 248 238 238 237 239 241 176 116
359 373 321 345 343 347 287 272 263 252 254 231 231 234 233 250 251 298 292 289 288 286 291 289 254 254 260 260 258 259 267 273 266 260 250 236 232 228 230 247 249 224 249 252 259
320 360 282 361 328 297 280 264 258 251 232 226 227 237 240 275 284 270 267 265 266 268 271 276 287 282 279 276 263 258 249 246 243 237 231 231 224 220 235 238 241 220 89 292 130
306 302 303 257 323 300 259 264 258 239 232 239 235 239 286 268 256 254 252 251 251 251 254 256 254 251 249 243 239 235 235 229 225 224 223 242 235 254 240 250 247 255 284 280 287
326 288 269 265 265 241 290 278 263 256 242 239 239 265 269 254 252 247 242 242 247 244 240 234 234 231 231 229 226 224 218 228 239 237 235 234 238 223 240 243 243 259 278 267 296
313 335 294 263 257 243 241 246 232 252 253 238 266 269 251 249 243 243 242 239 235 233 228 226 226 226 223 218 255 244 236 233 235 220 231 233 236 230 232 222 243 271 259 253 100
292 319 284 291 264 259 250 243 241 254 265 277 281 256 249 247 240 238 235 235 236 229 224 222 230 250 253 245 238 231 226 222 229 215 214 235 227 232 240 237 242 260 253 255 263

GFSSW_2pvu_pres_027.txt.gz
Presure
305 296 318 317 339 209 375 347 323 337 337 340 342 313 292 280 259 246 209 203 191 162 147 217 213 192 192 186 174 183 165 171 177 178 185 182 179 176 179 160 161 159 108 115 157
311 318 257 322 327 297 337 357 343 311 341 324 343 312 298 280 262 254 241 211 207 187 171 177 192 212 199 190 188 177 171 167 163 180 181 195 184 179 160 143 163 126 110 142 169
292 323 322 347 450 450 438 342 281 324 329 287 327 355 309 283 270 253 230 249 209 204 195 179 175 197 219 201 194 187 176 176 164 169 181 189 189 199 183 177 158 151 149 178 190
319 332 341 414 505 514 492 431 347 351 320 334 323 340 309 291 263 265 251 246 236 206 201 197 182 159 187 218 213 187 193 182 176 162 171 181 178 178 190 175 172 88 120 184 178
331 349 434 499 527 515 544 480 455 330 335 311 296 316 354 288 272 264 270 249 232 250 195 202 194 230 163 195 226 207 190 189 186 181 169 175 158 170 170 180 195 180 177 170 168
343 352 435 479 488 512 538 540 452 388 334 309 324 319 351 290 279 260 264 261 230 245 208 202 192 157 194 164 207 218 194 185 185 187 183 175 171 169 166 171 160 179 177 179 82
350 432 460 441 472 471 512 509 492 450 323 322 304 300 321 328 281 261 256 265 248 240 222 241 181 190 147 179 166 157 209 193 191 177 180 186 171 164 165 170 171 165 178 155 165
363 430 451 431 450 460 501 537 551 453 323 328 301 312 318 324 265 270 245 262 260 243 247 216 193 229 221 208 148 208 152 199 199 199 190 187 178 185 182 172 162 159 158 161 158
452 451 441 422 441 449 465 529 549 449 327 320 308 308 303 303 305 267 253 250 247 256 252 226 216 200 189 184 196 148 189 219 199 221 211 203 191 194 193 186 175 172 177 180 180
487 452 438 423 437 441 452 497 549 443 328 311 309 303 291 327 325 269 250 250 246 254 253 250 225 200 199 197 180 184 178 160 197 200 214 211 180 206 209 204 193 176 176 181 179
493 451 439 443 428 437 443 489 552 422 325 301 309 293 280 308 313 297 260 250 248 247 258 251 238 235 196 212 196 225 158 165 214 182 151 188 209 197 205 200 200 197 194 183 183
490 481 450 446 431 434 473 465 445 425 316 297 304 289 286 306 307 314 281 254 249 241 241 256 251 219 206 193 212 202 182 163 199 212 216 208 207 198 192 204 200 194 195 182 182
476 452 451 450 442 436 475 446 423 429 313 293 293 284 286 289 309 300 296 265 246 240 245 244 243 248 238 216 194 212 207 196 199 209 181 187 212 209 207 206 206 204 207 208 206
484 460 420 454 440 442 459 422 425 277 300 290 290 284 278 279 299 296 295 297 252 245 248 237 244 232 229 247 205 200 197 205 184 205 180 173 178 190 182 182 203 210 207 205 205
525 496 449 471 436 474 415 410 431 333 293 283 286 276 276 277 277 300 302 292 292 251 243 236 234 242 245 234 242 213 251 214 236 231 218 208 208 197 193 202 180 201 208 206 206
529 538 516 465 435 433 407 442 404 309 287 283 250 277 274 278 292 291 293 288 255 264 248 240 226 245 245 233 248 231 227 238 210 202 201 204 183 216 194 226 200 199 194 199 197
335 534 516 533 416 398 432 378 345 308 303 277 260 271 271 269 295 293 285 283 284 288 252 244 234 235 233 232 231 235 232 228 228 239 223 231 236 224 130 211 231 231 225 230 226
441 453 425 382 347 356 349 350 358 291 282 264 253 262 262 266 282 292 300 277 274 279 252 249 241 235 243 239 217 229 236 230 229 224 232 213 134 88 216 231 234 219 234 241 244
327 363 382 358 345 337 356 320 295 285 268 262 261 253 265 261 263 291 293 295 273 271 279 277 251 245 244 234 239 240 221 233 227 220 232 232 221 227 233 236 229 226 229 232 233
343 290 368 359 361 365 313 281 261 258 267 252 255 250 256 256 308 294 288 287 276 288 285 267 269 272 267 246 238 237 234 228 224 227 229 221 227 232 238 244 246 245 244 202 168
308 327 292 358 333 308 278 258 262 257 257 262 255 255 265 263 270 291 281 279 276 277 279 280 265 268 261 263 264 255 249 249 242 235 229 232 238 264 251 239 255 258 213 94 267
309 368 277 314 300 279 258 262 262 256 238 233 240 238 241 239 254 262 268 282 269 262 269 269 273 279 275 277 269 249 244 247 249 254 251 244 250 261 248 239 263 261 257 249 245
317 294 278 279 279 279 269 268 250 242 239 241 239 237 240 245 242 250 255 245 249 268 268 254 260 256 257 258 259 260 261 269 269 269 268 245 245 261 255 251 249 245 244 261 204
316 303 281 275 303 290 274 263 248 243 232 232 236 241 246 249 285 275 274 277 280 279 267 258 260 256 255 253 253 256 254 253 254 259 260 255 249 238 239 239 242 244 254 246 244
301 325 284 279 263 257 257 276 258 248 244 241 239 238 243 284 269 260 260 261 266 269 273 275 276 281 275 252 245 255 260 261 255 248 242 234 234 235 230 248 235 252 243 245 278
300 302 320 292 265 263 252 268 248 254 249 239 239 237 280 270 260 254 254 252 255 255 258 255 257 261 262 261 258 254 249 240 235 231 226 223 227 243 222 246 240 226 245 269 272
269 283 290 320 302 274 260 251 249 244 251 251 241 209 277 259 255 254 245 249 252 252 249 245 241 242 240 242 237 235 224 223 224 241 240 239 245 216 240 228 212 242 235 277 255

GFSSW_2pvu_pres_030.txt.gz
Presure
270 272 315 334 322 322 329 324 381 365 342 363 309 345 353 369 338 295 287 218 235 197 215 189 174 171 193 188 190 170 187 172 164 173 174 170 169 160 150 134 165 140 141 145 121
277 295 310 326 328 331 368 88 459 438 367 340 324 327 336 358 339 322 278 270 218 232 212 186 182 189 183 183 187 191 168 179 169 170 179 179 161 162 163 163 155 155 155 153 134
282 308 335 332 350 412 462 483 484 468 423 351 343 305 326 348 355 328 295 235 253 222 199 226 183 216 197 187 187 181 178 168 178 179 181 170 166 160 167 166 159 160 166 165 169
290 321 334 350 472 456 465 474 523 493 145 389 347 320 330 337 335 329 299 281 268 218 225 200 196 195 143 193 173 183 171 177 181 181 193 185 168 161 165 164 169 160 168 169 173
303 341 362 436 466 452 448 494 513 489 456 405 236 330 334 327 313 352 310 292 236 244 215 219 215 203 177 192 189 163 191 177 176 178 181 181 126 141 170 176 181 180 177 183 180
349 347 481 467 447 440 441 463 490 505 467 412 337 339 309 323 304 358 316 295 277 254 257 219 220 201 200 178 168 171 157 195 186 180 177 183 179 167 174 171 165 172 180 182 182
345 503 470 464 423 428 435 451 501 503 464 406 336 347 307 322 304 306 312 298 278 258 247 234 221 231 203 215 172 153 168 217 203 190 187 186 182 178 70 180 169 166 169 176 178
514 513 474 453 417 421 428 435 473 485 473 406 335 333 305 317 305 328 308 294 277 259 235 249 231 221 206 200 211 176 159 168 203 210 197 199 188 186 187 184 182 160 66 167 175
510 493 465 439 418 422 421 437 467 465 461 406 332 311 292 317 302 324 307 288 274 261 262 250 231 219 216 204 207 188 157 203 155 222 216 212 205 202 191 189 192 181 172 162 165
509 485 481 452 432 425 431 443 475 529 430 412 325 319 304 311 300 327 304 284 269 265 259 245 249 231 217 211 208 194 193 167 179 160 152 162 218 216 213 187 190 187 185 181 183
491 466 434 432 453 434 432 461 466 548 422 388 320 307 290 300 293 323 287 270 272 262 257 252 241 228 242 216 213 189 197 182 148 216 183 162 211 209 215 204 189 191 181 179 177
509 481 427 426 452 437 449 482 568 444 403 350 303 303 288 291 299 329 306 267 266 254 253 250 257 240 231 240 222 206 199 200 179 158 149 143 140 210 199 210 202 201 200 199 193
467 501 456 438 465 450 469 534 440 418 372 312 287 302 294 289 285 318 307 269 258 261 258 255 252 255 240 232 224 232 196 215 206 192 208 207 156 150 191 218 187 191 215 213 212
369 524 479 472 456 467 484 435 414 380 328 302 282 292 285 287 272 296 302 278 258 257 260 256 250 258 249 231 237 224 209 204 196 193 198 212 190 205 174 168 217 203 207 204 207
334 508 497 490 501 434 432 406 386 343 312 293 185 288 290 298 275 308 310 284 256 249 263 254 245 255 256 255 232 240 218 191 195 192 199 193 201 200 191 160 212 210 210 217 210
343 412 424 430 427 390 411 388 353 320 308 295 262 243 290 278 276 302 306 301 264 251 260 263 257 250 257 253 251 248 228 227 219 205 189 208 218 210 192 186 190 208 179 191 114
322 385 385 442 413 346 389 357 322 306 290 282 293 284 284 276 271 305 298 308 275 261 260 263 252 252 248 252 251 246 244 227 215 209 187 190 179 137 135 187 206 205 199 207 205
323 404 376 347 365 360 366 312 298 289 282 287 270 277 267 274 276 279 297 301 301 275 266 260 254 247 246 251 238 245 244 247 243 215 210 206 200 198 198 224 201 216 212 201 204
374 300 340 307 309 300 293 300 275 291 263 257 269 261 273 271 273 286 292 296 284 290 295 288 277 251 247 240 244 251 242 237 238 238 245 238 236 238 239 238 236 209 206 220 209
385 304 302 270 287 292 285 272 262 261 265 267 266 262 269 270 277 296 285 279 284 282 282 287 279 276 241 241 241 236 233 234 252 231 227 243 233 236 128 201 231 232 227 238 219
346 323 290 269 291 281 270 284 277 267 266 266 258 262 260 257 291 277 288 281 280 280 277 282 277 263 268 249 240 241 230 228 236 232 223 227 232 233 239 229 229 225 229 240 237
288 316 284 284 300 286 268 263 256 259 256 245 251 254 262 261 269 313 291 284 275 282 262 273 273 273 271 255 250 245 241 242 238 237 235 245 242 237 232 238 232 231 241 238 265
295 325 291 278 286 267 277 263 253 255 252 244 241 239 242 248 256 263 283 282 280 277 279 273 270 267 264 268 254 246 244 240 239 239 239 238 231 237 245 250 256 258 250 259 264
312 319 299 304 280 267 257 269 250 235 238 238 239 239 247 246 249 249 258 263 281 264 272 267 268 267 274 275 272 264 265 262 262 260 257 263 261 249 253 252 252 256 263 256 254
275 288 277 299 289 278 269 255 252 251 245 237 240 241 243 246 290 287 287 290 253 255 272 261 256 260 259 259 258 264 270 270 272 271 273 259 253 249 252 256 257 253 243 233 257
89 285 279 311 313 286 274 268 256 251 251 243 240 240 240 239 281 271 267 268 271 284 283 260 258 265 258 256 259 257 259 257 256 254 246 245 252 252 251 245 240 223 243 257 235
286 293 289 328 308 321 288 272 261 262 250 249 249 249 243 191 268 261 260 260 261 264 271 273 275 278 282 271 258 254 253 246 252 257 249 244 243 238 228 233 243 239 226 232 257

GFSSW_2pvu_pres_033.txt.gz
Presure
242 277 302 310 321 247 300 338 105 303 131 353 343 310 325 329 333 384 352 248 249 220 203 202 185 208 197 183 186 153 177 172 165 156 175 161 147 147 144 143 94 150 147 134 153
218 311 327 328 334 359 362 294 444 456 382 391 363 357 348 331 321 351 392 325 239 239 201 193 218 181 215 190 185 186 178 167 166 167 165 168 165 170 145 139 140 144 135 148 139
259 338 334 334 376 405 477 459 437 437 437 434 413 369 365 324 319 336 360 335 284 235 256 201 196 227 182 217 198 134 164 175 170 174 171 170 156 156 163 161 150 142 138 141 140
342 337 346 395 513 482 465 437 435 438 449 435 411 379 368 328 319 306 340 384 319 260 277 246 201 189 220 200 193 200 180 156 178 176 173 179 172 169 151 156 162 162 149 156 144
317 341 514 524 491 465 430 430 430 435 448 484 481 415 378 332 329 301 337 371 331 290 278 248 236 219 206 194 188 191 190 180 185 179 177 179 177 175 167 166 155 171 170 167 163
348 440 480 503 476 441 436 414 420 427 470 488 509 457 387 335 317 309 315 354 357 309 293 253 212 224 215 192 217 182 196 181 195 190 183 182 176 172 166 183 159 169 171 169 167
381 457 501 479 453 448 415 413 413 430 458 493 483 452 388 330 313 303 305 309 354 312 293 283 231 214 199 234 193 211 181 184 195 187 190 185 183 178 166 67 72 175 171 164 161
538 499 484 457 454 430 408 416 411 443 464 484 494 433 380 329 308 303 301 317 345 314 296 256 261 231 220 199 210 208 189 203 169 193 170 185 183 180 182 174 171 177 181 183 155
526 493 465 436 435 442 422 419 426 448 468 476 456 410 362 320 301 290 294 322 345 312 295 288 235 266 222 203 232 195 204 186 176 193 194 158 175 183 178 182 179 173 172 181 178
389 516 469 446 422 450 443 432 441 480 497 477 424 388 331 307 297 289 300 300 331 304 273 292 285 285 260 217 214 214 201 213 186 175 129 174 187 179 167 183 178 178 179 177 176
390 537 486 460 433 443 440 455 460 504 502 424 396 354 311 307 299 298 288 308 315 292 310 291 281 287 253 226 214 215 186 194 197 223 211 141 195 164 176 197 196 195 195 190 184
527 455 481 462 463 455 465 479 533 488 426 392 362 321 301 308 273 294 286 277 285 306 297 286 277 286 226 255 222 220 214 201 187 195 214 227 165 204 185 165 164 210 210 202 198
453 455 489 475 470 492 533 528 435 409 379 357 293 302 300 297 275 296 279 307 280 284 284 291 281 281 261 239 229 210 222 210 210 205 190 207 221 217 189 189 153 153 174 192 192
349 440 456 543 538 465 437 424 412 376 347 322 299 287 297 281 293 284 261 266 276 268 265 278 284 271 267 248 243 213 211 215 218 209 197 192 188 182 185 207 178 209 196 164 209
322 377 450 478 447 429 408 388 368 335 322 307 157 291 285 273 291 281 269 284 273 255 271 287 281 269 258 259 227 248 220 216 219 227 209 205 206 207 186 148 151 150 151 151 150
316 308 435 433 421 406 382 354 338 317 302 284 291 291 278 295 295 281 275 280 288 262 255 271 287 271 267 256 255 226 243 220 214 209 213 207 194 210 194 202 198 187 187 214 219
331 303 348 327 299 319 326 316 306 315 298 298 293 297 295 287 292 277 299 284 285 268 260 264 269 285 267 264 253 249 242 244 219 213 204 208 208 200 196 200 220 211 186 195 218
334 305 282 324 312 291 301 301 286 290 292 279 290 282 273 285 287 265 324 287 291 278 262 258 268 270 277 262 256 253 251 241 239 234 226 233 220 204 224 198 180 206 183 184 208
273 318 293 278 282 303 299 297 283 280 276 281 277 285 280 277 272 297 309 301 276 287 280 262 264 263 264 271 259 244 251 254 250 237 235 230 228 222 201 212 209 201 204 187 188
279 306 299 283 281 287 297 286 282 280 275 272 282 283 278 283 282 275 289 299 300 270 278 283 262 257 252 257 265 243 243 253 256 247 237 230 231 236 229 216 214 211 210 187 208
91 299 305 291 267 288 285 278 266 265 267 266 264 261 261 260 281 292 290 286 284 293 276 271 278 272 256 253 259 261 264 248 250 245 252 250 240 245 240 224 219 130 121 209 219
271 325 314 297 290 258 266 253 266 257 254 254 259 263 266 269 292 273 281 278 275 288 287 295 270 266 264 268 260 247 246 250 250 251 240 241 248 247 244 240 94 99 247 246 243
270 80 303 305 291 279 269 252 247 242 242 248 248 243 245 251 262 318 289 279 275 274 273 280 280 283 286 281 283 281 262 246 244 243 234 240 239 241 239 251 246 234 228 230 242
287 239 291 300 310 294 272 252 258 251 242 239 237 240 244 245 248 258 281 289 282 273 272 276 271 265 270 271 262 265 251 261 246 241 242 238 234 219 224 229 232 235 230 234 241
287 265 294 291 321 312 292 276 265 261 256 250 244 248 246 243 245 294 283 258 279 275 269 269 277 264 262 264 265 264 260 262 265 257 249 251 233 237 230 235 244 259 255 263 268
281 292 303 302 312 297 303 293 279 267 258 259 253 250 248 247 193 274 285 295 257 278 264 270 265 268 269 274 280 269 256 255 256 258 258 244 240 250 260 246 238 257 258 263 262
285 293 296 293 284 304 307 319 289 276 273 256 255 252 235 253 255 258 271 268 273 286 263 263 264 261 263 264 262 264 263 268 270 273 275 270 263 260 253 251 249 254 252 233 243

GFSSW_2pvu_pres_036.txt.gz
Presure
152 302 327 291 332 332 333 340 342 335 147 338 332 334 331 325 336 303 341 298 247 252 221 196 186 181 200 182 197 188 151 158 159 166 164 152 108 156 140 141 147 141 153 124 131
173 305 288 340 354 367 527 504 453 436 418 240 335 338 335 333 326 329 332 340 302 273 240 215 192 188 186 195 186 180 168 167 167 166 168 166 150 153 147 141 147 151 121 89 133
175 323 332 385 538 544 524 517 486 481 452 440 418 343 331 336 335 323 300 337 358 285 261 233 220 194 191 194 187 186 147 173 167 168 169 175 173 154 145 144 141 139 143 119 108
323 341 332 513 511 495 474 467 463 443 446 433 435 421 388 365 216 305 325 304 332 326 287 238 213 212 187 196 207 192 181 151 135 160 183 173 171 171 160 155 150 143 141 143 140
323 328 482 501 481 463 463 438 445 435 426 429 420 419 399 380 342 324 316 318 334 361 260 265 235 218 205 185 186 183 170 180 168 184 143 181 176 171 167 166 161 162 147 143 142
327 327 390 487 461 464 456 435 423 401 426 417 433 418 403 401 364 352 307 322 320 341 369 284 249 234 216 194 162 204 182 178 186 172 184 61 175 178 175 170 169 155 166 161 158
335 344 355 458 443 442 443 420 421 410 413 424 441 466 440 396 358 340 304 315 323 317 354 325 278 240 231 208 197 210 203 188 98 183 170 186 147 62 165 175 173 165 161 162 156
328 365 500 458 448 424 439 424 404 411 422 427 475 489 518 420 363 341 330 307 320 309 344 348 262 270 235 236 214 198 216 182 201 191 183 178 182 176 178 177 171 175 164 168 171
326 404 493 450 454 434 448 433 428 429 436 443 463 473 481 424 363 329 299 297 302 321 328 353 313 278 276 229 229 196 194 196 189 207 169 182 184 177 155 168 179 175 175 174 175
347 456 458 468 460 456 438 437 439 441 472 459 474 484 453 361 326 309 296 310 295 298 335 333 316 290 262 257 228 222 195 190 185 193 183 201 194 191 154 181 187 179 177 174 171
352 449 504 472 470 460 460 454 454 460 493 472 458 425 367 335 313 297 298 296 286 286 324 333 324 305 291 250 228 225 219 189 194 216 179 205 202 197 192 132 196 189 186 179 173
316 349 542 518 511 516 529 531 519 462 430 420 405 376 337 304 289 282 320 280 295 313 290 328 318 313 302 262 245 221 222 222 188 194 215 187 191 179 199 197 154 167 167 180 189
304 400 469 457 451 443 438 428 417 397 379 378 367 340 319 307 295 287 287 267 304 295 295 320 309 308 300 291 249 261 237 221 225 186 211 189 211 178 187 181 194 194 193 180 173
298 325 357 364 440 415 289 399 384 360 369 368 340 311 306 296 284 292 252 276 289 290 296 318 299 310 307 288 275 253 254 220 214 221 209 183 199 189 193 182 178 141 193 196 197
286 318 312 333 331 352 377 379 368 362 353 339 316 256 295 288 285 266 279 272 278 295 308 307 307 302 300 285 278 256 252 221 214 213 206 187 226 185 182 201 191 185 205 195 169
283 309 292 329 312 310 297 298 339 349 337 313 299 293 294 287 272 261 253 266 284 268 264 278 313 301 304 284 284 300 247 251 221 214 212 216 185 223 191 197 207 205 207 220 220
279 298 299 258 304 300 318 296 297 288 311 292 295 297 290 263 288 262 265 264 272 282 270 268 282 307 309 293 282 275 273 229 240 234 215 212 214 225 223 147 186 186 188 191 190
277 274 290 279 289 298 301 317 300 294 293 313 280 275 292 301 298 269 258 258 258 263 279 283 282 291 306 292 279 275 284 266 231 240 230 218 208 209 212 216 217 212 184 190 191
271 274 296 292 283 283 279 287 293 299 296 297 281 277 272 287 288 290 277 274 276 273 265 294 271 275 301 299 293 284 264 260 244 219 233 231 231 228 209 228 226 226 224 227 217
265 240 299 302 279 265 268 286 280 281 278 278 282 281 278 283 272 267 266 268 282 283 272 270 281 262 280 292 284 264 260 258 254 226 210 229 220 214 209 204 209 216 219 208 209
271 288 276 313 292 272 268 268 267 274 274 270 269 270 273 276 271 271 312 284 290 284 281 277 270 269 265 264 271 268 260 256 252 252 243 235 219 226 216 214 214 210 185 207 209
269 303 304 304 304 289 277 268 251 254 246 254 257 269 272 301 287 301 284 301 286 269 268 286 286 267 262 292 262 262 271 255 256 249 248 251 251 239 232 237 221 219 217 140 214
283 286 276 298 329 297 279 273 261 252 252 248 244 248 253 254 260 295 296 288 289 291 285 275 264 275 278 273 266 263 255 260 263 249 247 246 250 252 252 248 245 241 239 235 207
266 310 276 313 301 317 291 273 276 257 258 254 250 248 244 245 248 270 262 286 280 278 283 284 285 277 270 270 271 265 273 246 250 258 258 244 236 229 251 251 252 250 247 246 236
274 276 280 272 315 309 312 284 275 269 256 259 252 249 248 247 245 246 280 274 286 277 273 276 279 279 280 290 278 256 259 262 261 247 246 251 251 254 248 246 241 238 238 232 241
297 284 283 303 307 320 319 313 295 278 272 265 257 250 248 247 254 250 296 276 269 279 276 268 270 275 274 267 271 274 270 276 281 287 288 246 246 240 238 234 239 240 236 252 229
302 286 293 301 305 303 298 293 300 315 287 276 269 260 253 247 244 255 268 276 283 261 274 269 268 268 273 267 265 262 260 256 256 259 268 272 272 267 245 242 242 243 254 247 246

GFSSW_2pvu_pres_042.txt.gz
Presure
142 244 334 321 360 367 371 345 407 371 376 325 330 340 340 325 313 309 318 303 302 265 290 259 227 168 108 140 183 192 194 177 157 152 166 152 92 145 149 148 149 144 131 133 141
123 205 329 326 368 369 484 481 481 473 504 472 431 327 329 333 324 297 312 297 304 340 374 331 232 210 219 202 163 191 188 184 170 150 152 166 151 155 149 149 146 149 151 147 110
125 205 327 369 372 430 493 482 474 484 487 493 499 491 324 329 332 320 139 291 308 321 306 290 262 237 219 218 197 162 162 184 176 159 182 172 163 160 149 155 146 148 154 147 142
126 120 251 370 507 480 475 460 449 451 452 441 462 449 440 329 321 302 301 307 291 287 331 267 374 245 220 220 202 197 182 205 187 139 163 178 176 163 147 156 148 150 145 142 139
151 155 253 532 498 471 460 439 440 440 426 421 438 443 443 455 322 316 315 280 290 297 301 331 302 274 221 196 192 186 202 185 198 186 176 167 158 178 175 138 159 143 148 130 148
126 125 251 519 485 454 434 438 423 426 435 418 423 405 401 428 389 298 293 133 279 284 289 318 321 341 313 217 174 199 208 193 203 186 166 175 169 131 176 158 145 150 155 146 155
303 206 225 530 491 444 431 443 435 408 417 420 410 407 394 407 447 320 306 292 274 280 280 301 315 325 362 242 216 218 203 206 201 185 184 167 183 173 166 165 173 162 150 150 156
121 321 340 465 524 493 476 456 449 425 414 404 417 396 387 409 451 358 272 279 298 273 274 278 266 311 335 322 213 215 223 205 174 202 61 188 178 182 154 165 159 162 174 162 152
308 314 314 437 447 517 478 463 455 441 411 414 409 410 408 416 442 441 319 302 277 278 272 287 278 319 325 254 268 198 226 218 203 192 200 189 191 184 169 182 171 161 158 167 171
138 231 312 437 419 421 526 470 461 455 429 428 413 415 409 414 430 436 350 274 283 277 283 271 283 289 322 343 267 228 228 214 215 199 191 151 185 180 187 174 169 179 96 162 159
110 200 311 375 420 390 404 428 469 451 458 443 456 465 428 405 415 418 394 321 280 257 296 306 275 286 290 326 249 214 228 231 209 207 199 193 167 191 194 187 180 181 169 181 162
110 200 278 328 437 352 411 439 453 472 462 452 452 491 407 406 407 393 367 333 311 266 287 282 310 282 287 311 338 248 245 200 234 215 202 198 188 170 189 191 194 187 186 175 179
268 303 287 298 371 356 339 381 397 401 404 422 436 425 367 330 355 368 346 325 333 306 292 260 286 296 296 292 338 372 268 222 230 222 210 100 201 189 190 178 173 191 183 188 176
328 195 298 297 393 342 329 313 363 356 355 355 377 329 323 307 308 312 371 303 286 304 322 294 291 287 321 325 299 378 337 323 224 220 218 208 201 202 180 194 174 194 188 190 190
320 195 289 297 280 321 316 334 317 345 356 349 335 348 323 330 309 321 312 330 320 291 295 314 334 302 288 310 348 307 379 323 308 224 222 220 206 201 202 195 182 177 174 193 194
349 308 307 287 279 281 298 309 328 338 350 332 338 314 304 301 304 292 276 276 300 301 283 303 326 326 281 312 320 372 354 358 326 264 237 218 222 207 202 202 166 166 170 167 165
347 319 318 282 274 295 293 317 316 294 300 315 299 295 295 283 273 282 285 272 270 303 321 313 302 292 335 317 344 336 363 348 340 314 242 248 226 219 211 202 202 203 191 189 186
320 287 310 281 291 303 283 316 302 304 298 312 281 296 286 284 285 267 273 273 283 272 291 296 300 308 295 328 328 154 326 341 331 316 279 231 249 233 219 221 198 203 206 200 184
217 336 264 300 288 288 286 282 301 297 293 281 272 297 293 285 294 279 274 275 290 276 269 297 293 302 308 318 303 327 334 341 328 317 302 283 260 245 228 218 224 216 197 206 194
357 335 327 307 292 293 269 286 276 280 292 290 283 276 288 271 276 272 263 266 265 284 284 281 284 284 292 241 322 309 310 330 333 310 301 284 279 260 244 227 219 218 222 215 208
356 344 315 205 303 264 214 290 280 268 280 288 292 289 278 278 281 267 271 282 280 262 268 277 281 279 275 272 283 312 312 308 324 308 283 280 274 273 255 249 239 224 218 217 216
355 347 326 161 316 288 293 296 283 269 262 259 280 282 273 278 281 275 272 283 259 267 263 261 262 282 270 290 282 289 296 301 314 313 288 273 270 263 264 269 251 241 239 233 222
379 346 332 310 301 290 217 190 290 279 265 269 259 256 256 257 264 278 271 266 268 264 264 262 266 267 278 267 280 279 296 293 290 309 302 281 268 264 254 255 257 248 235 243 241
375 349 327 313 312 305 301 258 298 288 276 266 264 263 258 254 252 247 263 278 279 269 272 270 263 269 261 261 261 268 273 279 282 283 294 299 268 258 256 249 243 243 239 231 230
337 353 336 311 317 302 309 179 312 293 285 267 267 264 254 259 252 248 249 246 303 289 292 288 278 274 265 265 267 252 264 266 270 280 288 290 291 280 265 247 250 247 243 241 234
389 362 347 316 317 308 303 304 314 309 303 288 280 271 264 258 258 257 252 256 285 291 291 299 304 273 274 285 285 278 254 262 253 268 271 280 286 271 281 263 270 246 241 243 237
326 353 348 320 318 290 294 297 251 304 293 310 292 279 275 268 263 260 257 254 271 283 273 282 283 293 285 277 283 283 280 277 245 254 255 264 266 268 256 260 253 254 238 236 230

GFSSW_2pvu_pres_045.txt.gz
Presure
395 180 317 139 135 364 407 428 520 484 421 342 344 337 335 332 295 323 310 322 301 309 364 303 220 205 193 194 211 185 203 183 181 164 170 155 135 89 156 150 150 143 141 144 151
366 366 327 321 363 434 517 507 502 504 518 483 458 333 335 346 320 290 313 314 311 312 342 277 188 216 195 191 116 175 198 191 178 187 166 166 159 147 154 156 149 149 144 145 141
384 366 338 324 402 525 482 471 469 466 469 469 477 478 354 341 357 308 317 286 317 303 308 338 303 254 106 198 182 129 203 175 150 197 171 164 165 151 141 155 158 151 143 145 148
224 369 355 126 556 508 486 466 444 454 453 458 469 501 488 363 330 332 303 298 310 299 301 334 345 359 208 198 215 185 122 163 199 191 187 169 175 127 150 138 155 158 144 136 140
205 370 359 132 475 504 461 445 440 445 438 438 453 457 464 467 329 332 308 292 294 306 295 298 339 298 263 195 187 207 202 171 163 201 183 171 177 175 157 148 149 150 151 149 144
373 366 353 127 449 452 479 446 432 427 433 432 430 437 404 408 432 318 315 301 254 309 287 283 323 357 289 251 199 220 206 204 212 188 185 191 189 169 170 145 157 160 150 121 150
229 359 196 131 428 415 450 490 468 462 433 431 419 409 416 410 417 313 315 301 288 286 287 288 287 322 310 255 241 177 221 195 199 168 157 180 181 184 161 170 167 165 153 163 141
202 332 214 133 350 437 383 492 473 461 417 425 412 409 401 385 416 363 309 306 289 280 289 283 283 311 304 284 242 231 185 214 185 206 170 175 172 186 178 163 168 171 165 158 151
222 259 327 136 356 443 452 485 466 466 430 417 435 404 396 397 419 432 315 307 283 275 266 288 306 280 323 319 273 238 236 193 208 176 196 192 201 194 186 171 159 167 169 165 160
358 344 337 332 326 370 432 469 468 445 447 425 422 412 405 402 407 437 299 300 273 268 277 295 283 305 290 332 276 143 230 224 208 191 198 183 100 158 193 175 178 171 172 169 169
272 338 334 327 320 371 369 466 474 476 462 447 443 432 405 410 429 429 329 288 270 279 259 299 267 280 288 306 320 348 238 240 207 218 195 203 66 184 193 188 185 174 169 178 177
307 344 333 323 314 350 366 420 467 482 458 487 493 433 450 403 436 426 333 295 277 271 274 270 301 293 300 289 313 327 330 239 242 235 188 213 205 200 180 161 189 182 165 173 168
183 349 337 321 315 315 374 353 358 365 368 363 358 369 424 367 366 422 335 306 292 274 264 259 266 293 278 289 285 313 331 347 249 240 216 228 197 191 201 180 195 194 186 176 173
381 312 339 324 319 307 307 335 357 350 344 336 327 325 341 365 371 371 345 309 285 277 273 278 270 290 285 301 290 277 331 327 363 228 234 222 235 94 197 200 174 195 197 184 179
296 353 331 330 309 303 305 357 324 356 338 349 336 323 312 334 343 369 382 308 285 278 274 270 285 262 291 288 302 315 279 339 299 387 227 235 207 226 213 197 194 176 187 180 189
264 362 321 319 232 291 298 246 313 298 346 318 318 298 318 338 351 327 340 308 283 209 286 270 289 273 291 299 309 295 317 260 332 386 379 234 238 233 219 216 199 189 189 200 158
144 373 332 316 297 299 296 300 309 311 307 314 301 295 298 310 313 320 320 312 338 270 299 295 282 292 283 276 300 311 354 314 296 327 370 380 244 215 234 229 219 203 197 192 192
289 207 330 330 285 294 294 280 190 330 295 313 315 300 303 293 295 295 303 314 315 311 297 323 320 341 325 332 326 316 279 305 295 389 309 235 376 240 215 220 232 222 209 200 195
216 281 351 332 317 291 292 284 284 294 300 296 302 308 280 291 292 289 283 295 275 311 323 324 313 308 298 315 327 331 337 321 355 388 363 362 286 334 275 234 218 223 227 212 203
159 295 365 340 304 310 265 289 289 237 301 300 294 292 283 294 283 271 283 284 277 275 275 287 291 297 301 251 297 298 324 332 332 348 360 301 359 346 226 276 257 224 221 223 206
281 300 367 343 261 310 300 290 283 231 281 293 291 290 288 280 280 273 266 274 277 286 270 281 288 288 294 227 301 307 311 308 319 332 341 341 342 336 315 257 272 261 246 221 219
268 269 393 329 334 232 301 141 292 290 284 267 264 293 283 285 289 276 275 264 261 284 279 263 266 273 273 273 278 286 303 301 300 308 323 332 334 318 301 304 285 264 255 254 247
174 387 169 158 218 322 161 290 294 283 273 278 263 267 270 268 266 280 278 272 272 258 266 266 272 267 276 279 280 267 279 301 299 305 298 318 320 314 301 284 289 282 265 233 223
178 178 374 363 166 320 232 300 314 301 286 275 269 263 268 257 261 257 259 273 278 274 267 268 269 261 265 261 270 276 278 298 289 284 298 300 311 307 293 288 282 272 273 262 253
252 150 154 393 138 159 277 308 313 310 300 285 262 274 260 260 260 264 259 258 255 282 278 276 271 269 268 264 258 273 276 275 277 280 274 295 304 299 289 280 272 276 266 260 253
155 280 343 194 129 126 309 309 268 309 309 299 280 281 272 266 262 257 257 260 256 261 286 292 278 275 282 288 269 262 262 269 268 276 270 290 287 296 300 272 267 262 263 267 268
248 214 291 143 117 108 134 316 304 255 288 303 290 288 280 271 267 264 259 255 256 252 284 288 282 288 302 304 281 269 274 258 267 268 267 273 284 286 286 290 273 264 257 253 257

GFSSW_2pvu_pres_048.txt.gz
Presure
135 379 143 381 363 361 185 435 519 523 513 429 382 356 346 357 306 310 296 286 302 310 264 350 306 319 219 140 194 192 156 163 193 174 189 171 154 169 146 145 158 139 152 136 86
200 310 220 291 362 360 118 513 483 476 475 495 483 390 339 338 355 300 292 290 302 303 300 292 328 324 228 191 196 184 216 183 193 187 155 138 144 175 153 162 148 152 109 147 147
107 394 110 170 374 342 123 508 471 474 464 468 475 502 384 331 335 294 297 293 291 299 314 276 331 310 243 96 104 140 156 171 157 190 190 187 172 173 165 118 156 143 150 139 142
123 283 325 337 369 372 449 519 472 453 450 456 460 471 486 366 329 320 319 292 308 297 301 272 323 300 297 219 196 188 104 203 163 144 198 198 173 142 151 171 156 143 155 153 147
244 122 316 370 365 348 401 515 478 445 437 448 449 459 473 489 342 325 328 311 310 292 298 278 295 342 310 323 209 185 171 183 203 146 164 199 197 178 171 155 164 152 157 148 150
233 341 380 367 352 248 390 499 495 463 442 438 436 443 466 495 468 332 319 315 300 291 290 303 288 308 332 307 227 205 190 180 167 118 201 186 156 178 175 167 170 147 162 153 103
109 294 370 359 354 347 460 493 477 470 462 441 438 428 456 429 426 461 315 312 299 290 280 297 286 277 342 297 269 211 194 196 197 186 197 207 157 146 175 161 176 127 131 132 147
240 297 329 354 344 339 395 496 472 482 437 430 437 407 406 391 397 423 311 312 305 273 289 274 299 273 307 348 309 240 207 165 196 200 172 116 125 197 159 178 172 167 163 155 160
292 193 336 352 341 344 250 461 491 468 436 424 421 389 394 388 384 437 429 305 297 268 285 276 295 297 295 333 301 345 207 212 196 182 190 199 209 196 203 159 176 167 168 168 157
153 205 369 349 337 335 321 367 374 483 452 437 430 400 384 404 388 394 459 303 298 287 275 279 287 306 304 324 315 298 223 189 206 194 205 179 216 187 164 201 171 172 167 168 167
215 170 318 349 338 334 316 373 357 359 470 454 442 395 386 385 439 409 435 299 301 283 276 285 277 301 295 283 323 294 244 210 202 221 192 188 183 222 211 159 166 198 168 107 170
154 171 135 351 337 332 322 351 368 353 362 461 457 414 420 393 423 408 406 295 303 282 279 280 279 297 296 286 298 334 291 252 221 207 233 186 145 188 196 181 150 194 187 171 176
205 181 176 355 335 330 316 327 370 356 348 352 382 450 428 423 408 391 385 285 296 276 275 269 282 277 290 292 284 327 278 267 227 229 210 216 187 140 121 70 145 168 193 190 178
265 187 229 352 338 326 307 309 296 357 365 348 351 375 398 471 368 367 305 286 290 272 272 287 272 276 282 288 299 267 319 283 243 229 234 241 215 170 211 201 176 207 159 180 189
190 168 177 363 337 324 323 308 315 317 353 354 339 355 367 462 352 338 298 283 280 274 269 273 299 313 258 284 285 300 313 311 314 239 239 245 252 243 198 194 204 179 199 193 172
119 154 275 355 342 323 311 308 335 315 323 322 353 355 362 416 356 351 291 289 285 275 281 268 272 283 270 306 295 294 296 272 325 296 246 251 251 247 250 235 190 206 196 202 193
188 168 148 372 340 280 323 295 305 306 298 301 323 327 336 350 387 328 291 277 285 282 281 278 275 280 295 282 304 315 304 304 311 323 267 347 257 224 234 242 246 237 214 200 193
133 263 119 248 354 334 263 297 297 291 314 319 290 311 330 324 357 317 304 288 284 281 280 274 272 278 278 274 267 266 306 300 300 314 320 320 354 362 136 230 236 242 239 242 205
167 247 135 230 194 192 189 304 296 302 307 302 296 311 300 322 325 373 318 299 288 270 282 285 288 290 288 288 298 295 275 277 293 325 304 316 331 328 379 273 234 234 238 239 236
150 194 194 251 323 243 276 318 243 293 284 302 293 298 292 286 288 306 379 320 313 294 285 280 269 281 297 311 308 328 317 316 325 275 329 291 330 349 303 347 273 260 243 237 234
138 161 169 172 278 128 142 324 305 296 291 302 300 292 289 285 268 288 280 300 292 310 318 292 296 285 293 303 310 329 324 314 318 330 340 345 380 296 372 340 355 317 272 257 248
170 104 164 323 139 161 125 133 298 295 280 274 268 301 290 298 285 279 268 270 284 279 284 272 258 292 290 295 301 298 301 307 310 312 325 336 286 367 342 308 345 338 327 317 259
143 136 175 170 131 121 165 291 303 308 287 280 269 265 286 279 282 287 282 272 269 274 283 284 281 280 274 271 275 275 277 298 313 308 303 316 329 337 350 322 328 325 321 314 306
139 124 146 189 222 128 118 125 323 300 297 286 276 272 266 267 270 258 284 281 277 266 264 271 273 275 280 273 276 276 283 283 295 309 302 296 311 325 325 336 314 316 310 311 306
110 153 193 175 429 153 324 121 207 313 315 297 281 276 267 268 264 260 264 253 264 280 276 267 271 259 260 265 269 270 272 273 287 288 298 296 305 307 315 313 325 298 298 296 292
117 128 164 136 136 287 304 116 289 229 316 309 294 280 275 265 264 262 258 257 257 254 257 283 278 275 267 255 259 260 259 270 281 282 283 277 287 290 299 297 301 317 293 294 292
203 152 123 263 130 314 221 122 180 291 310 311 305 292 279 269 267 258 256 260 257 254 254 250 269 287 285 280 276 273 262 261 267 275 271 274 283 279 288 281 294 295 309 294 279

GFSSW_2pvu_pres_051.txt.gz
Presure
172 120 217 143 268 394 144 357 455 533 496 489 504 418 372 352 317 317 306 301 286 282 260 245 248 246 222 343 234 225 149 190 208 171 166 139 173 172 169 172 159 138 164 86 114
163 113 226 117 332 317 340 408 516 482 460 458 468 480 419 360 343 316 302 295 296 288 279 256 251 257 248 364 266 196 209 188 188 204 171 62 141 180 171 170 161 146 157 149 71
114 161 154 127 389 380 375 401 521 481 453 461 466 463 490 395 350 326 294 296 292 288 286 278 279 274 256 226 308 227 182 219 190 186 193 175 170 140 170 156 171 163 160 153 146
224 116 170 306 381 377 371 396 520 492 472 453 454 463 471 472 371 326 331 283 294 293 289 316 286 281 270 235 355 240 216 180 188 175 185 144 208 198 180 172 167 123 152 149 144
113 160 141 131 375 374 371 360 508 508 464 449 447 450 471 477 420 346 322 336 287 290 285 294 300 280 279 247 274 271 221 217 181 185 190 186 152 198 151 175 173 173 156 152 148
217 152 164 159 304 371 362 355 445 502 485 454 450 430 453 467 481 370 328 320 299 282 279 289 287 284 293 252 269 352 231 203 174 186 180 202 164 210 193 185 169 175 134 160 156
131 168 175 221 355 357 356 345 422 511 478 461 447 426 445 466 483 506 336 312 321 281 284 290 276 282 310 264 280 367 323 219 141 196 179 196 208 134 192 193 173 170 174 165 162
158 227 203 294 192 362 353 341 345 503 465 437 451 437 417 428 492 501 361 311 318 310 271 278 273 284 303 275 308 289 331 208 226 207 188 150 209 203 132 197 192 149 173 168 170
119 158 191 241 327 363 352 339 334 393 465 452 424 401 394 411 413 436 427 314 310 306 269 263 281 288 302 311 269 323 367 293 225 207 188 192 166 200 208 177 146 190 165 172 175
160 226 126 178 309 354 348 337 395 382 461 452 413 400 390 377 391 413 451 311 314 301 290 289 288 284 295 315 273 321 298 370 217 205 201 145 187 167 141 182 209 149 191 173 172
131 116 210 253 346 279 346 332 354 379 372 459 412 404 386 383 394 404 467 322 307 300 283 300 285 295 291 304 269 314 265 346 251 215 204 208 201 192 206 195 169 159 204 180 170
135 159 128 186 311 197 328 331 329 365 374 382 430 406 401 389 378 427 456 328 294 286 281 289 277 287 290 299 304 262 312 286 365 217 215 205 191 191 178 197 198 199 185 205 177
99 161 129 121 339 171 165 327 318 333 384 378 414 435 382 419 397 425 412 330 292 286 281 276 291 283 291 282 301 258 283 326 393 283 217 211 207 197 188 177 199 194 192 164 201
161 195 134 182 216 267 245 326 320 326 348 369 392 448 422 403 427 421 393 310 286 277 273 273 278 284 275 290 290 302 281 325 305 397 236 220 212 209 201 200 171 201 187 201 170
193 145 172 130 286 354 161 327 313 327 311 363 394 417 391 411 349 356 372 303 285 277 276 271 283 281 263 280 274 299 258 285 332 277 312 240 236 221 209 81 185 68 72 82 150
150 158 123 150 175 144 166 329 311 306 318 339 418 361 353 355 353 348 345 300 285 276 275 279 280 286 279 279 281 290 296 279 321 307 263 266 241 234 228 213 207 202 160 200 179
142 144 128 241 198 209 134 133 311 302 305 328 353 343 353 335 336 337 336 294 281 285 277 278 278 288 297 275 283 273 304 299 290 320 284 285 245 225 236 229 214 216 218 196 199
128 136 235 160 129 150 179 331 318 245 296 306 331 335 327 342 330 324 292 279 273 278 276 268 253 263 283 312 280 279 294 298 295 265 304 326 322 219 232 235 236 228 208 205 182
156 182 126 157 157 127 133 127 323 304 295 301 298 313 330 316 331 327 303 282 280 276 262 288 274 291 279 305 302 305 308 296 303 308 259 323 221 337 233 236 242 240 245 241 238
149 165 152 255 124 244 170 127 129 314 296 298 302 295 286 338 320 335 294 291 278 291 277 268 274 279 285 305 286 302 280 272 285 305 313 269 332 327 205 286 242 241 242 245 244
124 151 126 153 192 136 126 274 122 184 215 289 283 298 286 287 336 321 293 294 301 281 283 284 271 284 286 286 281 277 282 283 277 277 280 283 300 249 323 276 345 256 245 244 248
173 125 196 142 142 175 179 190 121 203 268 299 273 287 293 279 277 308 303 294 300 283 272 277 276 270 282 267 266 289 291 345 316 337 316 318 341 336 291 308 320 348 274 258 251
166 177 197 152 156 246 156 171 121 203 251 263 289 261 268 289 280 273 310 305 306 288 290 274 273 281 283 278 282 292 301 303 306 316 321 324 324 323 342 347 295 312 353 330 268
135 158 237 150 241 147 179 205 167 107 306 159 295 287 274 263 272 287 272 270 272 267 303 300 295 281 277 276 273 288 287 288 295 298 304 316 309 321 335 346 365 294 308 322 321
147 216 116 141 168 157 151 247 117 239 315 303 155 283 282 270 260 257 269 284 278 271 266 277 278 275 277 272 278 270 269 273 282 279 286 299 301 303 311 334 343 355 294 341 307
138 156 169 117 147 118 182 400 132 217 324 198 304 289 285 276 267 259 259 256 251 250 273 276 272 270 270 277 276 281 277 277 277 280 281 302 293 287 314 299 314 330 342 329 318
151 161 189 174 181 185 192 130 323 135 127 141 193 244 293 285 276 265 259 256 248 251 253 251 252 257 284 278 263 255 265 265 270 271 272 287 287 284 291 300 300 317 315 328 320

GFSSW_2pvu_pres_054.txt.gz
Presure
121 129 124 130 165 137 410 377 327 361 537 500 477 467 381 380 175 316 327 320 312 290 277 254 257 229 184 198 96 166 180 213 197 222 128 209 161 157 181 172 121 82 77 82 74
121 138 174 144 100 126 399 373 370 418 523 476 462 459 455 488 394 354 309 314 303 306 286 265 261 258 214 200 189 207 190 174 207 193 191 152 205 185 190 156 175 161 163 139 126
164 148 163 114 237 351 382 372 359 443 537 487 456 450 455 456 398 345 344 305 311 305 298 277 259 251 247 206 204 216 141 199 159 203 190 208 211 165 161 187 179 170 161 166 151
119 142 118 129 178 363 354 372 358 420 528 498 464 458 471 451 469 398 337 321 297 301 302 285 272 255 238 209 209 204 212 159 220 232 201 192 219 172 195 178 156 183 167 163 161
195 152 127 111 157 132 386 371 355 387 525 489 463 454 461 466 469 450 351 331 310 304 298 294 281 263 247 227 206 206 198 217 172 237 215 200 194 183 164 141 193 165 167 166 167
114 122 137 104 132 179 377 366 346 354 488 497 465 457 448 453 469 479 368 325 322 295 292 294 288 280 254 238 218 207 202 228 202 245 225 209 193 211 195 185 187 189 161 173 140
113 126 198 219 165 326 375 362 352 352 481 465 458 447 449 451 471 475 403 340 316 324 283 291 286 282 284 245 236 212 212 215 199 210 255 191 207 222 172 205 169 164 187 145 168
120 193 159 191 239 270 257 189 351 348 465 464 445 437 429 443 473 473 456 341 317 309 333 290 282 282 282 277 246 236 222 217 220 206 213 186 147 205 191 169 158 192 189 162 164
169 153 148 153 194 230 350 253 153 343 397 450 420 404 403 427 463 487 470 357 317 306 309 284 275 280 278 274 268 253 238 230 234 211 245 255 210 208 201 184 167 147 149 195 183
155 179 175 200 214 284 143 222 349 337 385 408 419 394 395 390 424 466 481 372 321 302 295 302 268 277 282 277 274 258 255 247 239 209 214 230 227 104 216 213 184 185 141 146 194
124 141 179 157 171 287 166 156 347 338 342 402 433 396 397 376 401 435 461 382 323 302 287 304 323 262 288 272 273 317 263 260 254 227 208 248 244 216 224 208 197 192 170 141 132
117 130 164 193 162 194 189 329 344 338 335 399 432 391 390 388 382 427 433 367 322 301 289 292 335 280 272 308 275 302 287 268 260 243 219 245 244 232 214 212 157 173 186 180 192
125 172 174 217 163 146 148 360 342 340 331 416 442 410 409 383 409 423 447 368 321 296 290 288 304 306 268 282 310 268 280 294 258 252 228 219 248 247 220 210 220 189 182 184 200
190 140 214 147 165 128 137 176 233 336 325 428 415 431 415 393 419 438 409 356 314 289 280 291 302 299 298 294 282 270 278 281 279 257 248 317 263 245 235 215 215 218 197 178 146
141 151 179 135 153 139 130 135 142 239 235 362 432 415 409 414 450 418 470 343 311 277 284 291 285 286 303 303 260 287 277 301 309 261 249 350 339 238 247 226 210 214 205 197 204
147 173 162 169 165 148 129 140 229 322 205 345 395 376 425 399 365 356 367 322 293 280 275 277 282 297 306 281 293 279 285 303 298 296 247 260 291 242 240 239 215 220 211 210 205
139 179 131 146 200 145 178 126 133 208 317 250 330 348 336 341 331 349 369 314 287 284 275 273 274 274 285 299 298 285 291 283 308 305 254 312 282 412 239 238 233 217 218 161 218
129 107 130 178 156 166 129 120 124 310 311 309 296 342 345 343 362 355 353 305 276 281 277 264 267 278 287 290 284 285 275 298 289 298 304 246 344 278 374 242 241 233 221 223 223
123 116 163 158 154 156 199 173 123 213 307 294 169 220 339 351 337 338 344 300 286 281 279 273 277 283 283 277 285 297 291 305 291 298 311 277 251 344 294 334 240 240 236 225 222
153 139 105 170 155 246 173 166 144 125 133 300 181 278 344 339 341 307 312 314 295 253 277 268 262 285 274 281 271 284 310 283 283 292 286 314 295 251 333 281 347 241 239 242 240
131 153 165 117 203 161 260 160 139 148 267 305 293 259 298 336 343 321 266 294 284 263 292 274 283 263 285 298 298 305 283 287 305 304 318 320 311 290 257 320 276 340 240 240 250
111 137 162 150 170 162 141 216 297 250 173 302 202 279 299 298 341 326 320 275 287 277 291 274 271 285 254 261 286 253 246 269 271 265 254 274 274 279 287 258 315 275 318 276 169
150 141 132 148 122 174 159 198 162 138 129 147 153 249 200 274 294 334 312 294 282 289 274 278 265 281 285 272 264 255 267 278 267 279 294 317 351 329 290 294 303 298 315 277 280
153 134 153 175 160 195 243 221 166 134 207 137 150 204 176 269 270 287 307 311 295 274 281 273 280 269 264 262 265 278 280 288 297 304 305 316 309 310 324 344 353 319 277 282 285
150 141 186 139 147 187 174 125 121 267 120 140 316 299 285 274 267 256 276 291 317 312 290 290 286 284 285 281 267 277 297 283 278 284 289 284 304 300 310 317 314 321 338 359 378
104 128 154 138 161 179 175 164 137 397 370 148 205 310 298 288 280 265 257 261 279 278 276 271 301 300 285 302 282 281 276 271 274 276 275 292 278 294 306 301 307 307 326 332 351
136 140 162 132 189 175 173 172 165 125 193 111 153 311 306 255 284 274 264 258 255 258 272 271 270 270 264 263 259 261 270 272 271 267 269 279 278 285 293 297 302 303 304 317 332

GFSSW_2pvu_pres_057.txt.gz
Presure
121 124 118 137 125 126 100 397 209 382 381 280 559 528 490 478 327 318 352 316 330 336 296 232 227 216 203 250 219 195 176 97 210 185 183 192 192 167 186 166 188 108 118 84 112
113 118 121 122 153 188 153 144 392 380 373 564 535 480 470 455 474 394 357 339 317 330 320 279 237 225 213 275 219 197 190 187 151 202 189 202 155 185 178 176 191 161 149 128 158
121 128 136 114 122 112 246 289 365 380 371 557 534 475 464 461 446 418 354 347 318 317 328 307 276 249 238 227 198 203 187 175 183 164 198 176 184 222 152 176 185 186 171 167 160
102 118 123 161 123 146 254 191 390 376 172 541 512 491 458 444 442 458 377 332 326 298 323 315 298 281 250 226 268 218 179 179 188 179 168 175 183 196 137 149 126 151 185 167 169
115 130 130 101 128 165 167 134 149 376 363 394 517 474 477 453 448 454 436 371 316 326 299 321 307 282 264 244 228 221 202 184 172 196 142 155 183 225 198 210 183 205 168 182 171
138 141 143 175 117 209 234 347 388 376 360 151 489 481 468 467 470 468 479 369 320 327 290 309 317 297 272 250 240 251 216 190 187 196 186 190 167 237 194 196 147 209 193 164 159
104 107 126 147 229 176 196 165 210 373 352 415 449 452 450 460 462 477 469 364 316 319 325 284 307 307 280 258 246 237 248 212 193 189 203 178 171 178 211 194 192 174 206 200 184
114 133 107 127 142 171 190 254 380 369 352 414 439 410 408 443 463 475 476 370 350 314 322 325 285 293 291 275 251 244 241 241 206 193 192 201 152 199 219 207 189 192 203 178 161
142 99 154 160 170 183 185 139 305 368 352 416 428 411 412 432 467 481 458 441 350 313 306 322 265 290 289 284 260 248 243 242 211 144 192 199 195 142 218 197 205 194 184 179 204
104 141 135 135 183 161 219 131 155 295 218 331 425 411 401 416 441 490 459 445 343 323 301 297 297 316 287 294 275 251 247 237 241 202 198 192 174 207 167 200 213 221 191 191 207
137 194 109 141 159 187 169 110 123 365 351 339 435 408 397 404 427 486 460 407 348 324 300 290 302 278 291 286 279 259 241 238 229 216 200 195 198 196 211 194 201 223 218 188 197
121 93 134 212 158 158 169 128 117 364 346 403 432 413 402 397 407 440 454 392 348 317 302 293 293 317 265 281 276 267 251 240 240 227 216 201 202 204 201 216 202 165 219 216 200
126 113 134 161 161 161 207 203 115 245 346 334 428 424 415 398 395 411 428 374 335 309 306 293 284 317 313 272 278 275 263 250 239 238 220 209 205 206 208 181 161 193 254 221 195
128 161 125 149 175 180 142 191 116 126 313 345 186 423 415 397 413 423 394 374 330 306 301 296 288 289 331 294 271 270 272 268 261 244 245 222 206 205 207 206 215 206 148 216 211
137 130 125 117 183 155 183 216 108 105 182 349 210 396 450 443 446 434 384 384 324 302 296 292 288 287 348 306 285 301 274 273 272 262 244 247 228 206 211 208 219 213 205 254 230
124 147 151 111 162 142 165 161 161 233 116 331 349 377 375 373 420 462 391 352 319 299 284 285 294 323 314 307 303 263 267 280 271 268 267 255 242 238 222 217 225 247 211 250 252
126 125 153 107 123 150 173 178 181 303 249 318 327 367 348 359 365 384 355 328 302 290 289 292 287 286 272 309 302 291 256 275 282 268 286 302 273 254 259 250 230 246 237 210 245
161 153 121 135 196 159 159 140 156 256 337 184 209 350 366 361 361 350 331 315 297 298 287 296 294 287 309 307 291 288 281 259 283 266 274 260 277 275 258 253 244 306 240 236 202
136 164 172 108 119 168 164 123 190 168 179 124 137 306 353 380 341 375 322 305 277 283 295 286 277 298 297 282 289 291 292 279 264 287 286 266 298 300 286 287 238 243 222 246 246
134 169 144 169 160 154 133 185 182 177 306 126 172 310 348 375 348 339 315 292 278 277 275 271 287 283 276 279 287 284 288 281 301 297 278 294 280 297 303 323 276 235 240 302 244
142 137 137 149 159 118 176 185 173 164 179 139 179 226 295 353 345 327 301 284 290 276 257 259 279 257 288 278 278 279 289 285 284 263 277 280 282 277 298 307 303 272 228 252 330
145 166 154 115 146 166 174 157 118 131 145 178 190 190 296 296 333 350 312 302 289 286 287 286 281 280 276 273 293 284 281 274 279 305 271 282 313 289 259 284 304 287 247 230 252
155 142 134 140 181 169 157 180 167 193 287 126 130 145 298 299 318 314 329 312 294 294 259 254 265 243 232 254 270 260 258 253 258 270 275 250 251 264 275 279 299 318 286 116 328
158 144 158 157 146 161 149 153 195 172 195 123 176 142 301 288 166 325 318 314 296 273 294 278 274 274 267 286 272 276 263 255 260 257 263 276 261 283 265 284 293 299 304 306 266
157 103 153 167 171 139 176 164 232 184 399 135 117 140 136 293 283 271 281 320 295 306 267 275 276 275 267 272 270 264 256 260 271 272 271 273 301 298 316 323 322 327 339 308 295
160 139 156 171 149 127 147 180 172 155 433 205 140 101 280 301 285 143 272 269 301 322 304 295 289 291 289 292 289 283 280 280 289 273 296 284 277 291 293 298 302 307 319 322 323
124 143 157 126 164 168 146 200 225 128 200 203 259 134 117 298 291 273 263 269 265 264 274 283 304 269 292 317 306 280 291 291 288 282 277 272 272 282 277 285 294 284 298 306 308

GFSSW_2pvu_pres_060.txt.gz
Presure
139 133 138 130 138 134 128 129 218 196 283 167 364 531 550 273 329 434 356 377 369 312 353 342 324 245 230 199 210 212 219 120 211 202 210 208 186 177 174 203 165 172 151 75 76
177 138 118 109 126 124 122 132 162 173 296 383 365 560 510 477 469 468 437 360 376 340 351 391 328 297 220 214 210 201 221 197 185 207 171 204 191 186 174 179 151 158 158 107 160
155 124 150 126 141 124 124 178 209 161 364 381 215 537 511 465 449 458 471 380 367 362 317 345 322 316 240 275 212 214 186 140 231 247 217 129 216 193 194 154 166 191 173 155 157
127 122 124 109 108 142 165 159 192 227 393 380 235 526 505 459 446 450 447 389 337 353 319 312 342 313 298 244 236 190 81 217 198 233 190 99 148 203 191 202 194 186 164 158 165
134 130 132 127 145 131 177 173 209 216 292 375 383 454 499 492 450 439 452 433 227 344 324 301 333 313 297 256 258 200 189 204 220 167 131 107 195 162 183 182 191 168 196 166 171
172 178 127 149 142 134 170 147 207 162 130 139 384 440 432 459 492 458 433 442 353 325 327 304 296 346 298 275 226 223 196 191 212 201 205 195 171 204 213 181 203 211 172 174 178
114 121 139 165 161 165 147 180 214 162 129 132 351 436 423 419 457 472 484 443 364 326 327 309 295 325 328 279 261 219 208 198 194 239 190 232 178 181 149 196 180 210 209 162 184
172 113 93 139 114 125 153 199 209 122 123 190 347 436 419 415 439 473 480 455 378 327 314 299 301 304 327 293 263 248 221 211 202 233 214 241 158 141 186 167 188 182 184 143 157
166 93 139 145 133 137 172 168 208 216 128 134 375 437 413 413 431 472 485 461 375 327 304 315 318 291 316 299 278 258 239 217 212 201 234 206 228 122 180 176 155 148 186 179 182
155 113 142 131 162 134 160 148 143 237 134 123 371 257 412 409 430 473 484 484 370 326 309 301 305 281 295 307 297 227 254 240 224 207 188 213 173 184 176 180 141 151 154 185 177
123 127 119 131 122 122 165 171 182 263 122 122 231 292 409 410 441 487 459 491 348 323 312 295 297 276 272 300 294 251 256 245 187 217 238 231 207 186 188 184 179 185 160 157 192
163 167 162 138 126 128 174 171 164 133 125 360 236 433 418 405 419 448 451 409 338 326 324 298 288 338 273 281 301 277 261 250 243 235 219 243 214 205 185 141 188 177 173 191 165
154 163 139 130 136 128 122 132 192 178 138 355 383 412 421 404 412 406 417 412 331 327 318 295 285 300 318 263 285 327 267 252 247 242 232 217 234 209 219 189 182 182 182 157 195
161 126 130 146 152 130 153 179 181 179 363 352 281 379 430 426 421 401 441 363 324 313 315 290 285 298 313 308 270 283 279 261 251 246 243 232 235 229 205 205 190 184 185 185 178
160 143 132 163 121 129 166 162 153 189 191 122 157 278 390 434 426 403 422 339 306 304 309 290 289 293 307 331 264 271 272 271 261 254 249 244 232 237 226 202 217 194 187 184 192
151 155 141 169 136 137 152 162 184 204 302 352 136 368 376 445 411 381 393 325 304 308 296 293 297 298 283 289 318 286 265 268 270 263 256 249 242 229 232 221 212 203 212 191 186
151 164 143 127 123 131 154 149 145 172 241 196 211 151 372 373 428 382 383 306 304 309 297 295 296 289 279 280 317 295 262 266 271 267 256 251 244 237 228 225 223 211 207 200 198
149 158 144 172 120 151 120 167 188 188 187 124 269 140 369 365 385 401 349 302 300 297 295 302 296 300 284 280 300 304 297 254 268 264 265 253 249 244 242 234 222 227 216 210 203
131 162 135 110 126 151 147 181 150 178 169 129 154 122 381 359 389 401 330 307 292 293 296 297 291 315 280 277 274 300 294 292 262 262 262 268 265 249 251 256 239 230 220 211 209
126 143 133 112 119 158 137 175 151 175 221 342 185 120 364 351 353 367 327 297 286 294 296 286 287 283 284 274 297 301 291 296 300 258 255 279 279 261 269 266 262 253 238 231 224
149 156 150 125 112 135 175 153 207 170 229 174 222 121 338 357 259 322 285 307 293 296 273 295 299 289 297 282 277 297 294 294 287 274 250 252 275 270 277 277 266 290 296 260 245
134 128 128 126 146 132 137 149 160 174 338 164 340 112 114 353 335 310 301 275 291 288 298 287 268 277 302 290 277 308 295 290 293 284 286 244 259 255 270 285 124 266 278 279 308
146 109 163 220 112 142 150 247 163 141 171 217 146 268 104 304 332 302 262 292 292 294 277 262 292 291 284 264 276 269 285 269 274 288 283 281 259 273 284 257 284 279 268 288 275
148 140 150 166 145 117 155 149 175 181 173 188 232 269 231 116 292 327 235 296 280 280 275 272 260 252 268 267 223 259 264 261 270 228 266 264 269 261 253 278 284 293 299 292 285
154 149 100 118 171 109 135 150 153 121 168 161 294 134 153 267 278 289 321 308 298 283 301 309 287 265 252 272 260 259 264 268 260 258 263 254 256 261 276 297 288 293 296 300 304
158 140 145 150 101 149 110 112 179 171 192 195 379 119 319 320 132 164 287 144 218 310 295 288 270 271 267 264 263 263 260 259 264 251 267 273 266 287 318 299 303 312 281 324 290
158 149 161 133 175 125 141 141 160 174 183 190 238 197 343 276 207 302 287 280 162 143 306 302 301 293 291 294 290 286 285 287 281 267 322 322 291 300 295 291 286 287 302 302 304

GFSSW_2pvu_pres_063.txt.gz
Presure
119 179 195 197 133 115 123 161 120 152 132 176 224 323 363 514 577 174 551 401 372 367 354 353 320 311 325 248 236 213 201 182 156 193 212 222 172 162 188 126 152 181 160 150 153
111 165 187 135 147 115 144 121 155 128 201 257 235 134 141 558 512 496 530 494 359 375 372 371 349 332 333 301 239 238 204 207 188 191 182 195 208 199 183 175 180 151 136 169 169
107 161 120 167 142 151 120 131 138 156 167 207 179 138 126 208 490 471 490 470 470 362 368 367 335 341 331 309 266 219 186 185 198 194 189 213 201 195 197 61 177 171 162 165 180
111 117 160 182 153 114 114 130 175 152 162 255 387 126 170 458 480 451 450 437 464 363 367 357 327 316 338 317 299 257 250 239 201 190 186 155 99 193 202 187 177 163 185 157 167
137 147 164 131 136 123 135 137 162 150 152 202 117 133 134 446 472 460 448 423 435 349 351 350 317 296 318 319 303 265 257 191 175 203 183 175 105 93 185 209 184 174 163 166 166
114 156 169 152 96 122 127 177 152 164 174 251 145 123 127 198 432 501 435 422 431 385 330 353 315 300 312 316 307 284 235 233 231 216 186 196 221 225 185 198 208 196 177 139 162
162 159 166 165 91 130 159 125 163 139 145 254 123 212 445 371 422 444 482 431 428 401 321 340 338 316 312 296 308 290 248 216 190 220 214 200 200 235 192 173 233 185 197 186 166
124 157 157 167 178 121 133 139 165 135 196 213 140 286 431 420 414 423 480 449 418 388 338 328 346 319 304 341 300 296 262 239 195 189 112 191 203 186 149 186 101 219 194 197 185
146 138 157 137 147 137 125 119 139 130 139 246 329 398 430 423 416 438 477 474 422 382 343 319 338 319 297 348 349 298 265 255 233 248 188 224 186 207 202 232 118 187 155 195 192
124 158 153 176 134 135 147 164 148 161 150 150 369 365 442 417 436 491 486 451 379 368 326 310 323 306 291 303 363 146 80 185 252 222 209 227 183 191 133 206 220 227 214 160 199
142 159 159 169 193 126 129 142 202 152 146 210 361 128 134 418 469 486 493 375 380 358 324 303 337 297 361 289 331 295 276 266 256 230 268 241 187 186 207 166 187 223 151 163 189
147 145 161 184 165 154 132 135 152 146 189 244 356 377 142 421 435 488 484 370 369 351 318 303 287 324 321 281 308 293 278 269 204 252 209 259 196 195 188 205 185 221 221 159 144
144 175 147 162 202 135 128 147 173 161 174 293 292 379 157 418 427 428 439 403 368 334 306 301 293 310 347 282 291 312 274 269 264 250 238 236 199 196 191 186 214 182 231 222 171
141 153 197 167 169 178 126 131 142 174 149 373 351 375 135 422 420 431 397 378 362 316 305 299 301 335 294 303 271 316 289 272 259 252 244 228 206 202 197 188 186 230 181 159 171
147 149 143 172 141 170 121 206 123 170 140 219 280 129 114 398 416 410 390 377 337 310 303 300 300 290 330 290 267 274 288 278 266 252 254 247 229 206 204 198 194 190 220 188 228
208 146 150 163 116 136 130 157 143 174 179 155 350 160 214 399 419 399 394 337 319 314 305 295 298 288 277 297 267 264 284 281 288 266 258 254 241 226 216 209 208 199 177 216 186
144 127 159 161 145 136 118 138 161 155 182 197 352 131 366 392 438 405 341 327 313 295 308 304 294 287 278 307 308 260 275 290 282 283 262 259 253 242 231 226 220 209 202 230 210
151 124 182 200 138 132 178 135 164 137 172 188 353 371 140 386 409 397 329 321 295 301 323 303 289 294 285 280 311 273 256 268 281 302 270 255 248 249 242 236 230 221 211 209 227
124 149 154 170 178 119 116 116 155 143 168 181 355 346 346 173 409 229 319 316 312 313 316 300 288 298 307 276 317 306 272 257 266 270 296 265 253 248 244 245 234 229 223 218 216
153 147 151 184 154 125 128 120 143 163 140 182 242 291 131 230 309 336 324 315 310 302 308 317 321 310 274 267 266 273 288 297 260 265 255 259 263 259 249 251 248 236 232 229 226
141 144 134 112 146 146 138 119 154 162 195 194 244 338 193 118 127 330 309 310 305 291 295 299 298 288 242 275 270 270 276 291 275 254 259 253 257 262 263 260 261 255 243 237 234
145 133 144 142 163 127 165 122 118 162 164 173 231 281 356 164 128 128 309 301 308 308 296 293 307 302 291 278 302 269 307 296 292 290 290 247 255 258 256 264 269 259 253 251 243
147 135 145 137 166 144 129 121 158 194 160 178 177 239 334 299 147 335 303 282 281 292 294 292 302 286 280 274 281 271 282 290 279 284 281 276 267 279 252 279 284 272 269 264 256
142 137 142 158 160 125 142 123 118 167 251 151 166 285 117 315 322 145 317 291 215 187 269 285 304 293 292 293 235 275 281 300 280 283 289 287 286 286 294 279 255 256 263 289 288
136 147 186 157 140 160 133 131 113 135 158 157 170 178 150 213 324 326 122 299 305 269 140 273 271 272 268 269 266 272 265 258 258 274 271 263 273 249 220 272 292 260 279 291 289
137 161 139 156 142 152 138 119 110 148 153 161 160 188 169 340 314 109 320 314 295 309 295 296 263 285 259 263 286 264 261 257 267 274 262 277 266 271 273 271 270 276 286 304 272
221 152 177 157 164 128 124 112 141 140 124 161 182 180 162 165 332 175 114 291 313 298 298 288 288 208 279 259 277 255 269 256 262 268 264 262 258 262 267 269 264 274 285 291 296

GFSSW_2pvu_pres_066.txt.gz
Presure
105 121 108 130 163 181 101 114 97 138 152 139 183 113 235 160 127 445 154 161 411 364 369 360 353 331 329 298 288 210 236 185 201 194 190 155 182 202 107 180 185 169 172 73 76
133 125 108 137 138 182 182 99 149 137 134 155 165 155 218 125 129 276 297 516 574 377 364 371 383 391 330 305 297 280 267 224 218 209 183 175 137 193 219 170 182 184 160 159 133
99 114 116 139 110 188 217 212 127 151 136 154 150 146 106 139 127 134 142 485 484 529 363 373 370 371 336 309 309 193 264 142 226 218 154 177 166 184 218 187 171 186 168 183 173
152 106 114 150 106 169 193 165 128 131 138 140 137 160 150 106 328 439 135 378 464 458 478 352 374 386 410 319 302 289 278 247 204 224 197 137 173 171 200 203 182 145 193 182 178
133 113 122 114 154 160 180 224 138 145 144 142 145 153 159 119 361 441 265 441 445 415 454 341 362 371 354 337 316 292 274 257 245 201 226 199 169 179 180 209 198 183 173 171 171
148 128 133 128 131 187 181 187 145 143 144 128 183 182 163 149 450 440 437 444 425 408 434 351 346 366 397 348 323 303 287 259 241 234 215 161 200 188 175 212 188 223 176 162 197
129 131 156 160 155 144 184 259 164 139 149 136 143 209 183 391 448 428 163 459 416 407 421 425 330 355 410 347 323 296 271 254 253 223 206 162 197 177 184 177 202 209 105 182 166
134 135 140 136 146 129 218 146 145 172 152 134 192 149 134 343 346 154 352 463 412 410 389 413 323 340 346 347 308 288 285 297 276 227 234 182 208 72 189 188 183 105 103 117 184
139 132 118 103 128 163 187 160 160 130 144 127 157 225 149 405 432 435 163 462 409 418 382 365 321 334 341 321 361 293 280 298 291 252 233 219 207 225 207 131 184 182 153 163 199
136 154 145 106 131 167 176 158 153 133 142 128 149 210 351 427 436 249 484 473 412 426 373 363 322 328 330 346 363 335 254 78 237 260 138 231 182 141 177 188 188 186 185 209 165
138 139 146 221 173 204 243 137 175 131 130 136 189 143 406 397 443 136 460 483 393 415 361 351 316 319 331 352 299 259 293 290 278 252 248 164 206 183 214 206 186 188 190 184 207
131 149 148 154 143 188 177 146 141 132 166 154 145 373 427 122 127 493 452 436 370 358 359 362 292 321 333 316 292 265 301 279 282 271 264 255 240 198 231 203 202 189 192 188 206
144 146 139 173 170 163 202 146 148 142 147 161 196 284 320 137 439 449 413 405 381 354 355 371 301 293 314 355 288 275 303 298 266 262 256 273 255 256 197 196 199 201 198 194 195
122 135 163 155 144 193 160 126 154 141 140 152 175 271 408 418 439 370 357 360 378 338 314 348 297 288 303 333 294 273 277 286 287 272 265 270 254 233 225 181 190 170 204 200 202
145 145 147 142 172 216 145 148 135 137 145 161 214 234 392 128 132 353 351 346 371 351 325 306 294 317 295 304 324 281 278 306 272 282 289 275 269 246 225 206 191 221 176 207 191
145 134 124 136 162 152 186 147 139 130 161 166 144 377 384 145 130 356 359 355 340 310 300 298 294 294 298 312 329 284 305 343 287 268 281 149 269 264 243 218 211 232 185 193 179
208 143 155 160 156 147 159 131 133 142 173 145 208 222 224 428 424 292 359 379 321 307 298 297 300 316 310 317 343 337 275 299 338 307 273 275 268 270 265 236 211 216 225 187 186
142 146 122 156 142 189 141 141 128 137 131 173 163 328 108 156 408 297 352 330 322 312 302 291 297 319 303 312 286 330 282 264 322 318 279 265 259 257 259 247 238 211 254 240 195
146 138 158 157 150 175 129 140 137 121 165 122 184 340 112 137 277 355 353 319 316 310 309 300 299 309 283 279 289 276 318 271 260 296 280 283 261 258 256 255 247 236 213 219 204
178 135 161 160 148 157 182 125 135 139 138 145 134 162 246 378 125 346 326 307 317 308 305 312 296 293 272 273 279 311 306 292 262 262 283 279 294 267 254 255 253 243 233 224 214
152 146 144 151 161 175 168 149 128 124 115 130 148 243 190 108 360 170 318 330 231 298 298 314 303 299 300 280 269 293 307 292 260 267 284 279 281 269 266 257 255 252 248 237 230
136 146 192 129 109 195 140 146 137 159 206 123 135 160 325 440 356 207 122 315 309 187 307 311 331 320 307 300 271 272 267 293 294 295 252 250 282 276 278 275 267 264 261 251 243
138 138 171 142 149 197 138 124 126 133 148 157 159 179 181 171 243 301 170 305 313 302 298 211 320 287 288 281 280 270 280 286 299 295 290 261 250 261 265 279 281 283 271 260 251
141 142 138 178 183 199 153 132 122 118 135 178 149 166 180 357 339 277 333 139 246 299 305 294 287 288 285 284 288 280 271 270 272 286 305 300 306 276 250 256 261 265 265 270 269
227 130 198 135 179 197 173 136 112 123 114 114 183 165 338 199 219 347 329 149 141 273 302 295 303 300 284 288 287 284 279 306 278 285 283 280 287 288 285 283 270 254 272 269 263
150 133 202 169 142 229 169 170 125 138 116 155 163 172 126 351 215 149 341 316 304 125 293 283 283 277 285 284 301 285 282 275 298 296 291 288 269 266 289 284 274 278 286 289 255
226 142 139 150 224 179 152 158 129 121 119 107 157 155 144 130 101 223 139 317 316 108 305 296 293 270 272 269 268 265 273 263 272 257 269 272 267 266 266 273 272 274 276 288 282

GFSSW_2pvu_pres_069.txt.gz
Presure
114 117 110 123 118 119 122 134 125 161 94 95 154 139 164 144 148 135 155 113 146 429 148 336 323 363 346 330 310 289 278 257 215 200 183 206 189 158 149 166 173 161 185 137 165
107 119 112 126 119 122 150 119 151 109 156 110 183 177 172 165 153 153 134 151 122 429 386 364 363 374 354 352 313 297 296 252 231 199 188 207 206 189 169 218 171 191 165 184 142
109 111 117 125 126 118 140 165 109 159 170 122 179 136 148 145 170 147 115 127 168 166 475 353 351 367 368 353 320 303 296 283 145 247 208 200 201 201 168 127 183 159 177 176 173
126 114 164 126 119 130 149 96 117 171 190 194 172 168 145 151 163 180 158 114 481 465 462 565 348 364 382 359 329 300 290 303 282 227 238 179 210 184 174 153 74 183 189 174 172
127 115 216 161 118 132 160 128 146 195 200 188 170 174 165 148 144 154 443 234 473 369 472 483 364 355 382 353 334 306 296 290 195 274 248 183 194 202 190 173 176 194 188 171 160
123 140 195 158 133 124 118 154 134 199 183 182 159 174 162 178 211 249 182 443 471 195 444 435 362 349 365 355 342 302 290 296 292 276 152 233 190 207 187 182 170 193 178 161 182
94 146 172 155 135 149 133 123 117 235 164 166 164 185 200 146 138 340 184 432 457 354 406 400 405 342 352 366 337 297 292 289 291 273 245 251 112 185 207 191 173 174 189 177 200
132 141 141 157 131 129 145 227 152 190 161 165 149 168 177 148 247 446 435 134 140 352 398 394 457 342 338 366 341 314 293 294 280 284 261 246 117 177 197 197 190 164 175 184 191
128 128 144 157 143 151 134 133 216 164 132 150 152 137 148 162 300 117 135 288 454 407 389 397 419 343 336 353 382 319 298 293 279 280 269 259 228 209 207 203 185 168 171 176 192
122 131 144 157 144 156 160 130 169 167 162 153 144 175 131 169 369 202 370 492 454 420 397 377 385 359 321 343 352 317 296 299 280 276 289 260 241 254 223 197 203 110 173 171 173
129 134 147 147 152 130 160 134 143 168 151 158 149 146 139 161 442 340 464 456 438 409 396 385 379 353 315 335 332 320 283 159 276 291 272 258 240 231 191 119 183 210 161 70 93
146 136 146 154 153 129 134 200 175 169 164 162 146 154 169 376 448 134 351 464 423 362 351 364 375 344 296 330 353 336 287 281 287 276 272 257 265 240 242 206 233 215 193 191 179
133 139 145 151 146 127 141 231 207 133 148 148 163 154 147 444 325 115 137 421 366 346 342 363 388 334 293 334 328 337 292 271 274 282 263 270 259 187 239 281 170 203 219 196 176
127 139 137 140 125 148 176 124 230 143 117 154 132 149 157 404 439 367 159 372 341 348 354 351 355 305 296 311 325 356 340 269 268 275 280 245 269 271 254 240 259 195 172 175 202
128 140 149 142 124 166 158 167 158 114 143 150 134 151 496 194 375 353 350 350 346 328 339 365 330 289 297 336 347 300 350 287 277 273 274 253 261 277 268 264 220 228 219 210 207
137 148 151 126 131 153 162 150 139 128 147 153 135 144 149 195 111 264 280 329 250 335 352 332 288 294 287 317 312 318 366 272 266 273 268 269 269 276 276 271 272 215 221 228 183
138 149 145 128 135 145 154 144 153 154 153 128 151 155 140 105 268 305 127 317 309 324 353 311 291 294 303 323 329 344 291 268 272 286 295 267 274 277 287 269 267 257 218 234 216
136 149 148 122 146 166 119 173 179 146 128 147 134 138 141 180 205 377 326 323 308 308 302 299 299 293 289 292 316 320 302 303 279 283 287 292 271 289 282 286 290 267 250 232 234
138 144 140 132 143 162 150 215 159 149 146 141 154 164 347 223 365 152 333 321 322 151 303 295 304 305 291 263 305 336 351 282 279 262 279 281 281 284 279 286 277 275 280 244 222
141 134 148 143 124 159 152 180 147 142 132 153 141 135 144 430 389 347 335 326 306 313 145 322 315 302 304 312 301 296 311 337 276 295 270 287 262 271 269 260 272 283 272 272 240
128 139 129 147 131 151 149 177 151 153 161 133 138 156 155 432 375 236 334 120 116 304 316 225 309 318 288 306 279 295 288 339 326 266 263 300 277 277 269 280 266 275 276 284 261
126 142 128 129 152 116 155 154 128 133 166 177 136 132 168 151 377 345 124 322 125 301 294 310 324 313 288 286 277 281 294 282 323 301 262 259 327 324 294 294 279 269 270 268 264
207 138 132 134 145 174 152 217 146 126 119 136 133 132 151 153 350 261 308 327 312 313 306 303 305 319 290 279 275 270 273 323 308 297 290 261 253 287 286 281 275 290 291 265 253
216 130 139 141 182 156 150 169 164 137 127 129 123 122 159 172 219 328 310 121 313 299 307 299 312 312 293 303 293 277 274 271 304 309 307 288 266 257 282 276 275 277 285 267 271
214 225 209 131 209 168 159 184 190 149 178 148 140 128 119 152 166 339 320 130 324 226 248 294 206 299 292 293 294 287 282 282 270 281 274 298 311 307 294 247 257 292 288 277 279
220 199 218 133 144 130 175 175 218 146 174 126 119 147 148 148 156 184 349 288 234 315 301 289 120 300 308 293 301 287 289 284 279 268 261 275 277 284 297 301 298 299 247 243 272
211 124 137 139 213 178 170 167 197 133 132 129 143 126 132 138 164 160 140 317 332 316 310 249 303 285 271 283 278 299 292 281 292 278 276 267 274 279 281 270 278 279 279 277 277

GFSSW_2pvu_pres_072.txt.gz
Presure
110 109 106 112 112 104 120 119 137 117 126 112 150 102 155 119 155 162 121 147 120 147 144 283 162 216 180 322 359 341 306 324 309 217 217 216 208 187 188 167 182 103 201 143 155
96 110 107 94 122 108 121 119 167 119 131 116 118 155 101 161 196 166 173 196 160 169 181 107 102 175 356 200 363 341 325 238 305 295 259 237 177 201 188 173 170 175 132 130 188
110 103 132 111 112 117 142 145 157 112 121 98 115 146 179 167 166 135 152 153 155 151 425 120 178 183 366 359 365 344 353 323 232 292 271 196 222 186 191 187 98 90 196 139 126
129 123 133 132 117 119 151 163 133 126 124 142 140 171 154 194 135 148 140 151 177 164 118 152 490 390 362 361 365 349 321 325 297 290 271 188 228 224 189 190 178 179 188 207 217
147 133 133 128 112 140 156 166 117 131 113 136 142 174 162 182 151 151 142 300 162 177 283 458 385 319 372 358 364 354 314 313 293 289 263 235 231 217 183 186 187 167 161 170 179
141 145 131 132 117 134 144 169 138 125 134 167 184 159 147 143 163 165 149 161 125 343 125 459 142 504 362 349 366 358 310 306 294 285 292 193 240 210 188 104 193 184 164 174 201
136 127 129 130 116 133 151 166 134 133 126 151 140 150 162 169 139 160 441 171 438 357 443 130 137 348 361 345 358 342 311 301 298 280 280 263 218 142 192 185 183 190 174 166 177
139 138 139 133 123 187 152 142 153 132 155 164 166 182 132 156 134 159 156 268 402 131 184 400 422 402 362 338 350 330 309 298 296 284 278 271 189 221 196 179 187 190 151 170 170
138 133 136 124 126 141 141 155 165 127 137 148 203 151 170 130 127 157 451 459 128 418 412 388 392 388 355 328 336 326 305 297 292 283 270 272 250 234 191 132 184 189 189 180 170
131 133 125 125 132 142 188 139 131 120 170 225 170 174 147 137 144 233 473 410 140 416 394 390 388 370 386 341 331 344 308 294 289 284 271 286 269 213 225 197 186 144 190 179 167
133 114 130 127 137 145 157 148 128 150 204 169 178 144 136 133 165 167 453 129 133 407 382 381 391 389 378 334 331 351 324 286 289 274 283 266 274 252 213 209 196 214 218 121 186
133 131 133 131 132 142 147 132 141 141 148 210 124 142 138 149 145 464 124 448 142 396 371 379 376 399 376 334 332 325 297 278 277 273 272 300 267 283 260 217 217 196 202 201 180
129 110 132 124 134 142 155 124 140 150 234 162 163 148 147 143 161 460 427 163 416 397 365 376 409 416 355 314 330 324 291 304 278 280 281 274 287 256 269 254 244 217 177 188 203
215 115 125 132 141 152 148 127 142 140 250 165 137 144 142 138 406 385 125 128 351 369 371 372 345 377 327 300 323 323 269 272 291 291 279 267 268 282 287 281 264 226 205 192 187
254 117 127 133 138 150 120 142 141 139 149 159 163 161 137 170 254 113 120 303 344 355 367 341 337 328 359 301 316 311 284 268 266 272 272 267 268 264 268 274 267 257 223 192 206
143 156 144 141 152 135 123 202 140 152 182 160 137 137 137 144 382 108 119 160 350 367 354 321 326 339 293 311 310 316 296 274 278 261 265 266 281 260 269 291 257 206 242 218 199
150 156 170 147 176 142 128 120 156 175 162 136 162 147 157 147 367 190 255 242 350 340 317 311 306 329 296 288 316 297 355 274 267 268 273 275 278 259 261 263 279 299 257 241 237
188 236 125 140 183 136 125 146 150 163 170 154 158 139 140 148 224 344 305 124 228 332 320 311 308 295 318 281 321 321 355 266 261 282 275 261 262 273 260 267 266 284 283 256 225
185 216 221 152 162 169 134 138 177 187 172 171 117 177 164 336 329 156 335 302 121 252 300 280 282 312 289 285 305 336 309 289 270 267 271 277 274 277 260 270 269 265 269 284 266
192 188 222 173 132 129 137 129 206 188 168 187 153 167 145 136 350 341 329 110 315 309 290 295 248 287 299 291 333 309 342 335 279 272 271 281 270 262 278 277 281 279 267 266 277
191 197 136 164 133 124 141 139 150 161 142 169 155 130 165 134 151 262 339 124 210 245 300 283 283 313 306 276 278 305 324 316 301 278 258 261 276 277 267 267 269 284 280 275 280
186 159 179 128 130 136 124 131 193 162 151 144 152 154 113 135 156 355 344 134 335 305 299 312 298 315 310 297 307 285 298 318 317 277 300 286 277 278 271 276 283 289 301 293 305
190 164 132 145 128 124 131 210 156 157 150 159 143 127 133 151 122 270 342 299 335 313 316 307 310 323 246 295 304 286 279 287 300 346 339 284 263 274 274 272 271 274 275 280 268
176 229 189 136 130 137 189 149 183 155 162 127 163 159 220 144 129 122 145 133 311 253 313 293 311 321 306 313 294 293 284 284 307 291 335 331 327 343 271 279 262 275 289 270 267
191 217 133 195 224 219 205 153 228 150 159 157 159 177 133 113 143 125 321 333 328 242 305 306 316 318 305 298 301 294 281 281 280 289 324 322 320 315 325 285 262 285 284 274 278
193 178 220 133 227 136 146 151 154 159 158 169 144 176 112 122 127 120 290 348 184 330 312 124 302 306 302 304 299 298 298 293 283 282 276 295 318 309 301 296 300 267 284 258 301
209 134 207 163 140 160 193 146 186 192 164 151 129 133 129 256 160 122 157 134 177 263 154 229 325 313 304 296 297 298 307 301 292 288 283 285 275 291 297 302 298 289 279 270 268

GFSSW_2pvu_pres_075.txt.gz
Presure
141 127 124 113 109 98 112 120 120 111 123 117 188 153 119 137 148 123 160 125 102 159 132 130 154 85 169 138 125 171 121 156 362 332 277 317 140 280 233 198 204 168 126 182 148
202 126 142 98 103 109 118 111 119 117 129 138 183 156 133 102 107 137 151 152 131 133 133 193 143 129 127 162 164 138 173 255 343 349 234 301 314 198 241 189 184 172 143 168 155
125 145 126 102 104 108 126 128 119 119 146 145 154 132 132 135 145 160 164 190 135 156 186 146 165 197 148 154 267 322 175 390 301 331 321 291 307 294 244 188 182 172 177 172 153
134 166 153 127 104 129 135 130 113 125 141 159 128 156 154 97 153 237 150 142 130 141 132 174 159 161 152 167 189 313 159 340 160 315 314 300 284 311 264 217 190 181 175 171 88
143 139 189 151 149 167 147 118 122 139 137 154 132 149 143 157 158 216 172 131 135 176 139 158 168 159 450 463 70 363 366 360 317 304 331 292 291 314 266 238 191 187 152 122 159
191 179 144 209 144 149 148 115 118 142 151 159 124 142 154 168 170 154 159 165 138 160 157 169 302 441 348 486 440 386 350 346 339 308 319 292 287 313 267 238 213 188 169 175 168
196 141 141 149 185 148 137 117 124 141 141 124 128 148 142 158 162 155 128 142 178 154 168 419 437 449 448 486 425 151 151 331 374 305 310 287 287 302 265 238 218 222 175 170 177
187 177 185 138 148 136 131 113 130 135 146 148 170 134 139 141 186 147 144 157 126 162 429 435 239 121 407 417 291 168 148 330 324 303 297 278 291 108 277 241 219 202 171 180 175
196 174 135 137 138 125 117 113 132 133 154 126 141 164 161 165 133 136 138 171 159 424 444 240 138 396 448 428 365 344 346 327 319 304 294 293 280 283 278 243 223 208 187 179 177
263 168 151 148 128 118 124 126 134 139 148 130 130 158 168 132 178 132 133 161 435 484 220 336 230 374 399 374 375 346 338 313 309 308 296 291 295 274 275 247 226 213 200 186 176
249 125 239 138 142 122 122 131 132 151 127 123 134 153 154 178 183 158 159 166 447 462 133 146 378 374 403 387 358 341 334 302 296 309 297 283 285 273 268 247 231 207 209 204 180
200 252 159 139 133 123 120 131 132 144 128 132 190 232 161 138 155 143 159 457 241 189 320 399 388 374 372 377 335 337 331 290 290 305 314 286 280 279 271 265 230 172 197 203 197
306 198 193 151 137 122 117 126 145 143 163 142 155 142 145 171 147 163 376 449 121 262 380 386 366 359 368 388 328 333 317 283 298 285 310 279 278 282 258 257 246 197 208 196 194
267 250 171 117 238 122 171 124 141 142 144 147 143 174 116 159 132 146 354 385 240 315 372 384 365 360 368 328 323 329 323 275 273 281 288 270 283 277 269 259 272 215 194 200 189
271 241 253 152 150 117 163 137 137 135 131 149 135 142 156 163 286 157 357 325 114 127 344 227 424 372 383 313 315 341 270 277 283 288 283 279 281 271 263 261 255 174 214 213 201
237 252 265 124 135 169 146 183 134 145 163 148 145 153 134 163 204 153 363 353 124 122 330 351 388 384 374 316 314 305 300 269 280 269 277 285 278 283 270 270 278 205 221 208 160
256 121 200 118 223 135 153 132 136 202 147 141 140 159 124 171 146 148 357 282 115 121 204 329 345 308 302 307 319 318 279 261 265 264 262 280 293 284 260 290 270 273 235 221 212
257 235 218 233 130 174 132 127 139 148 147 186 183 147 163 147 148 150 344 325 309 168 312 327 335 288 295 307 313 301 310 266 262 271 277 276 283 254 260 274 282 277 270 238 210
231 250 249 244 148 163 159 132 129 193 138 158 138 183 159 120 145 284 341 320 303 160 310 318 318 299 287 301 316 282 280 281 280 262 266 265 265 275 273 259 271 274 309 270 313
239 226 257 242 229 170 133 223 141 178 146 132 167 166 147 137 143 280 255 254 309 298 287 301 309 325 295 294 315 287 261 288 274 291 271 265 261 257 254 272 273 272 279 285 273
261 247 245 232 194 158 136 132 135 146 134 137 142 171 174 141 146 138 147 241 312 291 304 304 308 327 282 273 300 300 280 271 272 276 290 287 284 278 278 269 268 271 266 274 276
194 257 180 228 142 129 141 130 236 128 139 162 160 201 157 158 137 200 144 283 305 323 301 191 314 308 282 246 306 288 300 306 280 271 272 272 267 273 271 268 264 266 263 273 269
261 243 225 144 137 141 139 131 150 162 140 160 162 199 162 136 123 203 165 289 307 171 310 310 306 311 310 268 235 297 311 301 335 283 274 282 276 288 273 276 275 277 264 284 279
247 231 225 198 133 182 134 229 157 137 211 156 157 155 187 122 122 134 250 226 133 127 126 295 330 346 319 318 313 316 286 310 321 330 322 279 273 274 286 277 269 275 278 278 274
238 221 142 135 139 141 142 125 125 140 154 163 119 194 191 141 117 137 112 260 132 326 189 334 331 299 323 327 318 310 315 304 296 314 320 332 345 330 268 273 283 277 272 263 267
218 220 132 152 156 140 132 222 207 191 168 164 158 193 198 158 120 127 146 130 201 118 121 223 185 250 329 326 310 321 323 325 315 298 288 294 345 346 286 274 308 300 285 286 282
226 185 149 131 136 215 132 223 218 132 155 146 139 146 121 172 150 133 133 133 225 154 119 157 152 276 265 267 254 336 329 330 324 320 319 310 291 281 315 331 333 326 324 279 273

GFSSW_2pvu_pres_078.txt.gz
Presure
126 184 132 141 134 147 118 109 114 113 116 116 119 122 123 127 144 144 191 237 149 140 117 132 165 103 209 101 166 217 126 150 125 160 170 91 85 100 120 131 277 234 216 223 238
143 130 127 180 147 160 188 116 108 110 114 125 119 119 126 135 138 123 252 144 110 141 170 162 211 213 253 145 150 158 179 145 110 131 98 138 143 132 168 206 280 229 169 224 229
134 139 143 135 213 203 151 107 105 114 121 133 123 126 130 140 137 123 126 154 159 162 162 158 195 138 190 153 167 159 171 147 131 134 160 141 96 154 164 313 281 147 200 210 233
141 170 136 144 205 181 137 196 114 141 128 118 121 136 117 149 146 131 157 155 157 168 86 224 126 164 155 125 139 138 135 133 164 139 142 156 169 118 330 322 275 233 141 207 262
215 229 224 136 141 111 186 149 201 148 139 117 122 136 139 146 112 154 145 141 157 174 175 133 132 153 156 155 168 167 159 144 135 122 112 151 293 134 305 331 204 252 211 205 217
182 205 240 258 139 140 147 152 172 168 124 112 121 138 122 140 144 150 133 151 162 218 139 200 143 150 140 161 179 184 142 355 377 150 343 326 310 320 311 328 290 256 225 198 198
212 231 257 127 313 202 143 148 150 181 119 119 129 138 134 144 117 127 148 168 199 175 143 167 161 166 164 170 183 440 436 417 385 335 333 322 305 326 299 296 257 235 219 185 197
264 280 270 274 141 316 184 150 234 130 122 120 130 123 127 144 151 140 162 167 171 140 126 133 141 175 237 438 439 467 485 407 127 359 325 297 306 306 294 295 260 206 241 181 230
307 267 273 288 280 254 262 150 159 125 114 127 131 143 153 120 138 157 260 130 126 137 135 167 180 404 439 440 427 255 478 461 356 321 298 255 139 281 293 299 309 233 216 200 218
240 222 323 241 294 323 233 127 132 120 126 130 135 124 150 137 152 159 179 136 170 193 182 174 365 419 207 362 413 136 450 377 353 300 297 291 283 301 301 301 307 255 215 222 199
312 249 253 225 329 280 272 125 119 123 127 142 136 131 152 152 151 133 163 180 126 165 174 419 395 126 139 383 429 420 378 344 349 296 295 291 295 305 296 282 300 240 216 216 211
332 279 278 226 297 159 153 123 129 127 137 135 130 121 186 155 153 168 132 160 169 166 404 118 387 363 353 360 362 389 334 336 337 294 293 291 269 287 298 285 307 242 226 204 218
248 270 253 333 216 163 222 129 124 123 137 135 135 148 155 144 153 166 133 162 158 367 393 193 123 378 356 355 350 343 330 335 323 293 285 284 276 286 284 297 289 249 231 212 216
260 297 307 251 297 203 129 119 135 201 135 139 151 130 148 165 175 173 142 152 236 358 112 288 362 374 355 340 384 326 331 310 316 299 286 290 284 284 284 283 303 252 234 214 206
268 220 249 362 312 129 137 123 126 132 136 207 125 146 151 166 153 124 128 161 369 348 118 125 352 360 363 356 332 325 311 315 295 282 282 283 275 296 279 287 281 263 238 229 207
416 248 165 130 128 243 133 127 171 220 119 154 172 154 158 160 171 214 133 159 356 377 115 122 118 368 366 328 324 325 312 297 281 279 278 272 281 284 306 271 258 283 235 229 224
265 214 306 266 190 125 262 126 259 258 184 139 144 154 176 187 145 190 153 151 277 353 367 155 358 362 314 327 322 326 292 279 280 281 280 285 282 277 289 264 271 269 242 225 223
292 304 182 252 137 248 125 150 254 149 142 141 147 156 163 129 133 152 170 317 327 327 338 343 266 311 314 320 316 309 285 277 280 273 269 275 289 265 301 266 259 271 268 232 221
339 271 248 254 111 135 242 135 220 176 143 145 146 159 143 141 149 153 312 197 313 315 314 316 307 296 309 319 312 279 277 272 271 273 288 277 275 281 287 279 269 263 268 250 231
271 261 247 238 177 118 213 238 141 145 149 148 136 165 141 143 171 151 140 244 168 309 325 314 261 302 305 317 303 297 279 270 263 265 281 276 268 280 280 287 282 260 281 278 240
253 252 257 252 208 243 211 160 172 195 144 143 149 177 156 185 163 133 156 282 150 161 323 319 286 240 311 319 325 290 282 274 280 284 287 268 284 271 270 280 269 276 277 284 274
273 258 250 247 240 185 200 215 214 192 150 151 162 171 158 168 183 172 135 141 144 185 152 318 275 293 295 261 318 298 282 280 273 271 281 291 272 283 287 281 289 285 264 272 278
241 253 234 243 235 219 187 143 242 148 127 137 149 165 208 148 140 142 136 128 136 288 133 133 137 285 278 292 294 247 325 294 281 280 282 296 281 286 286 292 277 271 277 284 282
260 241 227 230 232 169 141 149 144 151 140 170 150 179 165 181 159 134 150 127 114 236 230 138 146 154 331 319 306 312 310 305 295 295 289 297 293 279 279 272 273 281 286 283 283
248 238 186 170 154 136 146 227 141 147 158 169 159 178 168 107 160 159 230 137 169 168 123 234 175 355 300 152 346 351 335 336 302 296 294 288 297 292 290 289 288 278 273 272 270
244 233 227 204 139 131 141 230 171 157 141 155 176 169 192 151 173 150 140 128 259 219 248 125 206 270 139 226 127 225 359 364 351 323 324 324 336 310 309 296 286 285 280 286 278
239 238 189 203 138 215 221 174 138 195 168 165 148 137 183 150 152 164 103 118 233 207 210 169 134 148 260 138 236 249 262 256 275 288 285 327 349 313 303 369 328 312 307 301 276

GFSSW_2pvu_pres_081.txt.gz
Presure
203 200 197 123 136 129 179 136 136 119 110 108 116 103 118 127 118 117 110 134 150 141 119 121 200 140 145 91 116 112 172 131 116 109 82 121 122 117 139 114 92 115 147 135 161
171 200 176 196 173 191 137 134 158 149 137 116 113 118 122 124 130 128 126 136 164 148 114 122 102 135 136 123 165 147 173 118 161 263 157 144 108 82 146 166 86 96 109 83 152
225 227 216 210 204 161 209 129 143 225 223 116 117 115 127 128 120 126 122 140 122 120 181 96 158 170 157 126 178 134 186 192 151 145 151 155 111 73 137 159 121 139 140 139 234
281 265 220 275 240 241 176 139 225 146 229 116 274 116 124 144 118 132 131 152 149 217 170 151 148 165 168 178 184 176 146 140 150 167 145 177 140 121 163 148 67 151 142 264 150
269 173 241 136 284 275 139 304 141 294 151 141 114 243 126 126 126 127 128 123 136 137 214 143 162 168 171 184 141 128 152 105 152 158 137 148 170 152 150 152 142 140 134 148 155
270 268 253 261 216 196 302 196 294 135 148 151 128 153 148 126 131 138 140 162 191 135 148 165 200 167 142 236 167 146 134 144 153 138 152 159 141 144 144 137 147 136 138 255 146
277 289 288 274 234 282 148 232 277 281 148 158 159 270 136 122 119 150 150 161 145 149 159 168 178 190 147 153 135 135 128 137 128 144 146 147 131 111 137 172 139 142 138 154 90
297 306 217 292 280 281 282 316 191 319 251 166 152 138 126 122 135 192 150 123 160 160 172 153 174 135 158 150 131 138 145 144 143 185 181 186 366 146 286 245 127 135 143 150 255
278 289 305 287 285 297 267 312 310 280 151 253 141 133 130 138 152 117 132 145 158 170 150 185 163 142 167 174 181 183 181 452 439 449 427 377 354 349 318 324 324 331 273 281 255
292 321 277 304 294 299 314 263 267 268 247 275 139 131 140 130 123 134 143 155 162 213 215 174 132 161 168 242 403 403 409 439 481 439 207 270 350 341 311 311 302 328 269 268 235
317 325 322 300 309 269 324 226 367 245 191 142 133 133 141 161 117 204 157 161 150 193 149 143 165 180 403 397 413 369 434 453 487 437 363 340 334 312 319 298 314 297 217 250 252
333 314 282 294 307 326 327 280 285 288 270 132 124 146 144 121 269 157 156 157 163 140 139 139 205 379 313 125 247 414 383 392 446 362 323 340 319 300 300 289 292 278 139 227 261
376 201 353 333 283 322 287 250 226 218 133 134 136 146 149 157 142 153 169 144 145 134 155 385 357 368 349 280 371 361 366 380 335 338 331 310 308 280 276 270 281 144 275 235 252
402 395 403 257 332 276 308 342 245 133 134 139 145 138 145 131 150 173 153 160 129 165 166 372 365 364 117 340 373 355 350 345 322 311 314 294 291 289 284 275 281 290 257 227 250
423 396 392 267 256 284 341 251 138 134 246 142 148 174 220 149 160 170 149 144 135 158 363 308 352 346 121 350 351 344 338 311 316 307 319 287 281 278 281 286 293 282 257 236 238
448 436 392 251 257 132 294 274 141 137 136 209 132 141 144 152 164 187 115 159 160 317 383 355 359 347 357 358 330 331 333 303 291 291 286 271 300 283 268 279 298 276 289 240 211
503 492 333 237 348 291 120 186 134 135 219 117 256 252 147 157 175 157 326 229 166 319 355 351 361 337 372 328 317 337 340 291 287 282 282 275 273 284 291 295 297 285 252 229 214
457 437 219 352 282 272 140 275 172 139 136 133 146 152 157 170 142 149 136 173 251 311 380 389 386 362 325 326 326 335 330 292 282 284 278 279 274 275 286 299 302 291 245 223 229
463 393 284 259 285 270 133 150 139 232 149 182 144 148 153 191 122 190 157 179 251 330 299 319 320 327 308 319 324 308 320 324 277 275 280 275 276 289 283 286 295 283 288 235 221
296 281 248 280 253 264 116 142 216 136 179 269 151 146 174 134 170 152 158 246 239 312 202 261 320 319 321 188 302 310 290 278 291 288 276 276 290 269 293 280 219 302 284 245 231
286 235 274 250 226 210 139 229 256 260 147 141 153 153 191 174 136 180 142 133 166 135 172 153 268 268 274 339 311 308 282 286 292 282 276 276 278 285 280 278 285 280 271 275 243
275 267 176 253 230 146 257 131 164 147 193 157 165 166 167 193 153 138 157 133 315 323 291 132 135 149 314 309 310 299 276 298 294 274 291 302 292 297 298 291 268 283 278 247 262
275 264 255 224 201 196 241 132 142 244 146 139 151 161 160 178 224 129 138 138 129 132 133 282 124 140 301 333 316 292 304 292 300 296 287 301 310 286 283 289 299 271 280 283 263
260 252 240 215 219 240 202 213 133 161 155 125 144 167 266 175 146 131 148 131 164 123 139 308 128 177 148 141 262 312 305 306 301 300 300 270 291 303 284 283 284 289 309 285 280
254 208 206 220 239 246 233 217 142 148 134 158 173 163 165 175 159 140 145 162 251 265 155 259 169 166 146 223 137 321 314 317 290 289 300 296 297 288 276 285 292 287 291 291 306
237 232 229 200 234 231 211 142 158 152 152 142 156 177 174 184 170 127 187 109 128 157 126 116 244 210 228 138 131 253 127 236 244 266 268 247 250 265 322 323 310 298 293 296 301
173 227 175 238 238 213 185 142 140 171 141 151 162 142 160 168 173 211 137 218 146 136 103 150 198 138 124 150 213 228 219 225 134 232 237 244 249 258 266 263 257 289 339 316 316

GFSSW_2pvu_pres_084.txt.gz
Presure
199 200 206 216 209 214 182 157 129 134 142 143 169 120 122 116 117 117 112 109 123 136 131 123 153 125 146 156 115 248 140 154 127 158 185 111 117 113 93 102 115 114 88 95 98
245 229 229 288 290 251 252 128 128 186 135 132 134 127 128 125 126 118 128 117 134 129 136 147 149 142 143 146 148 132 149 146 162 141 127 128 113 102 105 146 109 114 127 125 160
272 205 207 192 203 216 173 170 285 249 154 140 149 147 115 119 117 118 109 126 133 131 137 150 156 125 104 222 126 151 154 99 164 207 161 143 108 120 127 121 120 106 142 146 100
254 261 264 275 213 266 269 310 312 199 168 148 269 143 162 109 116 119 120 136 130 132 142 143 143 159 152 149 154 160 143 162 151 182 256 110 182 69 118 119 135 148 132 118 123
245 245 254 267 272 253 267 261 297 296 260 197 144 276 150 266 115 117 118 135 136 133 145 133 107 136 127 151 149 155 131 161 207 166 173 292 225 123 149 150 133 128 90 126 131
246 238 244 254 258 266 250 231 305 295 298 231 181 208 167 209 118 121 135 140 126 137 147 96 206 187 182 142 160 170 172 190 243 186 181 246 209 123 164 126 132 138 133 135 127
243 247 248 255 262 266 270 294 281 308 262 309 286 218 235 156 121 135 138 137 123 138 148 148 156 147 132 159 172 161 266 185 279 197 209 121 146 121 125 149 145 143 155 165 146
263 260 256 262 272 271 281 286 291 279 221 298 236 145 317 307 127 150 114 236 151 134 280 149 127 149 220 173 178 171 152 163 160 165 136 153 137 136 125 146 151 66 121 128 133
261 273 264 271 265 277 279 281 228 318 314 305 244 133 267 151 151 137 125 130 153 147 140 131 195 172 239 211 187 142 145 155 182 143 139 130 113 167 145 140 136 157 159 139 129
271 271 276 280 278 277 291 289 294 323 311 292 315 325 298 148 157 249 139 141 160 132 135 157 159 174 179 156 161 150 142 167 153 147 145 131 144 139 138 149 165 147 146 137 170
291 298 292 293 284 285 291 292 301 329 317 316 289 328 269 152 153 127 133 141 139 148 136 159 180 229 155 151 184 181 202 247 239 424 440 462 150 144 142 141 330 201 132 151 174
330 304 316 311 305 302 299 307 328 320 316 303 243 186 137 149 130 137 123 149 180 154 258 179 147 140 141 155 178 385 407 434 433 433 442 449 432 358 341 373 326 313 313 343 324
411 402 397 388 369 334 331 330 341 318 322 337 217 256 146 143 146 140 136 152 191 161 157 148 153 144 195 370 371 365 375 413 411 407 414 440 379 336 363 347 308 303 321 316 290
431 415 406 403 405 387 377 288 353 316 337 263 281 152 155 135 150 142 114 156 200 170 162 158 252 348 358 342 212 336 123 394 402 384 359 348 349 343 358 315 296 294 309 286 273
457 453 416 405 207 405 384 378 342 285 237 106 132 125 134 154 132 143 159 188 177 149 165 159 350 351 354 354 120 123 346 334 335 335 334 343 333 338 309 307 308 314 323 282 241
460 461 439 414 412 360 377 310 173 288 258 266 148 143 152 138 144 162 157 192 136 136 222 347 353 340 346 345 346 339 337 319 324 335 331 333 306 294 297 293 298 283 252 255 254
421 479 438 414 387 349 357 295 222 268 125 147 128 150 151 159 154 192 172 153 160 309 374 353 366 359 338 356 329 323 330 317 332 325 306 296 291 284 283 291 284 267 252 268 261
415 467 433 284 343 320 298 283 281 286 148 130 123 192 167 149 174 319 167 178 176 396 188 355 358 345 329 329 333 318 320 330 302 295 279 281 289 281 273 291 286 268 271 256 242
337 306 290 323 308 277 228 149 244 211 147 130 206 152 154 158 337 141 151 168 238 330 158 365 302 322 327 327 318 297 314 298 283 280 292 284 280 278 272 278 290 297 245 252 225
317 315 281 289 255 264 255 259 184 133 142 138 152 137 152 189 157 136 138 166 147 302 244 152 318 321 315 332 301 298 282 272 278 276 292 283 288 274 278 281 285 316 251 245 240
291 256 207 263 254 249 230 165 319 209 164 167 161 144 172 176 279 137 154 144 149 153 148 150 152 320 310 285 267 283 290 288 291 278 277 275 280 294 285 282 301 287 255 244 240
262 252 244 242 276 337 132 114 307 151 177 141 155 161 181 314 139 173 143 178 155 139 138 152 149 160 157 213 328 302 270 250 262 285 289 289 272 285 284 292 296 320 269 231 225
251 274 254 279 201 240 232 119 115 207 151 150 135 197 338 154 136 154 132 140 144 123 163 173 156 154 288 154 304 329 292 281 267 283 277 261 287 292 320 277 278 280 304 269 233
268 306 279 204 267 246 177 283 181 153 142 145 129 172 219 156 132 156 135 132 140 130 281 132 253 225 220 149 316 289 281 239 290 296 293 288 279 278 291 310 291 278 286 297 285
254 222 237 267 225 204 178 211 196 147 137 142 176 163 231 166 169 128 246 129 121 179 128 236 136 133 119 180 196 253 147 263 263 261 270 267 276 320 315 302 298 311 311 296 274
223 203 245 254 253 140 206 254 136 150 140 187 176 163 194 175 159 184 171 134 119 126 111 144 125 144 157 178 135 246 152 242 203 229 243 251 250 250 272 277 269 321 322 329 326
175 239 248 216 233 195 196 198 130 152 126 154 189 183 168 181 196 181 173 175 117 153 109 114 117 129 218 169 111 230 135 244 226 165 238 212 209 241 239 255 262 260 266 262 278

GFSSW_2pvu_pres_087.txt.gz
Presure
193 158 207 227 157 213 269 214 224 215 219 139 197 158 153 127 126 146 113 134 144 137 149 121 117 118 108 122 143 134 163 159 139 184 162 110 191 160 106 123 105 127 135 101 120
234 227 219 235 243 221 206 275 204 247 224 223 171 143 190 146 133 145 144 123 133 145 139 129 125 148 148 135 157 146 124 167 139 165 177 153 157 101 127 94 140 108 115 102 84
258 206 216 199 242 252 245 253 261 255 269 244 126 134 130 146 147 146 163 141 121 122 117 113 126 126 143 132 154 133 121 149 150 152 171 165 177 210 154 193 98 128 91 105 125
230 261 212 222 220 251 250 233 260 257 267 279 224 220 134 134 146 146 134 123 138 120 120 141 111 131 139 151 158 125 128 144 117 142 141 149 160 101 139 137 149 104 129 138 122
220 249 221 199 202 248 253 230 249 266 267 265 234 166 286 284 141 143 133 127 117 119 115 124 139 140 199 141 155 142 124 126 142 102 95 99 136 145 155 156 98 120 129 132 127
255 275 271 195 219 262 250 257 259 239 258 264 268 283 285 295 315 315 142 125 122 125 126 131 145 137 160 153 152 131 120 118 133 142 155 151 158 171 163 162 129 80 149 122 130
287 290 276 263 251 250 256 254 251 257 264 264 271 278 298 315 319 301 168 119 120 127 126 143 162 145 115 101 114 111 198 149 142 150 148 158 151 144 255 268 160 108 242 171 131
296 288 283 273 265 259 256 260 255 256 262 259 278 283 305 299 310 321 191 149 130 126 130 186 129 102 143 130 110 162 99 95 149 152 163 164 153 143 221 171 185 275 191 155 141
298 295 292 287 278 264 259 260 259 264 266 267 276 296 205 234 269 269 157 148 164 123 238 116 144 133 148 153 156 132 133 142 161 208 165 226 102 255 306 209 279 190 251 152 153
309 299 307 294 292 280 270 269 267 279 276 289 301 305 289 175 274 143 125 166 149 182 162 155 149 143 153 132 132 158 164 162 174 200 182 169 199 142 188 263 251 174 139 135 256
377 332 315 320 300 299 270 275 274 283 291 282 303 298 300 329 122 138 321 185 223 130 137 132 149 154 175 148 161 168 278 445 284 189 189 229 156 178 168 147 137 93 164 161 127
372 372 380 333 321 306 295 286 279 278 281 295 216 301 313 147 176 321 285 141 131 141 146 136 167 156 340 158 178 359 227 150 145 136 151 149 148 147 145 136 137 140 139 154 136
448 432 384 366 400 321 307 308 297 291 296 302 303 308 339 217 264 118 124 131 147 143 119 214 152 156 271 225 153 155 146 157 171 175 150 296 162 158 258 155 158 149 147 143 139
416 429 444 396 347 393 364 324 319 320 301 310 309 323 317 119 130 124 130 153 139 148 132 162 293 221 162 152 151 164 328 353 346 402 411 425 430 464 374 313 361 369 322 164 146
434 452 455 409 392 397 377 373 360 287 306 307 329 330 175 272 161 215 139 152 120 144 161 209 159 150 150 168 344 332 345 357 196 371 128 362 405 414 354 346 371 360 333 323 321
398 410 466 416 389 395 399 380 380 368 358 349 128 262 267 233 138 140 148 144 154 170 181 158 216 209 271 217 335 323 312 193 288 332 329 328 326 335 337 353 350 307 303 313 343
391 416 444 402 404 405 395 232 293 364 203 298 193 141 161 135 147 215 121 300 185 168 142 349 349 348 333 340 333 315 325 322 316 330 343 329 306 358 363 329 305 291 282 318 308
414 459 420 245 119 382 298 366 349 202 248 258 149 143 138 137 145 148 224 181 152 311 178 154 339 352 330 344 323 326 321 339 303 294 296 296 309 319 298 291 290 299 303 287 279
439 411 386 376 191 139 324 318 199 151 243 242 147 124 119 159 151 196 173 163 170 213 326 279 304 330 322 341 330 317 310 295 296 293 286 295 299 297 282 282 291 303 278 261 259
358 368 348 338 324 300 272 250 194 138 149 131 247 144 162 155 188 167 265 156 165 191 139 165 152 171 336 317 317 302 298 276 274 291 284 288 285 292 283 288 280 275 257 256 235
256 254 261 260 205 238 200 168 199 150 142 130 136 145 127 184 173 158 144 198 126 209 149 183 251 154 170 320 226 282 283 290 300 268 291 287 281 286 279 268 266 283 251 256 245
279 240 252 246 286 216 287 152 198 134 154 151 154 139 287 292 169 163 316 284 131 143 147 212 159 148 266 276 277 305 270 289 302 286 277 291 302 288 294 217 268 296 260 258 247
328 324 208 355 349 333 176 184 195 140 144 135 153 133 298 166 232 176 137 136 120 252 130 124 324 144 159 266 214 245 275 287 280 270 275 273 274 301 287 196 263 269 258 252 245
355 220 254 295 385 276 126 195 140 152 148 138 133 163 165 170 182 141 240 136 125 136 123 117 132 111 136 278 150 266 213 248 294 296 286 273 280 294 290 289 283 186 254 259 247
277 322 252 212 339 148 131 128 135 153 151 133 188 169 167 157 146 160 137 183 127 122 119 121 111 102 259 115 113 127 146 255 220 281 197 183 180 293 309 290 300 286 263 259 239
236 257 250 258 136 227 188 175 140 131 133 176 162 164 175 240 195 140 250 174 159 131 125 119 120 134 242 136 97 137 134 269 252 244 247 142 127 263 344 327 321 312 316 255 260
217 251 226 246 204 248 156 142 138 131 130 169 171 176 174 188 183 179 217 222 197 180 164 182 175 128 115 175 134 158 158 170 233 166 156 143 131 137 260 131 268 273 287 304 276

GFSSW_2pvu_pres_090.txt.gz
Presure
228 231 237 228 234 224 235 241 251 210 266 182 181 178 199 185 168 138 138 151 153 162 120 132 141 120 130 125 114 108 112 146 153 192 136 129 186 128 145 221 169 197 177 159 114
217 229 244 213 242 243 232 210 217 239 246 216 168 174 182 238 168 189 154 178 166 135 149 132 122 125 127 130 120 131 112 132 157 177 124 141 139 153 145 144 163 165 143 110 104
148 225 232 243 216 203 215 243 254 247 210 221 228 218 185 290 283 196 231 162 129 129 151 126 128 135 126 135 125 120 120 131 137 136 127 152 171 146 157 147 162 134 167 176 100
228 231 194 242 243 240 202 195 251 225 265 260 250 253 268 259 277 243 261 149 145 125 155 130 138 134 142 133 128 140 127 110 140 145 138 111 152 135 68 129 158 90 101 103 84
220 237 224 213 229 251 223 237 211 228 221 234 247 231 246 271 271 280 208 247 149 131 150 139 145 134 139 151 122 132 129 121 159 140 171 142 143 145 142 180 148 141 144 128 141
247 257 252 251 255 223 244 261 252 253 223 276 230 219 257 264 265 283 288 150 144 265 147 135 134 125 138 129 142 129 146 120 140 172 135 174 222 141 143 112 250 147 162 152 149
274 279 280 279 266 266 276 281 277 248 224 274 264 228 255 274 253 146 145 274 217 152 152 140 122 141 120 132 135 141 127 132 155 240 137 127 129 104 84 101 127 79 186 133 151
343 319 324 318 298 286 286 287 296 257 280 271 268 229 276 269 268 278 250 148 227 133 135 133 129 127 130 133 139 136 125 124 147 104 189 129 279 157 161 156 140 152 210 167 231
391 356 331 326 320 306 298 295 289 283 279 272 270 263 266 273 277 281 278 285 320 276 235 132 138 132 126 188 324 160 116 143 125 245 163 140 138 140 141 108 154 157 156 159 174
436 390 373 335 318 317 301 281 283 279 278 271 274 265 261 268 266 278 154 292 305 341 141 130 139 132 154 153 153 127 140 142 145 118 156 160 122 138 147 151 151 152 159 152 149
426 436 429 373 346 306 304 280 286 275 276 277 271 280 271 269 280 289 269 297 155 158 128 329 141 119 118 125 142 140 139 157 159 152 138 142 140 149 160 161 158 151 160 169 254
415 408 405 427 375 340 300 293 290 279 274 275 282 279 285 283 282 304 280 297 236 152 138 183 213 167 128 139 148 147 151 159 142 218 154 163 163 160 161 165 160 176 231 169 259
407 420 402 400 380 365 333 299 294 291 284 279 287 283 154 283 290 294 286 306 127 168 107 150 125 142 152 152 155 265 155 360 156 160 156 162 269 161 207 178 291 157 138 133 180
415 437 434 396 376 386 354 331 302 303 301 295 293 294 290 299 301 305 124 218 160 256 137 133 143 149 136 160 317 156 158 160 161 190 190 186 181 179 177 160 180 154 182 145 149
406 415 438 414 394 350 376 369 333 309 304 287 293 300 289 300 206 208 326 149 123 125 132 141 150 154 151 166 336 195 149 181 167 140 164 160 157 157 155 174 163 154 152 157 175
394 410 471 408 395 373 353 363 390 334 313 303 190 277 297 303 118 118 118 182 142 150 156 153 194 221 169 180 168 156 160 243 214 325 332 262 195 341 346 348 361 366 375 350 223
405 450 461 404 394 370 380 361 368 373 348 247 312 182 213 276 151 187 133 137 145 141 146 160 285 163 257 206 339 329 300 304 312 309 303 311 319 354 336 341 337 346 364 351 337
477 441 407 414 331 361 362 388 380 350 361 355 246 158 244 271 131 137 148 157 145 332 364 152 343 140 158 335 316 303 313 291 292 301 283 285 309 316 356 366 341 337 345 330 316
369 409 314 174 355 148 353 340 142 313 175 226 242 190 141 141 129 127 144 215 170 192 327 308 308 159 320 142 304 299 291 294 290 295 277 289 308 321 316 298 301 292 294 293 319
297 209 322 319 154 316 103 146 284 250 224 148 130 131 155 153 160 252 333 168 224 297 335 156 137 146 175 295 261 295 285 280 295 273 290 285 288 305 286 280 293 284 286 283 278
260 253 207 257 248 151 242 236 243 124 130 129 147 145 156 172 251 242 186 241 142 181 129 129 187 151 299 171 275 299 286 276 290 302 287 285 282 281 271 268 261 269 267 270 260
159 228 293 286 190 183 257 135 149 143 119 137 144 148 137 138 181 157 183 148 233 146 136 141 145 114 155 284 215 283 284 293 270 128 296 297 277 271 251 265 271 263 256 274 259
377 283 344 340 304 352 146 192 175 142 131 150 169 158 279 322 239 308 147 132 130 129 130 116 118 110 242 131 123 234 278 279 281 285 281 294 284 274 269 273 255 249 201 260 272
431 424 379 413 273 146 130 131 143 134 142 181 139 128 255 256 151 156 147 142 130 156 241 189 131 118 121 113 269 285 216 244 292 290 286 291 299 288 287 271 264 275 225 257 263
182 215 182 178 181 139 180 140 140 154 134 130 232 166 162 231 156 176 151 134 211 131 126 125 119 117 142 142 113 139 176 150 148 268 141 137 172 313 293 280 271 289 266 249 264
196 230 196 198 132 165 126 141 135 140 162 172 198 181 193 208 159 258 147 165 164 145 127 179 124 122 120 187 174 110 139 111 248 126 238 216 118 334 351 118 128 293 243 274 267
187 188 226 146 236 202 140 135 138 128 135 184 163 169 185 243 204 182 164 217 217 173 181 225 194 140 180 142 118 118 153 138 201 165 148 150 225 159 137 279 288 301 319 314 270

GFSSW_2pvu_pres_093.txt.gz
Presure
236 213 245 221 238 235 222 216 219 235 253 251 239 197 193 179 189 154 202 150 132 124 142 191 125 122 126 146 135 149 152 126 121 144 135 144 129 98 137 145 151 127 202 115 118
208 228 229 212 233 236 227 214 237 240 213 207 219 227 214 240 175 185 193 190 191 166 139 140 133 113 136 127 147 144 131 141 112 126 132 117 160 159 120 164 161 165 195 187 149
233 230 241 250 227 239 223 220 237 226 246 241 230 243 233 249 211 270 133 184 191 202 151 195 150 156 129 127 131 145 133 130 130 138 125 133 141 152 140 139 143 158 138 169 205
256 243 250 245 237 235 227 192 239 237 173 228 233 219 218 228 227 249 251 250 187 204 146 134 162 191 155 146 149 133 141 124 132 134 138 139 122 150 165 147 143 151 130 150 163
273 270 264 245 245 239 245 164 221 212 248 211 214 241 233 249 271 244 241 239 256 188 184 187 184 304 131 153 192 139 140 127 127 122 127 126 127 133 131 179 139 148 192 112 154
274 258 280 270 249 241 243 208 220 246 230 216 242 231 210 232 235 210 241 283 267 239 236 243 278 131 257 157 142 134 142 139 132 141 125 127 136 133 150 133 148 138 183 139 188
364 300 275 266 277 271 264 252 245 232 256 217 224 251 233 245 221 216 215 224 233 266 280 291 270 144 136 157 135 132 136 145 144 120 141 129 130 123 145 155 147 164 153 151 124
375 376 377 285 295 264 276 271 249 251 245 249 252 241 213 262 223 266 289 270 249 237 296 145 239 152 140 166 143 159 141 135 129 151 126 133 122 124 170 145 103 135 111 140 140
387 371 397 307 339 325 278 282 282 275 266 267 261 247 279 265 294 285 239 275 280 163 285 286 195 153 146 150 152 143 134 143 135 135 133 135 143 133 159 137 156 131 123 144 163
439 457 467 459 392 339 349 336 320 312 304 297 300 293 288 295 272 285 280 135 271 176 175 143 243 150 151 159 239 126 130 128 126 133 303 115 296 131 157 144 139 165 125 150 147
409 416 431 437 430 393 364 341 324 303 299 300 294 300 296 291 288 280 282 164 279 174 149 142 136 144 163 159 117 119 135 139 131 151 312 139 139 149 147 66 156 138 145 134 158
395 416 410 419 419 374 379 350 312 296 302 302 299 293 285 287 281 277 277 275 281 292 183 310 325 148 164 157 169 118 375 154 249 135 138 144 150 156 156 156 160 160 158 153 156
417 406 409 403 399 369 371 344 316 307 297 297 296 285 285 283 276 278 284 284 289 295 309 324 220 204 157 147 154 243 246 152 140 155 147 141 155 159 158 158 227 240 149 152 122
400 444 404 398 390 369 356 338 312 297 298 297 290 282 283 277 278 283 288 298 287 310 318 148 143 163 160 174 145 192 140 141 138 147 149 156 154 159 153 157 157 161 164 158 161
404 439 397 387 385 371 348 345 317 307 300 288 285 289 279 286 288 182 124 184 310 276 261 174 224 300 147 141 150 314 153 150 159 165 166 158 300 368 166 161 144 157 158 158 303
420 438 392 379 379 365 362 348 340 314 290 293 295 290 295 303 306 295 203 133 176 223 173 344 145 133 147 155 157 158 160 165 169 171 188 167 158 140 145 181 186 184 170 190 180
470 407 374 369 366 366 369 369 345 326 315 294 276 305 308 307 300 274 195 273 142 137 145 154 230 163 154 157 223 264 310 234 174 172 170 166 163 162 163 159 159 157 160 159 156
388 373 349 368 189 368 215 371 388 359 310 129 207 306 156 236 118 176 285 164 184 142 147 153 159 292 306 152 226 309 311 307 293 293 308 322 321 323 328 354 354 366 365 367 361
299 357 378 395 391 387 385 387 346 391 314 325 294 259 318 135 273 146 141 140 154 153 315 321 199 149 162 141 300 297 286 287 300 309 310 299 307 299 308 307 305 312 308 307 326
274 167 272 309 310 315 336 315 313 112 241 200 143 175 137 131 142 146 154 153 201 161 320 323 161 145 143 208 243 295 300 285 295 306 298 288 280 283 292 303 295 283 290 287 297
273 151 305 293 285 211 198 187 156 142 138 138 135 145 166 155 336 277 178 213 151 206 306 162 129 133 139 135 270 283 288 294 283 294 279 269 270 275 283 281 264 278 272 277 269
191 125 402 328 187 143 136 129 130 119 135 150 147 137 139 181 179 162 158 285 140 131 302 167 121 147 130 123 180 123 278 120 290 290 274 125 286 289 267 258 265 287 279 256 257
172 260 169 129 132 130 136 152 128 133 147 158 190 142 187 167 156 169 165 243 262 160 259 140 119 123 254 117 148 121 284 284 289 294 281 264 274 276 277 266 217 278 265 262 262
173 104 150 168 224 258 130 132 135 156 193 166 132 172 248 179 218 318 146 174 137 211 133 124 221 123 115 114 117 158 110 171 269 205 210 284 281 281 270 271 270 280 253 262 256
189 184 216 171 147 148 144 141 139 131 154 158 337 334 174 162 204 242 146 232 157 130 151 133 141 121 125 206 148 156 147 160 123 157 137 108 149 185 282 276 255 276 272 274 268
188 199 156 171 141 135 149 249 155 135 180 187 208 255 250 171 258 254 241 160 190 267 242 222 134 154 190 147 138 150 139 168 120 165 164 145 138 216 252 140 274 290 265 250 283
191 191 174 132 139 141 133 156 165 163 172 151 243 173 209 179 163 184 221 184 171 199 199 216 238 236 196 186 168 172 193 124 112 171 186 151 136 252 143 150 116 306 288 236 125

GFSSW_2pvu_pres_096.txt.gz
Presure
182 242 209 222 222 210 228 189 240 213 196 227 222 223 226 221 207 194 190 172 174 176 139 118 141 135 144 131 115 115 131 115 117 159 142 151 145 157 141 97 152 171 215 167 147
242 231 252 211 220 234 216 219 225 225 225 238 211 231 231 230 233 215 214 213 168 179 178 152 122 189 165 146 136 110 116 150 170 109 139 132 132 138 135 154 175 134 163 180 97
331 349 268 249 253 232 223 210 230 218 244 205 230 235 216 223 237 257 241 234 231 134 221 194 159 124 132 143 161 132 135 141 132 144 149 126 139 181 127 130 129 134 148 195 210
293 278 332 215 256 243 243 231 214 230 229 242 225 233 243 234 220 227 241 251 269 183 248 179 153 135 189 108 136 138 136 136 136 138 141 129 159 103 132 140 140 134 206 178 136
394 352 315 319 256 242 247 246 242 231 223 217 244 216 211 242 242 244 236 214 220 216 162 213 279 196 115 142 178 155 133 161 166 135 138 139 133 131 140 135 148 132 180 160 149
376 372 332 320 291 271 262 257 250 242 245 225 237 232 234 228 246 222 227 234 250 234 254 211 279 267 185 287 142 168 142 133 160 133 149 131 139 135 143 148 131 157 148 128 144
377 369 362 321 315 282 269 252 258 264 255 243 245 219 224 233 237 243 243 258 250 243 230 213 145 246 249 251 147 251 160 163 158 154 147 141 147 126 142 132 138 134 135 129 166
385 377 372 363 326 311 286 265 253 261 266 256 247 243 234 187 215 252 219 232 260 236 228 222 238 269 251 273 304 261 159 176 216 381 141 135 150 148 136 143 133 134 135 132 136
439 395 390 376 341 320 315 285 219 261 271 259 248 234 214 245 244 220 255 226 230 246 273 231 278 235 231 236 174 236 190 217 157 160 146 140 151 156 151 134 139 132 125 123 142
437 419 419 465 384 382 326 314 293 273 274 265 256 250 245 244 249 247 246 257 225 252 236 287 305 285 144 297 174 301 149 154 189 132 138 153 128 136 139 124 124 127 116 134 118
393 403 426 442 438 379 391 385 313 273 285 272 267 261 253 256 262 254 252 251 259 269 302 133 294 287 294 296 302 168 190 145 142 161 145 139 139 144 118 133 112 146 133 142 169
418 413 419 447 405 402 357 390 389 317 299 290 276 262 270 272 269 271 272 274 290 310 304 297 295 295 151 295 262 303 154 145 132 122 127 135 142 112 130 133 113 130 133 143 158
431 421 419 421 414 387 381 321 327 352 330 326 323 310 268 267 293 310 302 308 303 300 296 293 292 159 210 150 181 226 139 165 150 131 145 158 151 140 135 277 254 150 150 151 148
456 421 401 359 339 366 335 347 324 318 312 322 314 323 312 311 306 303 299 293 296 286 287 295 297 144 185 147 274 247 291 148 301 152 175 180 152 140 140 156 138 139 137 159 165
419 391 383 350 350 317 328 320 315 315 322 307 317 312 320 306 301 292 290 288 290 295 276 303 232 159 276 112 122 335 164 169 154 186 185 141 178 134 161 155 146 146 378 148 149
421 382 362 360 355 329 328 320 317 320 315 306 303 303 308 242 293 296 294 297 298 309 324 177 268 293 284 153 301 194 207 148 145 153 150 155 159 154 152 151 154 158 156 155 155
404 387 359 356 358 353 334 316 322 312 308 292 307 303 303 296 187 132 306 312 313 236 265 183 363 144 213 137 139 144 156 159 160 161 159 159 161 164 164 167 135 147 294 146 141
403 388 374 370 357 258 342 321 317 316 316 309 309 311 306 308 135 313 140 132 136 139 142 333 321 315 168 157 153 166 174 284 288 303 202 284 256 295 309 314 216 189 182 192 192
301 289 123 384 388 386 371 331 141 325 319 309 312 280 234 266 141 155 316 326 267 137 146 155 158 171 272 286 213 149 183 223 283 300 292 303 289 297 310 309 314 315 270 187 185
181 273 250 249 137 231 155 174 268 298 231 191 208 123 232 334 290 138 140 146 153 217 301 302 274 230 145 152 137 216 295 282 288 288 299 285 285 278 285 290 293 287 295 293 302
239 367 219 299 210 137 171 124 138 137 136 141 146 144 144 147 197 154 160 164 257 152 297 119 167 128 133 125 148 249 135 280 189 280 275 269 285 285 274 278 289 278 280 288 281
140 355 143 134 140 137 133 136 148 151 146 133 146 135 324 165 321 325 323 164 209 302 153 122 283 133 134 137 125 123 276 119 231 144 293 289 271 294 281 266 265 282 218 268 273
173 133 125 139 138 132 134 139 190 341 181 137 190 220 166 168 157 175 331 174 151 244 160 138 242 135 125 121 120 129 157 140 240 165 181 285 259 286 246 276 270 275 266 269 255
165 128 143 139 132 162 132 184 153 163 161 162 166 245 249 301 204 157 135 198 185 125 151 186 206 126 133 169 119 129 132 305 181 203 207 247 223 201 256 242 262 267 268 259 243
237 150 159 134 117 142 154 136 129 149 154 249 214 168 176 158 197 180 151 144 134 227 165 153 203 151 161 131 139 110 158 120 160 144 139 108 111 147 158 287 242 253 205 274 255
220 126 204 145 159 188 149 146 143 180 196 177 214 223 185 195 241 167 184 159 175 178 238 228 163 210 231 139 207 251 177 228 240 160 240 119 152 144 118 267 148 118 269 279 149
227 132 126 133 142 128 146 187 172 181 194 153 176 180 165 175 182 178 164 168 210 195 185 178 187 175 184 185 192 218 180 166 189 200 195 146 161 163 208 125 217 186 114 109 241

GFSSW_2pvu_pres_099.txt.gz
Presure
274 273 243 284 275 247 204 184 150 184 179 237 217 244 231 246 225 212 218 183 173 184 171 176 177 119 130 140 138 124 121 123 131 128 164 102 125 139 178 124 172 168 158 133 165
244 223 266 243 249 268 265 213 195 153 210 222 242 214 244 229 241 250 234 215 227 169 171 173 171 129 131 136 136 139 131 145 133 147 135 140 163 164 161 146 135 114 151 123 80
263 256 241 253 243 222 204 228 255 209 217 221 231 234 199 235 217 243 192 249 247 218 224 212 198 175 130 130 134 141 192 123 118 137 130 140 139 163 136 136 164 155 157 146 131
304 244 269 255 256 263 248 210 229 254 215 228 208 228 225 235 228 226 213 228 241 263 262 228 212 181 193 121 123 142 149 126 175 133 111 132 110 137 132 128 113 138 141 148 150
298 269 274 291 276 280 261 252 260 220 250 225 232 215 217 224 238 245 236 221 231 225 239 242 238 236 191 207 117 144 140 189 126 123 117 129 145 120 123 137 152 153 120 131 114
401 353 300 290 237 274 261 266 283 290 241 246 219 212 218 220 226 225 243 229 224 242 219 218 227 244 273 267 246 170 148 161 138 198 126 126 120 146 149 128 137 133 154 138 124
401 391 379 362 342 294 287 290 294 317 284 252 240 211 234 216 218 229 232 239 236 228 223 247 244 240 238 241 243 248 139 139 195 283 155 183 133 134 148 118 127 150 137 118 90
435 413 386 385 359 371 353 349 315 284 285 259 242 242 222 237 235 219 206 227 250 241 245 233 232 253 271 166 270 264 169 211 137 147 255 134 148 146 158 140 136 131 150 133 118
404 433 387 383 359 373 341 283 272 273 274 268 250 248 244 242 241 239 235 214 238 239 244 249 240 251 267 259 234 261 266 198 155 160 156 158 142 159 139 155 142 189 140 139 127
406 428 400 394 354 356 337 326 299 277 277 271 259 251 246 242 250 246 243 240 243 246 228 255 242 246 236 242 250 178 273 236 243 158 147 215 98 165 187 237 147 151 156 147 144
135 407 403 422 357 350 346 330 301 303 283 270 272 253 260 259 253 254 250 252 243 246 197 252 228 221 237 275 236 239 265 217 311 322 156 157 97 161 150 132 139 148 142 155 133
423 413 422 429 383 354 368 328 302 301 292 264 270 277 255 254 255 263 260 253 255 252 253 256 258 259 268 268 290 317 180 263 313 152 164 364 362 138 148 154 211 151 137 124 143
420 433 419 407 393 354 359 338 305 292 306 280 274 272 272 276 278 260 266 266 262 260 257 258 263 269 282 308 314 308 307 327 319 359 258 154 169 246 132 139 132 120 113 133 131
413 410 406 388 366 333 359 371 314 292 290 306 275 254 278 262 256 272 270 268 268 266 270 277 161 323 320 305 302 306 301 169 202 332 310 152 134 127 138 164 135 144 148 132 143
389 395 373 327 334 322 336 345 351 336 299 292 303 317 322 295 284 284 286 272 265 276 281 320 312 299 296 301 143 171 330 158 269 131 162 160 354 137 142 173 139 189 151 139 136
356 379 349 324 324 328 331 325 336 349 340 306 306 300 315 331 331 324 316 322 326 317 311 309 246 309 308 256 178 209 262 145 210 314 144 149 150 223 165 150 136 169 168 143 161
358 361 357 339 336 330 327 330 344 338 348 361 341 340 322 319 320 319 315 307 301 299 311 318 309 278 269 163 141 326 163 312 151 300 279 137 205 141 147 231 237 158 368 251 168
371 354 339 340 327 328 320 334 335 327 307 316 304 144 163 306 301 300 298 299 288 281 351 435 341 321 310 320 304 148 142 150 152 155 156 156 154 155 155 149 147 149 151 153 155
406 395 366 334 340 326 319 321 316 322 304 311 312 306 305 269 133 157 315 141 142 142 166 294 133 303 307 313 277 142 139 142 168 173 290 272 294 297 187 289 289 165 184 162 312
177 188 335 378 350 348 339 347 233 190 205 296 308 319 232 229 413 393 268 172 250 138 143 148 206 215 284 242 133 151 151 166 213 287 300 284 283 286 290 282 288 296 295 301 236
171 137 127 139 141 135 143 145 183 141 133 124 135 147 143 136 128 134 146 148 279 311 310 300 298 291 145 138 133 146 134 286 197 284 287 285 280 282 289 286 285 292 280 292 286
131 132 134 129 125 151 147 143 140 142 138 179 174 255 323 162 150 294 303 264 149 142 305 148 150 140 135 122 129 268 140 134 134 269 280 287 283 266 283 275 281 277 289 276 283
129 145 141 127 153 146 170 238 154 128 139 365 298 339 159 157 241 316 201 153 143 221 282 133 136 166 168 146 215 127 245 152 141 249 143 279 235 276 164 257 297 247 248 272 273
189 138 130 145 135 160 150 144 194 186 162 164 165 153 244 157 159 153 155 142 140 139 132 143 142 229 117 146 119 152 122 206 238 202 131 154 208 115 140 268 290 269 151 254 256
228 170 118 134 143 147 134 148 188 192 195 198 196 170 152 166 161 141 165 142 139 209 127 214 147 128 134 132 136 129 135 155 147 146 221 143 158 159 119 193 242 123 168 215 259
146 139 246 229 227 151 179 207 177 198 191 208 197 203 198 195 187 209 173 169 151 171 178 182 175 165 206 180 159 159 172 208 201 114 121 112 227 231 238 198 167 287 282 267 279
132 216 129 145 145 181 153 227 194 169 142 185 162 147 148 138 167 193 191 193 179 199 178 184 188 181 174 178 185 203 185 199 192 183 193 180 168 168 141 163 152 170 201 225 139

GFSSW_2pvu_pres_102.txt.gz
Presure
253 250 217 245 264 263 303 269 217 202 198 216 226 220 227 246 245 207 190 196 170 174 169 172 175 150 181 171 160 126 144 121 124 129 143 132 148 124 135 130 162 153 108 144 123
382 379 322 265 261 255 253 236 263 248 239 213 206 227 229 228 222 232 247 252 214 197 172 176 167 174 174 178 157 161 146 128 162 113 111 119 130 116 129 157 145 167 170 148 142
322 355 360 281 281 189 257 247 272 226 244 230 215 216 213 226 225 215 228 227 239 241 236 184 169 173 177 178 168 132 129 151 141 143 130 131 130 135 147 138 123 131 166 173 138
300 282 332 361 217 253 259 264 265 270 274 244 238 221 211 215 231 233 243 231 245 227 257 228 233 161 171 178 191 178 173 158 162 128 130 126 127 135 138 143 134 136 136 131 135
428 375 153 319 267 305 279 264 246 252 287 267 249 238 213 195 205 221 223 218 240 225 238 226 249 246 229 226 207 180 176 160 151 203 147 124 169 131 152 137 136 144 140 131 169
441 421 417 260 308 351 315 279 249 240 251 220 246 255 247 216 211 208 218 228 233 229 232 242 226 230 252 247 247 253 255 126 140 146 152 147 133 133 138 144 143 142 135 114 141
419 450 405 375 307 307 173 290 263 245 250 233 223 259 256 246 234 210 206 211 217 236 243 235 237 235 233 220 228 240 254 223 150 232 149 139 169 160 143 127 116 140 130 120 133
416 422 394 382 384 304 335 281 285 254 245 241 230 210 208 226 252 224 215 204 222 211 227 238 246 249 250 250 250 233 244 233 251 126 125 146 227 175 95 129 126 126 130 125 143
414 422 411 387 373 350 301 302 257 259 263 238 243 240 238 236 214 251 232 218 222 221 223 225 225 226 235 247 251 253 233 246 249 265 272 219 156 161 143 165 161 99 141 117 108
418 423 419 390 370 371 370 283 300 258 276 257 254 247 244 245 275 214 247 224 216 216 220 217 216 226 223 237 236 260 262 260 177 265 243 166 170 149 145 302 153 155 144 132 100
433 418 400 380 359 360 365 345 281 261 251 274 245 268 249 246 255 268 233 245 212 213 211 237 225 232 235 229 244 239 242 249 270 135 144 250 141 268 280 287 124 136 178 160 162
423 412 415 364 348 356 339 332 349 273 265 262 254 251 252 274 280 270 254 243 245 246 243 247 251 246 246 250 247 256 262 268 273 280 252 137 140 84 185 139 282 410 282 472 169
443 426 379 357 354 371 313 306 329 340 322 255 260 273 290 280 274 269 259 255 251 252 253 249 252 253 254 257 266 267 267 270 269 288 236 260 357 361 218 83 281 293 149 305 154
369 375 365 350 358 315 313 303 324 325 298 292 291 283 280 253 272 275 269 258 255 251 255 257 262 269 266 207 271 268 277 288 302 371 356 262 229 398 394 162 210 331 400 407 202
339 339 345 344 316 308 294 297 315 306 287 282 277 287 280 273 268 280 281 245 274 271 264 272 279 275 282 283 284 283 327 324 288 364 292 294 325 334 378 362 364 133 133 139 141
347 340 344 354 359 319 312 304 316 320 279 286 288 286 286 286 283 278 273 285 293 289 280 275 279 280 291 330 322 327 327 332 262 289 262 179 256 257 238 155 133 136 130 140 294
347 339 326 334 347 347 320 307 301 299 303 302 306 299 300 289 290 289 292 303 320 321 321 340 329 321 314 317 304 332 237 241 270 146 306 235 241 243 135 134 151 148 157 167 293
346 351 329 335 329 331 348 307 308 312 302 309 308 315 322 308 349 343 334 330 329 326 326 323 308 306 303 294 333 137 161 266 214 301 310 145 146 297 292 146 147 173 145 148 149
343 353 172 325 306 322 320 326 343 352 324 170 319 332 341 331 321 314 322 337 438 430 416 351 331 333 326 288 275 297 298 140 145 150 148 150 151 157 162 161 178 179 159 156 154
139 143 150 269 174 304 342 334 331 332 322 314 319 189 237 249 330 296 288 255 325 324 322 309 309 308 296 270 245 148 203 243 147 275 202 280 280 288 284 285 293 289 218 297 320
130 143 128 142 142 140 161 143 138 150 141 231 150 151 232 349 216 141 141 140 143 222 257 257 243 301 297 289 281 154 136 142 212 281 275 275 279 290 284 279 283 292 293 300 284
124 128 182 207 135 220 147 255 207 161 152 148 142 139 140 135 141 304 301 319 313 317 316 311 306 307 141 130 144 122 137 283 125 124 293 265 271 292 239 277 267 286 284 280 285
132 149 152 152 134 158 193 162 204 205 216 166 239 253 239 240 250 205 151 172 258 235 237 141 145 236 321 321 135 132 131 122 140 249 245 254 142 140 164 248 240 279 270 252 283
146 121 130 138 160 159 157 172 166 156 177 174 157 157 160 161 168 175 169 207 191 161 166 140 147 139 154 139 164 123 130 164 129 198 148 134 133 275 129 178 133 139 215 266 194
121 158 219 116 265 252 200 180 173 185 198 189 183 200 174 180 171 147 157 143 135 134 134 142 162 132 121 175 139 128 159 169 120 152 231 245 118 108 285 154 176 230 238 270 244
128 143 225 207 215 190 152 241 178 217 248 243 165 204 205 187 187 179 184 146 160 135 186 173 185 188 159 125 125 127 192 198 137 186 200 203 193 195 242 109 110 222 116 244 229
205 149 129 131 134 134 135 196 150 146 143 141 201 148 151 147 222 240 210 200 202 167 194 193 194 189 206 189 186 192 209 182 203 182 172 184 176 173 146 195 185 208 216 201 212

GFSSW_2pvu_pres_105.txt.gz
Presure
298 291 277 227 262 215 219 275 289 250 222 211 215 226 143 230 238 214 172 186 150 142 136 164 162 164 160 148 163 166 122 122 132 138 153 141 124 131 133 143 138 148 128 119 127
323 236 306 282 264 262 238 253 250 273 283 238 213 209 216 229 206 231 228 205 185 166 146 163 160 158 169 160 155 149 172 177 126 134 137 141 141 137 126 132 154 152 157 165 126
428 296 296 333 393 232 267 256 203 208 239 271 272 236 206 224 220 208 231 241 234 213 183 194 152 150 159 176 173 163 142 152 173 133 133 127 137 137 129 132 147 157 130 135 132
213 294 351 297 322 381 383 182 268 249 228 223 280 264 254 214 214 217 226 215 212 236 233 184 206 180 210 171 173 157 178 169 153 188 129 127 129 127 132 160 128 141 129 142 154
367 448 418 416 216 196 378 377 246 248 210 239 216 245 267 251 213 211 213 213 221 234 218 245 251 183 246 226 179 184 177 173 173 181 185 147 151 150 140 144 130 129 136 144 147
376 405 432 407 394 305 304 364 280 260 241 236 246 230 279 271 233 222 205 203 213 228 235 232 234 237 243 244 252 196 188 184 184 179 180 134 137 178 178 133 133 133 140 144 125
399 402 404 392 380 387 304 286 242 361 219 250 223 230 216 278 260 232 216 229 213 209 219 219 220 235 240 236 256 230 252 261 211 202 207 177 144 123 143 139 134 130 131 141 145
390 438 412 375 372 387 359 266 355 354 367 228 212 227 234 248 288 239 240 236 219 218 212 214 222 223 221 235 241 244 231 249 256 249 260 268 262 140 147 229 159 126 127 135 149
414 430 418 373 371 394 386 260 279 254 363 308 238 239 234 242 255 278 255 230 218 205 206 202 224 223 223 238 241 254 254 254 252 252 255 255 256 196 122 157 220 164 173 120 129
426 430 392 378 377 363 389 400 265 347 348 321 230 233 230 239 249 294 271 246 241 236 231 222 201 229 227 224 236 226 237 241 242 244 248 253 264 247 273 146 235 241 165 109 148
418 425 402 358 357 360 367 331 271 334 352 345 293 229 225 242 217 221 228 268 255 244 242 232 230 230 222 221 227 229 230 197 221 240 239 255 250 261 264 272 292 141 129 143 161
383 375 368 354 349 350 370 289 265 304 343 326 289 251 239 239 232 207 218 214 212 215 222 252 246 233 228 228 230 230 222 234 242 244 242 254 257 270 284 295 254 355 318 133 144
359 340 334 342 335 349 373 268 277 351 319 351 267 250 244 237 237 235 237 243 248 237 232 234 256 256 246 234 224 227 229 235 245 178 278 280 284 179 120 243 137 271 287 280 436
333 311 315 328 343 346 345 283 271 291 352 242 322 261 258 255 242 246 247 241 246 245 251 259 267 244 251 256 255 248 253 267 267 271 283 300 301 126 272 89 134 303 380 383 157
328 318 310 321 331 331 334 328 280 271 267 289 244 270 269 265 245 276 250 259 258 260 281 283 279 271 260 261 261 261 264 265 275 286 292 344 334 323 319 332 331 334 371 388 399
324 309 323 309 316 316 326 320 310 313 268 261 262 262 264 259 259 264 263 280 294 289 287 283 280 274 268 269 268 268 283 294 291 352 332 315 318 316 333 332 330 336 339 288 389
314 319 321 309 307 314 308 309 310 285 317 317 303 299 263 284 298 294 293 286 283 283 287 289 288 289 296 304 305 299 329 362 328 308 319 311 299 134 274 156 221 237 259 201 172
167 332 335 321 312 317 315 312 310 307 304 311 311 308 309 310 309 301 297 300 302 301 303 304 302 339 346 335 330 358 341 254 300 305 165 151 277 287 257 135 149 272 130 127 134
155 223 326 187 349 329 315 327 346 326 326 315 299 324 320 311 319 321 368 365 374 370 340 317 322 336 371 289 233 145 141 203 305 269 233 151 150 152 156 154 155 157 203 157 147
208 143 149 193 182 151 236 145 312 172 349 355 353 355 349 370 379 361 356 351 344 340 338 336 322 325 315 306 309 235 287 229 136 217 153 210 277 264 270 272 300 290 229 319 333
137 192 158 202 186 198 130 140 161 222 430 261 182 136 148 209 150 150 152 303 201 200 149 196 200 307 251 278 295 299 269 142 144 266 268 278 248 267 271 267 283 278 278 288 309
150 153 191 191 129 162 197 153 151 152 227 138 129 136 139 229 142 140 254 137 193 254 267 270 317 309 325 166 142 141 140 138 145 139 271 222 219 243 260 273 261 267 255 268 273
115 135 154 160 164 203 176 159 197 147 141 195 210 148 139 196 186 141 153 142 214 215 200 214 214 220 155 159 138 156 166 128 134 150 133 122 235 130 148 262 228 171 150 190 248
131 206 206 167 151 167 163 165 167 183 174 174 177 173 178 197 171 159 154 178 161 182 207 133 188 140 135 140 165 186 126 210 127 149 128 138 179 170 121 137 157 136 265 246 140
142 139 177 130 221 198 210 208 146 202 207 152 150 152 153 162 163 171 171 130 139 137 149 145 144 138 121 143 172 176 117 131 121 121 120 169 147 139 141 152 153 226 167 114 270
196 132 132 134 134 138 129 225 145 187 142 140 143 246 141 194 151 164 190 191 184 189 187 246 197 193 130 189 193 133 119 118 193 190 187 191 148 188 188 175 180 209 192 111 205
190 159 129 127 128 132 133 132 186 166 240 221 209 208 149 174 232 242 264 269 177 260 274 273 269 206 253 220 213 171 239 188 147 184 185 181 138 189 179 179 186 182 176 187 179

GFSSW_2pvu_pres_108.txt.gz
Presure
324 364 364 239 262 259 260 228 258 276 231 220 213 219 229 216 214 191 190 175 179 158 153 146 144 148 163 163 158 163 173 164 139 142 139 130 142 145 138 126 121 144 136 100 115
435 416 350 355 281 190 262 263 256 245 281 235 226 230 218 193 220 225 200 211 177 196 181 157 150 145 147 174 161 163 175 176 151 136 183 138 135 143 153 153 120 127 144 130 156
372 368 371 169 333 359 282 269 259 243 245 281 254 226 223 233 223 223 187 211 206 182 174 171 186 167 147 148 155 123 158 167 169 154 130 128 166 137 149 143 143 127 98 145 142
376 341 346 381 284 190 354 382 267 259 235 221 271 271 244 221 218 224 218 220 227 223 214 184 171 163 178 181 183 155 149 166 167 175 157 126 125 133 138 147 142 142 141 129 136
336 371 362 366 401 355 336 170 181 267 235 245 238 233 274 255 213 208 220 208 224 221 208 217 204 204 162 163 158 150 152 149 164 166 174 162 130 158 136 139 137 143 132 127 139
369 384 402 464 417 400 302 314 350 368 256 235 195 221 224 280 263 231 214 209 200 206 179 226 228 235 234 200 178 178 155 157 157 159 161 173 182 177 177 140 132 123 116 130 122
385 390 429 464 389 381 402 280 304 375 367 187 188 235 233 232 270 285 236 220 210 206 200 208 221 215 242 225 245 229 211 188 199 167 174 184 169 180 179 183 130 131 120 133 137
408 428 425 394 370 372 396 411 281 376 364 259 244 231 222 240 227 231 287 275 230 218 207 205 210 218 222 229 227 240 239 246 259 250 243 187 259 266 259 230 185 138 143 156 134
410 415 388 370 369 386 395 416 275 377 342 346 246 238 221 221 223 228 231 279 276 246 229 212 193 211 217 209 218 237 239 232 239 252 258 250 247 256 170 246 231 159 114 138 139
407 382 374 374 371 385 417 409 256 361 350 336 250 207 255 249 219 233 203 227 267 244 242 227 215 197 210 205 212 214 226 228 234 237 233 253 252 256 264 199 274 244 274 276 158
346 363 355 344 362 382 404 330 260 162 355 301 295 277 219 227 251 228 217 213 246 270 259 237 233 224 220 225 235 218 228 222 223 242 231 235 245 247 255 258 258 256 258 211 77
352 352 371 376 383 416 413 262 251 345 350 352 336 292 282 257 229 224 224 229 232 249 282 243 238 241 243 243 235 229 186 206 233 228 227 238 249 243 242 239 245 253 266 285 271
341 353 364 373 386 398 293 265 302 327 333 338 363 322 301 283 231 231 228 237 245 255 278 279 271 263 241 244 248 253 250 248 245 244 244 233 239 228 241 250 259 282 309 355 250
334 364 362 281 275 275 284 309 325 335 330 343 342 346 296 253 237 234 239 235 219 228 233 236 248 257 227 247 254 263 257 254 256 255 250 254 254 254 262 275 249 363 348 380 370
329 331 340 302 272 276 259 275 317 332 336 338 332 327 315 234 225 230 238 236 220 217 225 235 239 243 250 245 242 245 266 278 271 258 259 267 268 258 273 334 317 325 244 78 124
317 322 325 334 265 293 264 288 260 316 324 337 297 275 276 244 244 243 246 245 248 245 250 253 255 258 263 267 265 275 291 287 284 281 277 271 269 341 322 300 306 311 75 272 352
349 313 320 312 323 324 314 282 276 275 288 266 331 331 291 260 257 259 253 253 256 260 263 266 269 276 276 296 294 290 288 285 285 321 330 328 319 309 303 305 297 295 287 343 369
154 250 274 146 317 317 310 321 321 324 319 286 286 276 273 267 267 279 271 260 261 306 312 307 298 283 285 291 295 301 361 349 333 314 315 308 300 290 273 272 280 165 214 323 391
128 228 229 333 133 122 338 325 328 321 329 317 330 327 327 329 325 327 323 324 326 327 329 318 322 318 328 362 360 340 332 315 315 270 286 143 275 265 275 274 141 151 145 157 167
146 203 167 131 139 202 138 183 283 287 363 388 372 381 391 436 403 392 385 385 376 360 373 368 369 348 338 336 331 305 232 170 290 282 152 149 153 153 179 148 196 196 151 151 154
172 174 162 202 218 127 140 195 187 196 141 192 143 175 170 224 225 227 230 255 262 325 336 334 337 316 310 249 294 298 236 301 227 143 252 260 249 255 274 266 255 260 267 257 280
221 142 151 175 167 207 192 211 152 167 126 129 188 131 215 214 183 138 138 213 215 219 221 220 224 222 222 228 226 166 146 147 139 141 150 155 153 149 268 268 145 260 262 254 250
202 203 247 160 236 165 159 155 159 147 147 142 142 141 160 146 215 141 200 202 213 197 210 213 220 213 162 218 140 139 141 142 146 133 187 139 135 151 120 144 132 258 149 201 249
125 134 125 165 161 186 152 201 211 217 173 181 173 181 177 185 200 198 202 198 185 159 146 136 148 145 141 138 167 141 131 174 130 121 118 197 175 178 123 130 135 145 136 156 198
135 132 135 133 141 151 218 142 148 164 211 170 171 216 175 163 174 192 215 128 134 142 188 216 163 188 185 155 191 188 137 177 193 118 204 181 187 166 112 186 170 113 108 162 118
191 159 158 129 132 132 128 196 141 147 144 172 213 227 147 225 225 222 219 218 151 220 127 239 212 278 271 189 203 249 201 151 170 199 221 194 195 240 206 205 187 187 187 217 183
185 190 195 193 149 137 135 134 145 170 216 203 136 172 193 209 217 193 215 215 215 235 199 225 231 243 231 234 265 275 266 258 251 245 244 245 241 240 247 247 245 244 244 243 230

GFSSW_2pvu_pres_111.txt.gz
Presure
421 412 417 217 158 243 164 217 217 225 243 218 229 231 226 218 207 175 185 177 142 156 158 135 130 149 150 148 153 146 143 145 138 164 142 135 132 126 124 129 133 124 86 144 134
409 416 401 413 293 234 172 252 232 219 271 248 214 198 205 228 220 226 213 172 166 160 163 152 159 153 148 147 156 163 146 149 128 156 131 166 141 130 124 120 124 139 137 113 67
387 361 390 409 403 392 228 179 244 237 224 282 272 236 236 205 214 199 224 216 184 172 170 169 170 165 155 169 115 143 168 147 169 152 174 135 164 169 142 137 121 142 144 144 117
348 343 373 373 367 427 386 373 258 212 236 245 259 260 244 224 202 219 232 217 216 221 181 183 179 180 170 161 157 177 149 154 152 162 168 160 164 136 139 143 143 130 142 141 152
362 344 338 353 357 393 400 380 280 240 240 244 240 224 210 260 233 213 203 224 210 196 220 190 188 185 177 177 170 156 151 154 151 153 160 163 169 162 174 138 166 170 135 140 142
351 365 375 349 358 392 400 442 356 383 283 220 231 226 221 200 264 232 229 213 222 183 218 217 214 193 185 190 189 173 195 157 156 155 155 156 155 170 176 170 128 127 165 133 140
371 368 383 374 351 355 378 421 341 364 419 267 249 238 232 231 251 263 241 219 237 218 212 226 221 224 221 193 217 192 188 176 173 158 140 174 120 183 167 164 161 169 132 130 135
428 428 466 470 446 386 359 412 315 341 367 387 255 241 241 250 231 224 276 237 225 212 221 211 216 202 210 222 220 222 194 186 149 181 171 160 158 134 160 167 162 165 149 133 137
381 376 368 384 361 377 383 406 304 323 385 380 251 250 235 245 224 220 243 273 255 237 222 213 215 215 216 207 219 225 228 225 216 214 218 239 207 187 187 171 204 182 179 199 223
358 354 361 380 366 385 406 366 302 313 372 349 322 252 222 212 234 252 226 154 220 281 269 237 223 197 207 202 195 203 211 218 224 231 229 236 232 236 256 251 251 258 260 261 267
370 359 358 371 400 400 374 295 276 370 328 309 235 266 227 216 216 229 244 215 225 232 276 278 246 232 225 216 209 207 207 213 217 223 236 233 221 227 231 236 235 237 255 262 256
380 399 394 392 414 385 360 262 252 278 297 300 295 273 244 226 223 215 212 223 218 214 218 231 264 280 274 250 240 232 229 225 210 215 215 213 216 229 226 246 233 242 253 251 211
307 297 301 290 283 280 269 257 301 293 288 287 270 201 290 265 241 209 209 196 208 217 223 222 222 242 267 262 252 257 242 239 237 236 244 234 244 250 246 243 253 257 165 264 268
297 327 320 276 268 265 262 354 333 294 292 267 222 195 204 300 195 269 216 203 217 228 229 232 225 228 244 266 273 259 250 250 250 241 241 254 253 253 259 266 268 268 270 272 280
313 281 263 318 337 340 333 359 353 333 316 302 290 298 297 296 307 223 217 222 225 223 221 227 238 249 256 268 279 283 276 259 259 260 267 265 239 240 284 284 294 101 229 318 314
311 329 266 271 259 318 342 341 342 316 296 307 298 304 312 303 284 233 227 224 225 225 236 244 235 232 230 231 231 231 232 235 244 251 256 256 260 282 305 314 318 307 298 299 313
333 323 319 320 319 299 294 323 331 318 354 311 307 309 287 242 243 233 230 231 235 239 236 228 228 233 243 253 259 262 265 273 276 299 302 300 330 340 319 303 299 294 286 291 310
253 287 334 329 318 308 317 318 277 269 274 325 327 251 269 252 249 250 244 248 252 253 255 261 267 264 263 271 277 273 300 303 305 312 342 326 317 302 296 290 281 281 271 277 299
130 209 232 144 159 328 330 329 315 318 321 321 317 285 284 282 295 275 284 288 290 285 287 285 317 317 314 325 330 334 372 362 344 318 307 298 296 288 282 277 275 260 266 268 273
164 157 132 192 126 185 223 245 248 249 311 320 335 374 378 410 404 387 382 397 396 405 403 399 371 370 367 367 359 338 333 330 308 299 295 290 229 141 158 284 271 260 201 152 152
208 232 160 125 151 129 142 193 143 140 230 231 231 231 173 231 232 235 237 237 240 240 241 237 236 233 261 262 236 260 260 259 269 293 279 223 144 202 270 277 267 263 233 266 261
190 175 145 230 167 118 156 132 125 136 191 129 158 167 210 210 207 216 214 216 219 222 223 221 223 224 225 227 229 228 227 133 169 145 141 182 152 145 210 210 220 274 233 271 256
167 154 175 206 176 223 224 171 150 145 142 146 154 171 253 267 190 213 204 207 205 225 232 221 211 221 111 178 178 199 146 198 138 133 133 203 150 209 162 141 164 186 182 191 135
156 138 197 164 172 150 172 208 172 219 221 219 180 160 155 196 180 231 207 151 141 145 150 162 186 221 147 154 149 140 164 164 152 219 132 126 134 161 158 162 163 154 175 115 119
138 120 145 145 191 161 181 147 148 167 192 152 181 170 155 157 215 151 128 154 228 234 218 151 229 230 232 182 127 233 257 273 267 262 256 189 122 250 198 126 117 248 173 239 211
170 165 154 135 131 129 136 214 141 159 141 142 141 144 152 194 197 213 203 158 150 135 225 223 231 231 230 229 229 138 124 236 237 269 270 272 267 137 128 190 247 246 248 249 238
158 205 179 179 199 187 185 147 164 149 136 136 135 136 202 144 165 185 200 209 185 203 199 216 219 236 234 205 180 205 205 214 226 228 216 266 275 267 264 265 255 248 244 240 236

GFSSW_2pvu_pres_114.txt.gz
Presure
444 431 427 276 193 145 198 198 189 222 241 222 218 219 211 226 205 166 197 150 169 168 143 148 156 151 142 155 134 160 143 168 140 177 160 147 138 124 125 151 143 137 108 118 122
397 418 415 411 399 147 149 213 210 199 191 177 234 231 218 213 233 200 224 174 156 156 177 154 153 155 156 138 125 116 151 138 142 148 164 141 176 163 136 132 127 118 128 135 136
349 407 390 384 374 417 265 249 224 228 205 210 224 245 219 206 243 220 210 188 174 190 163 161 166 150 166 159 160 113 145 147 146 143 145 164 162 148 176 178 143 118 130 145 114
356 377 379 370 360 368 392 264 244 171 172 202 212 196 267 232 212 235 233 206 175 178 205 169 168 150 151 171 160 179 157 129 120 118 169 138 150 180 159 141 159 177 171 118 130
354 343 348 363 358 360 388 421 258 208 226 208 183 205 212 292 214 205 220 221 204 189 182 199 188 179 190 144 166 136 144 152 158 149 130 132 161 156 141 148 160 136 147 154 144
356 356 335 350 360 370 400 421 400 264 241 227 215 205 219 198 281 211 227 226 221 210 213 204 201 181 171 180 168 144 158 139 118 127 156 152 152 133 165 169 149 169 181 173 143
371 368 361 340 343 374 384 419 403 376 258 244 232 238 233 182 200 267 228 207 205 195 202 213 217 207 207 187 178 173 167 174 170 174 175 119 163 157 156 157 165 145 167 169 181
432 415 393 381 384 362 364 417 394 377 374 261 248 207 238 240 206 249 280 226 206 180 207 213 237 212 219 215 207 215 179 181 182 191 188 161 179 177 160 160 164 161 164 166 166
372 373 404 521 404 353 379 289 377 370 370 386 276 248 249 234 228 218 208 271 254 237 227 214 186 202 205 207 217 216 216 206 207 196 196 197 173 190 190 182 174 177 168 160 186
370 383 387 389 376 357 402 375 341 356 437 331 319 260 257 195 233 231 229 201 222 256 244 232 230 221 211 185 217 221 213 221 219 225 222 205 207 207 209 208 202 155 168 164 133
388 396 362 393 397 409 356 336 340 351 424 337 318 321 259 257 248 232 222 223 198 202 264 256 245 233 228 209 233 181 221 211 211 223 219 229 233 234 248 245 246 240 242 239 240
398 418 419 441 359 321 311 299 283 383 395 328 246 316 338 259 254 246 231 225 237 214 215 274 277 258 245 236 231 204 208 196 216 205 211 217 193 216 207 223 222 225 230 232 243
279 286 275 278 297 297 335 330 320 316 261 263 315 183 300 335 257 264 234 235 227 215 214 213 220 250 260 283 287 284 282 250 234 216 222 225 215 220 226 231 244 251 256 240 257
333 350 334 299 306 317 330 322 286 311 312 188 268 271 164 288 194 255 220 229 233 197 215 213 215 217 229 234 241 252 264 273 277 282 275 274 273 272 268 261 260 258 258 263 270
345 337 361 386 313 319 318 290 297 286 287 180 271 198 190 142 315 171 228 201 217 213 203 225 228 225 223 230 230 227 231 241 251 282 279 280 276 268 268 264 268 272 278 293 265
289 336 357 320 307 305 309 294 287 294 215 295 296 208 297 297 310 262 259 212 245 221 216 208 217 222 230 234 237 233 242 256 256 257 259 261 266 268 269 146 218 291 304 313 302
334 320 303 312 320 277 267 300 286 310 310 297 294 299 308 303 312 309 219 226 217 221 215 221 227 230 231 233 241 249 240 239 243 246 251 259 264 273 326 348 323 308 306 288 288
192 224 335 329 327 294 285 301 291 301 300 260 252 263 305 237 230 245 240 309 232 240 232 233 232 237 243 243 246 247 252 271 278 282 288 310 349 337 321 311 299 294 286 283 278
164 168 191 211 252 332 340 322 304 335 317 323 323 316 330 262 241 241 242 244 240 241 242 243 251 259 275 309 344 350 366 383 393 368 344 321 317 310 305 296 284 280 286 278 269
233 210 125 127 195 191 114 218 242 255 311 317 317 323 373 371 405 408 414 431 387 412 433 399 393 391 370 370 373 367 366 348 348 327 320 320 310 293 266 280 233 229 234 252 232
167 188 209 211 202 124 182 171 168 188 203 213 217 222 225 231 235 244 246 245 244 237 237 234 239 234 232 233 234 231 233 235 238 234 234 235 234 169 140 140 141 195 224 230 225
178 190 158 212 140 142 149 131 139 169 174 160 174 185 192 196 197 200 204 208 210 212 214 215 216 218 223 219 219 218 216 213 212 211 214 173 158 189 147 174 198 194 193 191 190
143 195 182 185 173 183 198 202 215 222 159 153 146 146 134 164 167 167 172 189 199 182 200 199 235 184 181 188 178 180 157 158 149 140 139 163 138 125 135 139 136 192 160 139 168
156 186 141 157 174 182 180 162 177 147 169 191 199 207 215 182 184 161 154 190 218 225 155 155 196 216 178 173 143 145 188 173 139 143 186 139 137 137 129 162 128 130 136 134 125
151 122 181 146 156 188 178 170 180 180 181 168 149 195 197 199 198 206 201 205 208 204 211 214 220 220 198 226 235 233 229 233 146 140 243 205 193 234 214 121 129 124 253 170 130
181 175 173 127 181 155 183 132 148 188 200 142 190 174 199 200 194 195 197 195 201 207 197 209 212 214 221 223 227 230 227 237 243 240 123 126 250 247 121 249 257 242 223 244 279
174 185 184 170 185 154 181 134 165 129 127 164 175 182 183 184 157 181 195 198 187 194 196 193 193 193 207 199 214 210 217 215 222 213 206 230 233 229 240 247 247 243 241 241 242

GFSSW_2pvu_pres_117.txt.gz
Presure
392 383 410 286 178 175 181 208 309 308 215 201 207 208 233 193 197 200 183 159 148 155 152 148 139 144 145 141 144 169 160 166 139 178 179 135 135 126 135 151 132 139 134 76 137
377 416 372 392 283 259 159 145 173 212 308 278 223 209 225 238 208 182 183 184 179 158 150 146 144 141 147 138 135 142 152 172 119 63 100 173 161 159 145 127 127 128 128 119 132
348 381 363 367 388 331 255 213 200 151 256 251 301 220 215 205 242 199 211 171 181 169 161 162 157 144 149 151 141 140 130 133 155 157 129 131 146 144 143 187 183 180 149 136 133
352 357 387 373 372 382 389 251 181 194 191 145 242 288 246 205 201 221 227 209 200 183 179 169 151 150 164 138 154 145 143 143 138 146 132 145 149 137 162 166 171 169 139 176 153
344 374 371 377 362 369 381 395 246 221 211 149 189 217 241 269 204 202 233 226 198 209 182 184 174 166 154 185 148 132 149 153 157 128 147 130 130 137 121 138 127 161 168 155 142
358 340 367 356 355 362 379 413 392 253 179 191 186 189 185 273 236 203 196 192 226 223 211 191 187 187 164 180 144 168 168 167 155 166 153 136 129 133 117 123 125 151 146 153 182
360 343 343 352 350 346 359 374 403 340 258 239 204 189 142 190 222 239 219 217 204 225 185 217 204 191 176 184 170 161 180 175 134 121 177 158 157 139 159 140 151 130 133 143 141
390 370 352 340 349 355 354 368 396 394 283 256 244 203 194 191 180 226 250 229 223 206 205 228 228 211 184 187 185 177 203 197 181 183 155 174 159 131 172 127 131 117 172 144 136
402 453 390 346 346 353 371 415 388 384 393 265 245 245 137 164 192 188 189 200 269 227 227 202 232 232 214 190 201 193 179 188 186 189 190 185 175 167 154 176 181 183 184 163 129
391 384 517 414 369 367 401 383 373 394 378 331 244 248 179 241 189 183 204 191 230 280 260 214 212 227 221 221 211 211 204 212 187 209 216 200 191 218 194 193 196 196 195 200 202
389 402 397 415 383 396 395 366 370 374 328 327 266 258 256 234 160 169 199 199 188 205 284 279 227 199 226 228 229 229 201 206 211 238 210 214 224 225 227 231 242 230 232 238 240
242 187 331 347 376 370 363 367 373 340 327 319 328 275 265 263 257 175 212 193 197 190 222 274 271 265 214 198 184 199 223 223 211 203 201 207 195 206 225 229 225 229 241 232 237
365 347 305 371 302 322 343 364 335 329 324 326 322 322 324 262 240 249 236 236 229 198 203 222 244 260 276 273 267 258 225 247 235 234 205 221 217 227 222 225 236 233 231 230 226
326 303 324 329 342 348 175 218 403 324 326 315 127 166 306 304 305 234 239 236 219 216 216 208 199 196 204 211 237 275 290 285 282 279 252 239 233 277 273 275 281 290 299 298 291
317 323 286 317 285 190 170 354 217 317 168 322 317 306 345 323 156 320 303 225 229 217 216 222 221 209 212 228 229 234 238 239 248 253 257 259 263 257 259 269 297 299 294 290 286
317 298 290 280 306 278 265 296 290 295 268 305 220 228 301 197 271 212 323 262 249 230 221 231 237 227 218 227 223 222 229 240 237 247 253 245 255 264 265 254 253 253 256 269 297
228 323 321 303 303 275 282 290 297 268 282 303 272 263 209 225 260 259 343 287 261 252 229 235 235 232 224 229 230 234 240 248 251 250 255 255 253 254 256 271 288 326 323 313 172
204 248 214 313 308 304 309 301 296 291 288 266 227 283 298 290 235 207 197 303 248 218 225 218 221 228 230 239 247 247 247 253 255 257 263 273 341 353 365 357 335 321 310 309 293
124 168 173 260 209 220 260 294 320 311 327 324 330 298 259 265 277 317 332 225 240 241 225 228 229 240 240 251 277 400 409 407 416 414 400 370 357 349 332 294 300 254 246 243 238
186 144 132 225 118 240 279 229 198 231 260 267 273 282 290 352 320 269 242 241 244 243 271 272 305 315 288 278 267 265 256 252 270 274 266 262 268 264 246 241 237 233 226 228 225
177 164 205 140 126 170 212 214 252 267 252 196 191 194 216 254 261 266 269 265 260 254 249 236 227 221 219 215 214 213 210 207 207 201 210 204 204 196 201 200 198 198 162 178 189
182 184 183 136 151 206 189 198 151 200 218 239 240 171 243 183 212 252 186 188 188 187 187 190 186 185 185 185 185 185 183 182 185 182 182 186 232 292 288 276 276 270 170 267 265
186 150 172 188 192 180 196 156 183 168 130 197 134 195 206 213 227 231 235 237 237 239 241 228 238 242 233 237 244 161 157 156 237 153 150 166 161 138 174 134 132 252 135 140 141
168 156 162 174 187 169 188 190 176 167 159 202 189 188 170 177 156 211 212 211 215 216 214 215 221 232 147 171 147 141 190 142 141 143 141 163 193 136 139 186 135 135 131 128 129
157 124 121 172 180 180 190 182 170 183 183 188 187 188 152 165 196 195 198 181 181 202 202 167 213 205 218 219 200 224 215 222 215 224 203 220 216 210 233 207 229 240 242 241 166
171 160 167 219 181 158 132 133 177 178 185 181 186 184 192 178 182 146 128 128 197 203 188 198 192 193 208 196 194 199 201 204 206 204 205 204 211 214 130 133 215 200 228 233 235
189 177 186 190 165 171 191 148 164 170 180 175 181 177 183 184 208 200 199 189 187 180 178 185 184 199 197 187 202 187 190 194 189 202 161 194 200 201 200 202 207 216 211 217 227

GFSSW_2pvu_pres_120.txt.gz
Presure
364 373 396 407 201 173 184 181 289 273 315 243 237 242 223 213 202 172 173 162 147 158 139 142 146 143 131 145 159 154 119 155 173 88 113 104 137 74 94 130 142 121 124 131 87
374 367 356 376 394 372 183 176 174 199 285 308 214 229 238 228 218 180 175 163 163 152 151 133 142 145 142 147 137 172 134 157 156 148 179 131 135 98 157 109 152 143 142 154 136
366 347 331 361 374 374 252 184 173 160 141 311 273 218 215 223 225 218 215 173 165 175 161 150 145 159 144 154 141 145 143 140 163 158 165 175 139 137 145 189 148 143 117 164 120
344 366 337 344 342 356 398 215 182 174 167 160 293 258 216 214 210 224 185 217 178 190 162 176 159 149 144 156 141 145 150 148 147 141 154 157 165 139 131 134 141 183 147 180 148
357 345 342 357 349 346 356 267 200 190 175 241 136 259 269 217 224 207 207 233 213 189 180 176 163 164 158 156 155 151 149 144 149 142 145 137 138 157 159 149 129 130 144 162 143
347 357 347 343 352 355 361 428 252 220 201 180 159 322 266 271 229 211 222 228 221 184 183 191 182 178 168 169 158 137 163 138 143 146 146 141 139 139 139 134 152 153 129 157 140
343 371 376 339 341 350 352 369 263 241 217 204 167 229 162 152 277 225 214 206 221 233 189 180 190 179 196 181 176 185 166 154 159 178 141 156 153 147 151 148 146 145 141 148 139
355 350 342 356 355 345 364 388 352 255 246 225 196 176 167 146 294 287 216 214 199 211 235 228 192 202 180 173 172 173 174 179 176 158 160 139 139 169 152 144 152 119 170 143 136
379 343 353 273 355 348 363 375 375 264 256 259 203 190 180 224 160 235 261 270 219 207 197 210 234 208 199 186 184 183 197 181 175 187 179 158 161 167 149 170 151 162 161 134 159
416 360 343 359 355 357 355 375 373 414 258 251 130 202 184 172 210 197 248 216 271 264 219 194 189 218 228 220 213 205 208 194 192 193 189 202 192 186 182 192 207 212 195 199 199
362 202 345 361 346 359 371 372 411 390 292 256 249 239 192 194 209 211 170 169 273 243 263 199 194 196 197 196 187 236 235 235 220 207 195 196 216 196 199 188 192 206 222 191 237
300 348 411 374 342 350 379 404 352 353 329 241 260 209 247 188 164 184 180 183 185 228 241 247 256 255 231 223 218 220 203 211 232 243 237 219 207 207 208 218 210 207 224 239 221
216 257 378 249 357 250 333 322 316 316 318 157 213 261 185 247 199 188 187 183 184 192 197 188 187 249 270 284 278 270 210 209 215 225 198 215 228 231 238 229 229 235 237 230 221
304 356 391 168 320 314 262 307 315 318 337 198 342 328 265 258 251 208 195 202 153 187 194 175 199 182 207 263 275 273 275 238 206 217 218 209 198 204 269 287 292 274 272 283 277
296 307 175 300 212 306 318 326 314 302 157 319 151 322 354 266 250 245 217 223 222 197 190 194 187 206 191 200 240 245 247 255 257 253 252 264 277 259 263 266 264 262 257 248 246
327 315 295 292 302 299 291 280 274 281 200 139 157 308 324 340 291 256 251 185 254 232 226 212 204 201 205 214 211 211 208 210 217 234 243 233 236 234 241 242 248 254 260 261 258
270 238 322 317 302 286 294 297 291 213 301 303 208 154 177 333 193 202 315 322 224 247 229 214 226 221 224 229 233 235 225 229 229 234 233 237 245 249 250 260 265 272 284 336 353
219 256 270 228 259 311 316 319 291 269 270 300 301 293 178 301 167 341 339 314 326 346 258 251 231 228 236 241 241 221 229 238 245 272 284 296 299 305 381 384 382 369 353 300 280
199 131 222 248 277 246 229 249 334 331 337 272 259 287 313 209 304 216 319 327 310 289 235 236 238 228 244 241 263 399 421 426 425 421 409 402 392 357 322 290 277 266 256 242 225
191 163 171 208 211 234 264 283 234 229 249 277 354 383 359 346 256 225 224 235 238 224 251 309 302 383 325 275 219 215 213 234 226 212 213 232 219 214 213 211 211 207 226 200 201
182 192 202 126 129 212 207 211 238 240 252 277 246 249 243 284 243 279 279 280 281 284 277 284 255 255 267 238 252 256 254 255 240 246 217 216 267 213 214 244 266 240 259 259 264
167 139 194 177 185 166 209 215 213 218 212 217 235 237 234 235 234 235 237 231 233 238 237 237 217 215 218 225 228 228 229 228 227 230 239 233 237 239 225 246 242 241 242 160 166
170 183 175 174 176 182 184 135 129 197 192 222 222 211 214 213 211 222 225 228 221 217 220 207 219 221 225 209 214 216 218 219 221 222 224 207 212 208 213 135 199 160 140 132 141
164 187 189 164 158 168 134 177 180 184 183 164 152 132 134 166 168 192 180 205 206 199 202 207 208 205 208 194 208 153 184 211 209 179 209 206 214 208 208 209 208 137 136 133 133
186 118 173 172 166 166 184 177 178 183 160 168 169 156 155 198 191 198 181 198 186 186 198 180 147 197 144 142 155 143 141 141 141 179 144 201 182 188 152 151 198 194 211 208 146
165 180 199 167 168 189 168 135 171 175 143 167 194 172 172 217 179 178 179 178 179 178 183 185 198 191 136 196 159 180 191 195 188 197 200 201 184 201 189 191 185 211 184 186 180
156 177 160 169 162 169 169 180 143 173 183 190 167 172 168 172 172 205 188 190 187 188 189 203 185 186 188 201 185 206 189 197 201 204 186 193 219 192 195 202 182 179 203 198 185

GFSSW_2pvu_pres_123.txt.gz
Presure
377 377 398 454 164 192 159 226 238 277 260 289 208 233 241 200 203 165 156 152 151 138 132 148 132 142 151 155 160 121 156 148 114 142 132 140 111 93 88 75 87 84 89 88 83
346 348 362 373 354 312 285 153 258 243 273 278 212 231 235 215 239 201 180 159 151 153 141 133 161 135 138 141 152 152 154 120 123 157 116 155 134 135 162 129 85 116 125 90 135
327 351 320 360 374 374 350 393 176 213 158 242 284 292 206 220 230 197 198 210 160 149 148 146 139 152 144 141 134 145 146 149 146 152 132 99 117 136 172 87 104 101 160 98 95
341 326 318 326 364 370 366 366 171 175 161 156 222 287 241 225 221 224 223 222 201 193 154 165 150 147 144 153 142 141 144 146 127 166 152 171 148 153 129 166 171 135 135 117 113
336 326 323 333 345 339 369 366 343 174 166 162 265 285 246 278 215 201 217 180 216 206 190 166 153 158 153 138 154 138 142 141 149 141 151 137 168 147 152 175 163 141 137 139 140
340 327 344 338 327 330 372 395 397 180 191 179 260 178 270 227 216 210 213 222 223 219 188 188 200 163 154 157 147 138 147 132 138 144 144 142 123 148 146 142 145 151 152 159 165
346 338 333 326 324 334 344 372 393 220 181 182 168 154 155 218 215 207 204 215 217 196 209 207 195 166 170 158 157 164 158 134 138 142 154 141 144 154 133 145 149 142 142 145 127
364 339 336 356 338 332 339 374 384 235 203 228 172 153 163 133 196 271 249 223 226 232 212 201 211 206 196 168 168 163 162 161 157 159 160 157 161 163 152 146 143 147 147 144 139
360 365 344 327 326 340 340 381 397 253 234 199 201 169 164 143 286 236 211 219 218 209 215 215 195 205 190 199 198 173 171 170 170 178 170 170 174 155 165 160 158 161 153 154 149
359 361 360 359 348 351 338 394 338 257 238 218 177 217 164 229 150 177 250 213 212 208 207 201 217 214 221 226 213 208 201 178 185 191 200 196 185 191 175 169 174 183 203 187 171
342 346 371 363 358 355 347 382 321 297 249 234 188 155 234 238 164 137 275 270 202 200 205 217 207 198 222 222 247 222 189 186 187 186 212 187 187 188 188 189 197 199 203 207 209
323 302 336 371 371 371 369 368 389 307 263 257 213 196 209 187 165 140 157 268 229 275 235 224 214 214 201 197 196 226 248 245 226 210 203 210 211 207 209 214 220 227 218 226 225
234 145 137 311 300 354 391 333 324 326 273 252 209 208 202 183 222 223 193 201 240 171 231 214 268 275 268 200 202 204 198 188 194 205 211 215 218 218 232 240 228 234 245 251 252
302 257 187 311 320 320 346 340 340 342 294 253 227 235 153 160 188 204 187 168 220 221 226 197 166 278 275 182 269 260 189 201 280 298 280 270 280 223 214 215 216 233 241 239 282
262 306 298 308 266 299 308 326 157 330 349 279 214 178 223 211 193 184 182 204 191 178 204 185 184 180 268 237 235 232 232 176 250 258 258 258 131 257 264 271 271 270 267 257 240
303 317 262 280 293 296 198 320 292 138 148 354 347 252 135 158 198 223 190 189 168 155 159 181 163 189 180 204 194 199 202 196 195 236 245 239 242 229 240 219 235 239 238 242 245
261 259 309 317 262 266 297 308 226 318 156 325 344 299 277 242 181 245 241 229 199 142 192 197 195 199 198 195 195 190 210 225 230 235 240 232 221 225 233 242 246 253 263 273 339
235 232 267 274 279 322 260 314 296 214 151 156 281 340 339 346 283 275 266 253 216 208 214 190 237 210 196 217 211 221 241 254 284 432 459 441 438 425 420 410 409 398 354 345 312
206 207 234 236 258 272 270 360 308 252 213 317 170 228 338 347 243 350 162 302 280 265 255 263 230 213 225 236 257 317 398 247 233 222 223 229 238 239 236 255 270 267 270 270 289
142 156 153 204 227 229 244 254 267 279 329 263 326 210 243 298 327 338 330 340 343 316 250 228 216 266 287 278 239 278 288 273 263 259 260 261 254 261 257 258 246 250 253 262 267
186 184 171 201 194 200 207 216 226 246 253 257 270 279 288 309 309 346 349 310 354 334 337 283 274 262 260 244 243 239 232 228 218 214 208 232 232 219 231 231 233 233 227 228 235
172 184 191 141 200 172 184 212 215 213 234 222 245 250 253 260 274 278 277 276 263 253 243 240 236 226 222 220 217 188 215 217 202 220 215 215 229 221 222 221 216 219 216 212 213
168 147 184 165 180 174 175 149 182 184 204 206 217 221 218 221 224 221 225 224 219 219 219 218 214 206 211 202 195 207 214 215 214 202 204 201 208 186 208 209 208 212 140 209 207
178 167 170 181 171 161 166 171 166 173 190 163 191 182 197 199 208 206 212 207 207 207 198 194 199 197 202 204 195 213 209 206 205 203 202 199 196 190 201 205 204 194 141 179 191
185 182 158 138 158 173 173 176 164 144 132 144 197 173 164 141 136 155 185 150 168 149 158 158 193 191 180 150 144 149 138 153 140 155 144 184 174 203 186 148 133 181 197 195 189
157 190 188 170 132 158 157 165 141 168 169 177 172 216 159 183 177 186 167 204 150 186 189 176 184 179 194 196 187 187 191 187 201 192 199 188 187 193 191 190 192 189 190 190 144
160 174 164 165 189 163 183 161 139 161 163 172 142 163 175 205 160 203 197 163 174 172 190 169 176 179 169 177 177 189 173 209 186 174 176 181 178 175 177 178 199 197 200 202 203